     2              OBSERVATION DATA    GPS                 RINEX VERSION / TYPE
ASHTORIN MIT 28 - OCT - 96 11:28                            PGM / RUN BY / DATE
                                                            COMMENT
CHINA LAKE 1996 P-Code Ashtech data EXPT #2                 COMMENT
Original Marker Name: GS19                                  COMMENT
Campaign Name: China Lake Nov 1996                          COMMENT
4-Character Station Name: GS19                              COMMENT
6-Character Antenna Code: ASHP12                            COMMENT
Vertical Measurement Point: TGP                             COMMENT
Vertical Offset to Rinex Ref. Point: 0.0640                 COMMENT
Radial Measurement Point: OOH                               COMMENT
Radial Offset to Rinex Ref. Point: 0.1318                   COMMENT
Antenna Height from Field Measurement: 0.9230 m             COMMENT
Additional Antenna Identification Info.:                    COMMENT
Ashtech L1/L2 Revision B (700228DE)                         COMMENT
Original XYZ: -2455781.9300 -4602727.8900 3658823.2300      COMMENT
New XYZ position is based on association with SCEC monument COMMENT
E1F4D6R5+0011. Position of that monument is believed to be  COMMENT
valid to within 1 m horizontally; vertical accuracy         COMMENT
should be no worse than 3-times this value.                 COMMENT
                                                            COMMENT
Revised Rinex header created by UCSD GPS archive for        COMMENT
GSAC on 01-Aug-2000 (2000:214) 04:19:00 GMT                 COMMENT
For assistance contact dagnew@ucsd.edu                      COMMENT
or anderson@python.ucsd.edu                                 COMMENT
                                                            COMMENT
SNORT A 1950                                                MARKER NAME
                                                            MARKER NUMBER
HEM US DEFENSE MAPPING AGENCY                               OBSERVER / AGENCY
453 ASHTECH Z-XII3 1G001C7                                  REC # / TYPE / VERS
292 ASHTECH GEODETIC P                                      ANT # / TYPE
 -2415084.7300 -4592334.8302  3697983.7270                  APPROX POSITION XYZ
        0.8495        0.0000        0.0000                  ANTENNA: DELTA H/E/N
     1     1     0                                          WAVELENGTH FACT L1/2
     7    L1    L2    C1    P1    P2    D1    D2            # / TYPES OF OBSERV
    30                                                      INTERVAL
  1996    10    21    15    24   30.000000                  TIME OF FIRST OBS
  1996    10    21    21    32   30.000000                  TIME OF LAST OBS
                                                            END OF HEADER
 96 10 21 15 24 30.0000000  0  7 17 28 26  6 23 22 21                0.000027181
    -32868.901 9    -23503.59848  20581577.612    20581579.8464   20581584.2714
       480.032         374.051
   -149592.033 9   -105334.813 9  21097013.559    21097015.391    21097019.170
      2158.786        1682.171
     46840.610 9     32975.64548  22253869.557    22253871.7754   22253875.4054
      -696.237        -542.522
    163767.584 9    117857.27748  21266173.022    21266175.1194   21266179.7524
     -2240.631       -1745.946
    -75752.282 9    -52940.75848  20787143.785    20787144.2294   20787148.5664
      1080.806         842.186
     30415.541 9     21361.81047  23514263.239    23514265.2304   23514270.0814
      -452.217        -352.377
   -196879.588 9   -137211.01947  23096308.962    23096310.4694   23096315.6694
      2823.272        2199.952
 96 10 21 15 25  0.0000000  0  7 17 28 26  6 23 22 21                0.000023631
    -47200.955 9    -34671.43758  20578850.989    20578852.6015   20578857.0525
       475.876         370.812
   -214192.139 9   -155672.56519  21084721.595    21084722.4421   21084726.1801
      2148.177        1673.904
     67977.139 9     49445.66758  22257890.785    22257893.7745   22257897.4825
      -712.637        -555.302
    231140.911 9    170355.94958  21278994.876    21278995.8195   21279000.4975
     -2250.622       -1753.731
   -108029.636 9    -78091.93958  20781002.674    20781002.0865   20781006.3955
      1071.345         834.814
     44154.898 9     32067.81757  23516878.962    23516879.7775   23516884.6795
      -463.544        -361.203
   -281523.061 9   -203166.96057  23080202.038    23080203.3305   23080208.5895
      2819.859        2197.293
 96 10 21 15 25 30.0000000  0  8 17 28 26  6 23 22 21  3             0.000019921
    -61426.306 9    -45756.12448  20576144.597    20576145.6214   20576150.0864
       472.552         368.222
   -278483.876 9   -205770.013 9  21072487.342    21072488.182    21072491.875
      2138.026        1665.994
     89592.994 9     66289.18948  22262004.577    22262007.1474   22262010.8534
      -728.149        -567.389
    298798.550 9    223076.16048  21291869.777    21291870.6454   21291875.3474
     -2259.819       -1760.898
   -140036.987 9   -103032.72048  20774912.119    20774911.3074   20774915.6104
      1062.531         827.946
     58226.584 9     43032.73647  23519556.826    23519557.5634   23519562.4804
      -474.479        -369.724
   -366067.834 9   -269045.99247  23064113.254    23064115.0014   23064120.2784
      2816.442        2194.630
   -327538.44319   -232353.47955  24587422.575    24587423.6625   24587429.2025
      3715.750        2895.390
 96 10 21 15 26  0.0000000  0  8 17 28 26  6 23 22 21  3             0.000016185
    -75547.657 9    -56759.77748  20573457.515    20573458.4874   20573462.9374
       468.719         365.236
   -342465.068 9   -255625.484 9  21060312.061    21060312.995    21060316.669
      2127.156        1657.524
    111677.378 9     83497.79948  22266207.513    22266209.7064   22266213.3594
      -744.300        -579.974
    366739.944 9    276017.48148  21304798.415    21304799.5094   21304804.1954
     -2269.949       -1768.791
   -171772.669 9   -127761.81148  20768871.957    20768872.1824   20768876.5144
      1052.928         820.463
     72634.409 9     54259.60247  23522298.667    23522299.2674   23522304.2354
      -486.275        -378.916
   -450499.140 9   -334836.61047  23048046.963    23048048.3264   23048053.5554
      2812.072        2191.225
   -439021.153 9   -319223.11555  24566206.981    24566209.0935   24566214.7215
      3716.294        2895.814
 96 10 21 15 26 30.0000000  0  8 17 28 26  6 23 22 21  3             0.000012362
    -89577.679 9    -67692.26148  20570787.459    20570788.7644   20570793.2224
       466.244         363.307
   -406145.089 9   -305246.279 9  21048194.125    21048195.120    21048198.781
      2117.779        1650.217
    134217.316 9    101061.38348  22270496.806    22270498.9174   22270502.5974
      -758.568        -591.092
    434972.515 9    329185.69148  21317782.494    21317783.7844   21317788.4534
     -2279.358       -1776.123
   -203241.438 9   -152282.92148  20762883.332    20762883.8754   20762888.2394
      1044.554         813.938
     87375.039 9     65745.80447  23525103.672    23525104.3224   23525109.2944
      -496.838        -387.146
   -534827.235 9   -400546.80747  23032000.023    23032001.2234   23032006.4254
      2809.323        2189.083
   -550554.681 9   -406132.37345  24544983.734    24544984.8844   24544990.5214
      3718.842        2897.799
 96 10 21 15 27  0.0000000  0  8 17 28 26  6 23 22 21  3             0.000008445
   -103525.072 9    -78560.36248  20568133.595    20568134.7194   20568139.2204
       463.836         361.431
   -469529.264 9   -354636.541 9  21036132.508    21036133.532    21036137.207
      2108.009        1642.604
    157183.674 9    118957.24648  22274867.120    22274869.2974   22274872.9874
      -772.354        -601.834
    503506.841 9    382589.04048  21330824.206    21330825.4974   21330830.1544
     -2289.335       -1783.897
   -234454.231 9   -176604.57648  20756943.623    20756944.3164   20756948.6524
      1036.468         807.637
    102442.702 9     77486.82847  23527970.806    23527971.5264   23527976.5394
      -507.337        -395.328
   -619055.699 9   -466179.37047  23015971.942    23015973.0924   23015978.2834
      2806.115        2186.583
   -662143.091 9   -493084.39845  24523749.321    24523750.4714   24523755.8024
      3720.435        2899.040
 96 10 21 15 27 30.0000000  0  8 17 28 26  6 23 22 21  3             0.000004437
   -117393.754 9    -89367.12848  20565494.345    20565495.6344   20565500.1584
       460.829         359.088
   -532615.375 9   -403794.549 9  21024127.647    21024128.667    21024132.340
      2097.862        1634.698
    180560.680 9    137173.08748  22279315.868    22279317.8924   22279321.5264
      -785.960        -612.436
    572340.668 9    436225.76248  21343922.844    21343924.1794   21343928.8354
     -2299.291       -1791.655
   -265414.521 9   -200729.47748  20751051.973    20751052.8094   20751057.1384
      1027.652         800.768
    117827.527 9     89474.99747  23530898.336    23530899.1424   23530904.2134
      -518.049        -403.675
   -703182.449 9   -531732.67447  22999963.142    22999964.3234   22999969.5194
      2802.510        2183.774
   -773772.681 9   -580068.50845  24502506.975    24502508.1994   24502513.3094
      3721.564        2899.920
 96 10 21 15 28  0.0000000  0  8 17 28 26  6 23 22 21  3             0.000000326
   -131182.074 9   -100111.27748  20562870.533    20562871.8414   20562876.3764
       458.152         357.002
   -595414.349 9   -452728.813 9  21012177.308    21012178.412    21012182.098
      2088.409        1627.332
    204336.038 9    155699.33148  22283840.517    22283842.2844   22283845.8584
      -799.332        -622.856
    641456.049 9    490081.87848  21357074.979    21357076.4194   21357081.0974
     -2308.654       -1798.951
   -296128.309 9   -224662.29348  20745207.304    20745208.2244   20745212.5484
      1019.665         794.544
    133508.208 9    101693.70047  23533882.230    23533883.0694   23533888.2294
      -527.640        -411.148
   -787227.966 9   -597222.67947  22983969.770    22983971.0024   22983976.1994
      2800.227        2181.995
   -885446.078 9   -667086.74346  24481256.093    24481257.3914   24481262.5324
      3723.170        2901.171
 96 10 21 15 28 30.0000000  0  8 17 28 26  6 23 22 21  3            -0.000003890
   -144875.513 9   -110781.49248  20560264.883    20560266.1174   20560270.6454
       454.690         354.304
   -657917.706 9   -501432.725 9  21000283.275    21000284.410    21000288.118
      2078.382        1619.518
    228520.750 9    174544.54348  22288442.715    22288444.5214   22288448.1164
      -813.114        -633.595
    710857.429 9    544160.85048  21370281.636    21370283.1004   21370287.7924
     -2317.978       -1806.217
   -326592.509 9   -248400.63348  20739410.129    20739411.0964   20739415.4224
      1011.162         787.918
    149485.137 9    114143.23547  23536922.569    23536923.4754   23536928.6354
      -537.598        -418.908
   -871194.468 9   -662651.11547  22967991.512    22967992.7194   22967997.9044
      2797.467        2179.844
   -997159.801 9   -754136.40246  24459997.621    24459998.9594   24460004.1364
      3724.241        2902.006
 96 10 21 15 28 59.9990000  0  8 17 28 26  6 23 22 21  3            -0.000008211
   -158478.701 9   -121381.38348  20557676.146    20557677.5604   20557682.0674
       452.248         352.401
   -720126.773 9   -549907.323 9  20988445.215    20988446.437    20988450.150
      2068.911        1612.138
    253118.691 9    193711.75548  22293123.675    22293125.4254   22293128.9944
      -826.902        -644.339
    780514.832 9    598439.32148  21383537.067    21383538.5164   21383543.1954
     -2325.905       -1812.394
   -356811.715 9   -271948.06648  20733659.550    20733660.6024   20733664.9354
      1003.460         781.917
    165753.229 9    126819.65947  23540018.279    23540019.2314   23540024.4264
      -547.103        -426.314
   -955082.081 9   -728018.07847  22952028.193    22952029.4394   22952034.6344
      2795.221        2178.094
  -1108904.116 9   -841209.91946  24438733.505    24438734.8224   24438739.9934
      3725.560        2903.034
 96 10 21 15 29 29.9990000  0  8 17 28 26  6 23 22 21  3            -0.000012637
   -172007.114 9   -131923.00948  20555101.900    20555103.2264   20555107.7114
       451.491         351.811
   -782045.959 9   -598156.041 9  20976662.428    20976663.637    20976667.361
      2060.808        1605.824
    278137.037 9    213206.55248  22297884.643    22297886.2944   22297889.8594
      -839.165        -653.895
    850412.005 9    652904.62248  21396838.135    21396839.5514   21396844.2454
     -2332.111       -1817.229
   -386785.642 9   -295304.37648  20727955.687    20727956.7844   20727961.1094
       996.779         776.711
    182323.568 9    139731.59547  23543171.686    23543172.4984   23543177.7424
      -555.846        -433.127
  -1038900.507 9   -793331.12747  22936078.104    22936079.3454   22936084.5414
      2794.438        2177.484
  -1220690.389 9   -928316.11546  24417461.001    24417462.6004   24417467.8044
      3728.626        2905.423
 96 10 21 15 29 59.9990000  0  8 17 28 26  6 23 22 21  3            -0.000017189
   -185513.260 9   -142447.27948  20552531.732    20552533.1144   20552537.5694
       449.133         349.974
   -843716.176 9   -646210.751 9  20964927.008    20964928.210    20964931.941
      2050.661        1597.918
    303530.453 9    232993.61448  22302716.845    22302718.4754   22302722.0924
      -853.418        -665.001
    920504.725 9    707522.29748  21410176.406    21410177.8104   21410182.4974
     -2340.671       -1823.899
   -416567.502 9   -318511.01348  20722288.364    20722289.5124   20722293.8374
       988.705         770.419
    199160.585 9    152851.33447  23546375.723    23546376.4814   23546381.7604
      -566.581        -441.492
  -1122693.489 9   -858624.34647  22920132.982    22920134.0714   22920139.3134
      2791.809        2175.436
  -1332567.063 9  -1015492.75246  24396171.451    24396173.2904   24396178.3854
      3730.074        2906.551
 96 10 21 15 30 29.9990000  0  8 17 28 26  6 23 22 21  3            -0.000021841
   -198962.030 9   -152926.84548  20549972.659    20549973.9274   20549978.3544
       447.323         348.563
   -905089.680 9   -694034.257 9  20953248.039    20953249.237    20953252.969
      2040.754        1590.198
    329332.186 9    253098.84048  22307626.631    22307628.3854   22307632.0474
      -866.878        -675.489
    990843.848 9    762331.97548  21423561.497    21423562.9224   21423567.5814
     -2348.779       -1830.217
   -446108.423 9   -341529.91248  20716666.917    20716668.0704   20716672.4084
       980.542         764.059
    216312.378 9    166216.34647  23549639.702    23549640.3964   23549645.6604
      -576.936        -449.561
  -1206411.708 9   -923859.32047  22904201.851    22904203.0324   22904208.2664
      2789.353        2173.522
  -1444493.737 9  -1102708.33946  24374872.616    24374874.3714   24374879.4134
      3731.576        2907.722
 96 10 21 15 30 59.9990000  0  8 17 28 26  6 23 22 21  3            -0.000026597
   -212367.032 9   -163372.29948  20547421.832    20547423.0684   20547427.4374
       445.756         347.342
   -966169.449 9   -741628.883 9  20941624.865    20941626.139    20941629.915
      2030.698        1582.362
    355530.297 9    273512.94548  22312611.995    22312613.7064   22312617.4284
      -880.020        -685.730
   1061427.955 9    817332.55248  21436993.203    21436994.6564   21436999.3134
     -2357.410       -1836.943
   -475416.628 9   -364367.47448  20711089.777    20711090.9464   20711095.2654
       972.877         758.086
    233764.780 9    179815.60347  23552960.731    23552961.4704   23552966.7594
      -586.885        -457.313
  -1290063.419 9   -989042.46847  22888283.462    22888284.6734   22888289.9044
      2786.920        2171.626
  -1556471.501 9  -1189963.73746  24353563.722    24353565.7194   24353570.7614
      3733.091        2908.902
 96 10 21 15 31 29.9990000  0  8 17 28 26  6 23 22 21  3            -0.000031454
   -225712.378 9   -173771.27248  20544882.286    20544883.5744   20544887.8874
       443.836         345.846
  -1026941.705 9   -788983.890 9  20930060.356    20930061.566    20930065.344
      2020.694        1574.567
    382115.786 9    294228.88948  22317670.973    22317672.7904   22317676.5314
      -892.573        -695.511
   1132286.927 9    872547.30748  21450477.225    21450478.7224   21450483.3574
     -2366.644       -1844.138
   -504492.031 9   -387023.63248  20705556.967    20705558.1394   20705562.4384
       965.476         752.319
    251509.793 9    193642.87247  23556337.481    23556338.2944   23556343.4904
      -596.084        -464.481
  -1373638.255 9  -1054165.71047  22872379.766    22872380.9524   22872386.1784
      2784.545        2169.775
  -1668487.218 9  -1277248.71846  24332248.016    24332249.7454   24332254.8134
      3734.514        2910.011
 96 10 21 15 31 59.9990000  0  8 17 28 26  6 23 22 21  3            -0.000036411
   -238999.630 9   -184124.97648  20542353.914    20542355.1134   20542359.4104
       441.818         344.274
  -1087410.721 9   -836102.601 9  20918553.445    20918554.727    20918558.505
      2010.517        1566.637
    409090.263 9    315247.94848  22322804.069    22322805.8744   22322809.6524
      -905.721        -705.757
   1203427.535 9    927981.52548  21464014.842    21464016.3574   21464021.0214
     -2376.087       -1851.496
   -533349.269 9   -409509.79048  20700065.609    20700066.7984   20700071.0924
       958.105         746.575
    269520.965 9    207677.52847  23559764.902    23559765.7264   23559770.8914
      -604.726        -471.215
  -1457138.488 9  -1119230.82247  22856490.272    22856491.3744   22856496.6004
      2782.066        2167.844
  -1780549.505 9  -1364569.96546  24310923.285    24310925.0214   24310930.1244
      3736.123        2911.265
 96 10 21 15 32 29.9990000  0  8 17 28 26  6 23 22 21  3            -0.000041447
   -252189.384 9   -194402.70748  20539843.911    20539845.2084   20539849.4714
       438.396         341.607
  -1147536.895 9   -882954.164 9  20907111.845    20907113.092    20907116.896
      1998.843        1557.540
    436496.562 9    336603.49248  22328019.421    22328021.1504   22328024.9254
      -920.479        -717.256
   1274882.377 9    983660.60248  21477612.304    21477613.7964   21477618.4644
     -2386.458       -1859.578
   -561943.194 9   -431790.76048  20694624.316    20694625.5494   20694629.8894
       949.189         739.628
    287826.884 9    221941.88147  23563248.411    23563249.2524   23563254.3594
      -614.813        -479.075
  -1540525.287 9  -1184207.53847  22840622.330    22840623.3814   22840628.5594
      2778.047        2164.712
  -1892613.065 9  -1451892.20346  24289597.618    24289600.0184   24289605.2314
      3735.710        2910.943
 96 10 21 15 32 59.9990000  0  8 17 28 26  6 23 22 21  3            -0.000046563
   -265290.329 9   -204611.25248  20537350.862    20537352.1964   20537356.4584
       434.837         338.834
  -1207331.283 9   -929547.191 9  20895733.315    20895734.594    20895738.430
      1987.348        1548.583
    464329.508 9    358291.48348  22333315.831    22333317.6134   22333321.3424
      -935.103        -728.652
   1346620.007 9   1039560.02748  21491263.548    21491265.0594   21491269.7464
     -2395.936       -1866.963
   -590299.479 9   -453886.56848  20689228.318    20689229.5344   20689233.8964
       941.118         733.339
    306417.774 9    236428.25847  23566786.219    23566787.0404   23566792.0934
      -624.807        -486.863
  -1623805.654 9  -1249101.32347  22824774.573    22824775.7034   22824780.7994
      2773.868        2161.456
  -2004685.201 9  -1539221.14846  24268271.268    24268273.5224   24268278.7664
      3735.543        2910.813
 96 10 21 15 33 29.9990000  0  8 17 28 26  6 23 22 21  3            -0.000051754
   -278290.796 9   -214741.48648  20534877.032    20534878.3064   20534882.5594
       431.831         336.492
  -1266791.985 9   -975880.199 9  20884418.272    20884419.612    20884423.456
      1976.631        1540.232
    492596.507 9    380317.71148  22338694.841    22338696.6634   22338700.4254
      -949.506        -739.875
   1418617.975 9   1095662.31148  21504964.339    21504965.8334   21504970.5264
     -2403.880       -1873.153
   -618416.703 9   -475796.09048  20683877.784    20683879.0244   20683883.3824
       933.292         727.240
    325307.359 9    251147.40047  23570380.737    23570381.6554   23570386.7494
      -634.620        -494.509
  -1706969.665 9  -1313904.44847  22808948.950    22808950.1504   22808955.2144
      2770.288        2158.666
  -2116754.172 9  -1626547.61346  24246945.464    24246947.6194   24246952.8014
      3735.680        2910.919
 96 10 21 15 33 59.9990000  0  8 17 28 26  6 23 22 21  3            -0.000057016
   -291189.326 9   -224792.29148  20532422.499    20532423.8204   20532428.0764
       427.957         333.473
  -1325916.710 9  -1021951.414 9  20873167.262    20873168.583    20873172.426
      1964.998        1531.167
    521314.086 9    402695.03248  22344159.611    22344161.4284   22344165.2154
      -964.820        -751.808
   1490855.154 9   1151950.99048  21518710.624    21518712.1264   21518716.8374
     -2411.974       -1879.460
   -646285.816 9   -497512.27848  20678574.483    20678575.7204   20678580.1144
       924.578         720.450
    344510.471 9    266110.84447  23574035.006    23574035.9034   23574041.0144
      -645.777        -503.203
  -1790007.562 9  -1378609.29047  22793147.304    22793148.5654   22793153.6494
      2765.680        2155.075
  -2228815.525 9  -1713868.12346  24225621.014    24225623.1334   24225628.2444
      3734.938        2910.341
 96 10 21 15 34 29.9990000  0  8 17 28 26  6 23 22 21  3            -0.000062332
   -303945.791 9   -234732.40248  20529995.057    20529996.3594   20530000.6384
       423.118         329.702
  -1384670.550 9  -1067733.627 9  20861986.769    20861988.117    20861991.955
      1952.502        1521.430
    550503.485 9    425440.00648  22349714.262    22349715.9894   22349719.7834
      -980.523        -764.044
   1563350.029 9   1208440.47948  21532505.889    21532507.4814   21532512.2054
     -2420.436       -1886.054
   -673872.111 9   -519008.08848  20673324.939    20673326.2084   20673330.6504
       915.229         713.165
    364078.269 9    281358.45847  23577758.653    23577759.5854   23577764.6374
      -658.032        -512.752
  -1872891.510 9  -1443194.17747  22777375.108    22777376.2804   22777381.3304
      2760.571        2151.094
  -2340824.110 9  -1801147.52946  24204306.568    24204308.5994   24204313.8064
      3733.033        2908.857
 96 10 21 15 34 59.9990000  0  8 17 28 26  6 23 22 21  3            -0.000067717
   -316568.680 9   -244568.42448  20527593.070    20527594.3184   20527598.6104
       418.743         326.293
  -1443065.502 9  -1113236.189 9  20850874.569    20850875.918    20850879.783
      1940.773        1512.291
    580143.099 9    448535.80048  22355354.499    22355356.2614   22355360.0264
      -995.082        -775.389
   1636084.316 9   1265116.51548  21546346.794    21546348.3884   21546353.1114
     -2428.410       -1892.268
   -701200.652 9   -540303.05148  20668124.549    20668125.8144   20668130.2224
       906.963         706.724
    383988.280 9    296872.73547  23581547.336    23581548.3124   23581553.3774
      -669.015        -521.310
  -1955642.975 9  -1507675.82847  22761628.042    22761629.1764   22761634.2304
      2756.552        2147.963
  -2452801.746 9  -1888402.82746  24182998.028    24183000.0534   24183005.2414
      3732.391        2908.357
 96 10 21 15 35 29.9990000  0  8 17 28 26  6 23 22 21  3            -0.000073162
   -329034.894 9   -254282.36648  20525220.827    20525222.0774   20525226.3804
       413.045         321.853
  -1501078.735 9  -1158441.312 9  20839835.050    20839836.393    20839840.278
      1927.468        1501.923
    610247.983 9    471994.13648  22361083.384    22361085.0674   22361088.7924
     -1011.111        -787.879
   1709101.500 9   1322012.98848  21560241.585    21560243.1614   21560247.8734
     -2438.772       -1900.342
   -728246.863 9   -561378.01948  20662977.864    20662979.0994   20662983.5484
       896.863         698.854
    404256.239 9    312665.92947  23585404.280    23585405.1954   23585410.3414
      -681.340        -530.914
  -2038254.749 9  -1572048.62747  22745907.569    22745908.6684   22745913.7564
      2751.547        2144.062
  -2564738.877 9  -1975626.55546  24161697.308    24161699.1594   24161704.3174
      3730.819        2907.132
 96 10 21 15 35 59.9990000  0  8 17 28 26  6 23 22 21  3            -0.000078674
   -341347.667 9   -263876.74548  20522877.744    20522879.0284   20522883.3474
       407.785         317.755
  -1558708.134 9  -1203347.337 9  20828868.523    20828869.894    20828873.801
      1914.477        1491.800
    640808.789 9    495807.74248  22366898.920    22366900.5744   22366904.3174
     -1026.136        -799.586
   1782425.066 9   1379148.20748  21574194.628    21574196.2214   21574200.9204
     -2449.486       -1908.690
   -755011.091 9   -582233.25648  20657884.779    20657886.0354   20657890.4904
       887.434         691.507
    424871.655 9    328729.87247  23589327.317    23589328.2344   23589333.2964
      -693.028        -540.022
  -2120736.720 9  -1636320.27648  22730211.769    22730212.9024   22730217.9644
      2747.423        2140.849
  -2676658.835 9  -2062836.91046  24140399.591    24140401.5214   24140406.7044
      3730.391        2906.798
 96 10 21 15 36 29.9990000  0  8 17 28 26  6 23 22 21  3            -0.000084259
   -353490.833 9   -273338.95748  20520566.941    20520568.2494   20520572.5584
       401.737         313.042
  -1615938.346 9  -1247942.308 9  20817977.976    20817979.350    20817983.247
      1900.725        1481.084
    671821.781 9    519973.70248  22372800.486    22372802.1574   22372805.8774
     -1041.608        -811.643
   1856081.687 9   1436542.94748  21588211.029    21588212.6514   21588217.3624
     -2460.997       -1917.660
   -781481.612 9   -602859.63148  20652847.582    20652848.8734   20652853.3254
       877.165         683.505
    445836.930 9    345066.43047  23593317.005    23593317.8994   23593322.8424
      -704.599        -549.038
  -2203103.277 9  -1700501.99848  22714537.966    22714539.0534   22714544.0924
      2743.429        2137.737
  -2788557.984 9  -2150031.04346  24119105.781    24119107.8874   24119113.0424
      3729.366        2905.999
 96 10 21 15 36 59.9990000  0  8 17 28 26  6 23 22 21  3            -0.000089923
   -365472.606 9   -282675.41248  20518286.865    20518288.2264   20518292.5034
       396.380         308.868
  -1672773.069 9  -1292229.107 9  20807162.681    20807164.057    20807167.964
      1887.529        1470.802
    703286.625 9    544491.75348  22378788.050    22378789.7734   22378793.4534
     -1056.779        -823.464
   1930073.693 9   1494199.02148  21602291.336    21602292.9294   21602297.6424
     -2472.470       -1926.600
   -807657.636 9   -623256.52948  20647866.427    20647867.7694   20647872.2244
       867.160         675.709
    467123.510 9    361653.34747  23597367.834    23597368.6534   23597373.5374
      -715.318        -557.391
  -2285356.006 9  -1764595.02148  22698885.728    22698886.8844   22698891.9154
      2739.253        2134.483
  -2900447.620 9  -2237217.75746  24097813.940    24097816.0504   24097821.1644
      3728.933        2905.662
 96 10 21 15 37 29.9990000  0  8 17 28 26  6 23 22 21  3            -0.000095650
   -377288.858 9   -291882.88848  20516038.392    20516039.7114   20516043.9714
       391.499         305.064
  -1729201.981 9  -1336199.691 9  20796424.698    20796426.020    20796429.932
      1874.462        1460.620
    735218.910 9    569374.04448  22384864.580    22384866.3084   22384869.9774
     -1071.953        -835.288
   2004415.140 9   1552127.40248  21616438.108    21616439.6504   21616444.3944
     -2483.275       -1935.019
   -833521.095 9   -643409.86648  20642944.754    20642946.0964   20642950.5914
       857.107         667.875
    488747.148 9    378502.92247  23601482.733    23601483.5154   23601488.4074
      -726.069        -565.768
  -2367467.460 9  -1828577.95448  22683260.524    22683261.5854   22683266.6354
      2734.803        2131.015
  -3012302.279 9  -2324377.22346  24076528.831    24076530.8594   24076535.8234
      3727.954        2904.899
 96 10 21 15 37 59.9990000  0  8 17 28 26  6 23 22 21  3            -0.000101424
   -388928.075 9   -300952.41648  20513823.631    20513824.9024   20513829.1094
       385.490         300.382
  -1785199.678 9  -1379834.264 9  20785768.671    20785770.032    20785773.956
      1859.647        1449.076
    767638.998 9    594636.43648  22391033.891    22391035.6364   22391039.3574
     -1088.379        -848.088
   2079103.972 9   1610326.45848  21630650.955    21630652.4554   21630657.2204
     -2494.884       -1944.065
   -859045.471 9   -663298.99048  20638087.727    20638088.9984   20638093.4564
       845.404         658.756
    510727.090 9    395630.13847  23605665.298    23605666.1584   23605671.0974
      -738.373        -575.356
  -2449403.726 9  -1892424.38748  22667668.542    22667669.6334   22667674.6914
      2728.486        2126.093
  -3124077.477 9  -2411474.76846  24055258.956    24055260.7794   24055265.6964
      3724.571        2902.263
 96 10 21 15 38 29.9990000  0  8 17 28 26  6 23 22 21  3            -0.000107246
   -400401.486 9   -309892.74348  20511640.372    20511641.6014   20511645.8324
       379.913         296.036
  -1840764.965 9  -1423131.892 9  20775194.984    20775196.330    20775200.215
      1845.141        1437.772
    800544.595 9    620277.15948  22397295.631    22397297.3924   22397301.0984
     -1104.923        -860.979
   2154111.513 9   1668773.86148  21644924.426    21644925.9524   21644930.6924
     -2505.213       -1952.114
   -884230.034 9   -682923.32648  20633295.170    20633296.5144   20633300.9694
       834.009         649.877
    533060.419 9    413032.70646  23609915.170    23609916.0554   23609921.0074
      -750.160        -584.540
  -2531157.030 9  -1956128.24548  22652111.430    22652112.4914   22652117.5894
      2721.873        2120.940
  -3235750.030 9  -2498492.33746  24034008.197    24034010.2124   24034015.0714
      3720.655        2899.212
 96 10 21 15 38 59.9990000  0  8 17 28 26  6 23 22 21  3            -0.000113107
   -411727.198 9   -318717.97948  20509485.118    20509486.3894   20509490.6664
       374.483         291.805
  -1895906.619 9  -1466099.418 9  20764701.910    20764703.257    20764707.111
      1830.323        1426.226
    833931.358 9    646292.80748  22403648.910    22403650.6664   22403654.3904
     -1121.297        -873.738
   2229413.673 9   1727450.84348  21659254.001    21659255.5184   21659260.2384
     -2515.465       -1960.103
   -909088.828 9   -702293.81648  20628564.651    20628566.0364   20628570.5184
       822.721         641.081
    555739.916 9    430705.03446  23614231.043    23614231.8684   23614236.7644
      -762.423        -594.096
  -2612701.842 9  -2019669.64448  22636593.991    22636595.0184   22636600.1304
      2713.904        2114.730
  -3347313.193 9  -2585424.66346  24012778.742    24012780.4094   24012785.2164
      3716.145        2895.697
 96 10 21 15 39 29.9990000  0  8 17 28 26  6 23 22 21  3            -0.000118992
   -422886.284 9   -327413.38248  20507361.536    20507362.8604   20507367.2204
       369.457         287.889
  -1950594.553 9  -1508713.396 9  20754295.095    20754296.485    20754300.366
      1815.555        1414.718
    867807.291 9    672689.63048  22410095.217    22410097.0164   22410100.7094
     -1137.038        -886.004
   2305023.531 9   1786367.58648  21673642.050    21673643.6654   21673648.3584
     -2525.232       -1967.713
   -933604.889 9   -721397.23848  20623899.480    20623900.8194   20623905.2704
       811.713         632.504
    578792.174 9    448667.81246  23618617.847    23618618.5784   23618623.4194
      -774.239        -603.303
  -2694005.592 9  -2083023.20748  22621122.389    22621123.4504   22621128.5654
      2706.488        2108.952
  -3458723.742 9  -2672238.07346  23991578.105    23991579.7484   23991584.4974
      3711.397        2891.998
 96 10 21 15 39 59.9990000  0  8 17 28 26  6 23 22 21  3            -0.000124908
   -433876.650 9   -335977.31348  20505270.088    20505271.4994   20505275.8594
       363.823         283.498
  -2004822.297 9  -1550968.785 9  20743975.894    20743977.306    20743981.206
      1800.367        1402.883
    902168.826 9    699464.84048  22416634.006    22416635.7834   22416639.4964
     -1152.919        -898.378
   2380944.967 9   1845527.12048  21688089.518    21688091.0844   21688095.7894
     -2535.604       -1975.795
   -957772.885 9   -740229.44548  20619300.452    20619301.8114   20619306.2734
       800.354         623.652
    602207.806 9    466913.73846  23623073.514    23623074.4214   23623079.3364
      -786.095        -612.542
  -2775072.768 9  -2146192.42248  22605695.784    22605696.8964   22605701.9784
      2698.906        2103.044
  -3569987.814 9  -2758937.34346  23970405.449    23970406.9244   23970411.6674
      3706.932        2888.518
 96 10 21 15 40 29.9990000  0  8 17 28 26  6 23 22 21  3            -0.000130860
   -444690.470 9   -344403.67548  20503212.333    20503213.7534   20503218.0784
       357.190         278.330
  -2058601.723 9  -1592874.833 9  20733741.972    20733743.452    20733747.331
      1785.030        1390.932
    937008.931 9    726612.95648  22423263.942    22423265.7184   22423269.3674
     -1169.617        -911.390
   2457179.332 9   1904930.49548  21702596.454    21702598.0054   21702602.7264
     -2546.769       -1984.495
   -981612.552 9   -758805.80948  20614764.099    20614765.3104   20614769.7464
       789.087         614.873
    625971.720 9    485431.05346  23627595.683    23627596.5074   23627601.4434
      -798.019        -621.833
  -2855919.089 9  -2209189.55648  22590311.279    22590312.3714   22590317.4494
      2690.920        2096.821
  -3681120.589 9  -2845534.31446  23949257.595    23949259.0514   23949263.6854
      3702.055        2884.718
 96 10 21 15 40 59.9990000  0  8 17 28 26  6 23 22 21  3            -0.000136825
   -455295.749 9   -352667.53948  20501194.337    20501195.7004   20501199.9754
       350.081         272.790
  -2111908.345 9  -1634412.464 9  20723598.134    20723599.527    20723603.403
      1769.050        1378.481
    972355.430 9    754155.66048  22429990.223    22429991.9784   22429995.6294
     -1186.479        -924.529
   2533768.610 9   1964610.42448  21717170.814    21717172.4914   21717177.2014
     -2558.887       -1993.938
  -1005106.071 9   -777112.45048  20610293.347    20610294.6364   20610299.0934
       777.369         605.742
    650099.671 9    504232.03946  23632186.983    23632187.9384   23632192.8414
      -810.188        -631.315
  -2936516.266 9  -2271992.54448  22574974.099    22574975.2504   22574980.3434
      2682.844        2090.528
  -3792102.345 9  -2932013.60746  23928138.671    23928139.8874   23928144.4614
      3696.992        2880.773
 96 10 21 15 41 29.9990000  0  8 17 28 26  6 23 22 21  3            -0.000142803
   -465677.695 9   -360757.37248  20499218.859    20499220.1354   20499224.3924
       342.096         266.568
  -2164734.257 9  -1675575.519 9  20713545.718    20713547.121    20713550.999
      1752.749        1365.778
   1008217.648 9    782100.22648  22436814.583    22436816.3154   22436820.0014
     -1204.394        -938.489
   2610731.509 9   2024581.48548  21731816.520    21731818.0594   21731822.7784
     -2571.859       -2004.046
  -1028246.000 9   -795143.56248  20605889.942    20605891.2594   20605895.7274
       765.263         596.309
    674596.966 9    523320.82846  23636848.785    23636849.6634   23636854.5804
      -823.003        -641.301
  -3016889.203 9  -2334620.80148  22559679.590    22559680.7864   22559685.9094
      2675.477        2084.787
  -3902931.280 9  -3018373.80646  23907048.231    23907049.7774   23907054.3354
      3691.948        2876.843
 96 10 21 15 41 59.9990000  0  8 17 28 26  6 23 22 21  3            -0.000148787
   -475812.477 9   -368654.61048  20497290.327    20497291.5634   20497295.8204
       333.233         259.662
  -2217070.283 9  -1716356.840 9  20703586.573    20703587.953    20703591.798
      1736.017        1352.741
   1044619.061 9    810464.94448  22443741.520    22443743.3324   22443746.9934
     -1222.599        -952.675
   2688076.777 9   2084850.49448  21746534.864    21746536.4134   21746541.1414
     -2584.779       -2014.114
  -1051024.985 9   -812893.42048  20601555.191    20601556.5644   20601561.0694
       753.128         586.853
    699486.000 9    542714.86846  23641584.945    23641585.8394   23641590.8024
      -836.732        -651.999
  -3097044.373 9  -2397079.37148  22544426.558    22544427.8074   22544432.8864
      2667.907        2078.889
  -4013616.020 9  -3104621.65346  23885985.830    23885987.1584   23885991.7154
      3686.634        2872.702
 96 10 21 15 42 29.9990000  0  8 17 28 26  6 23 22 21  3            -0.000154774
   -485701.853 9   -376360.62748  20495408.424    20495409.6814   20495413.9814
       326.317         254.273
  -2268921.062 9  -1756760.048 9  20693719.761    20693721.093    20693724.946
      1720.710        1340.813
   1081542.448 9    839236.38948  22450767.981    22450769.6684   22450773.3074
     -1238.852        -965.339
   2765793.107 9   2145408.64448  21761323.846    21761325.3554   21761330.0784
     -2596.121       -2022.951
  -1073464.539 9   -830378.79148  20597285.138    20597286.4504   20597290.9654
       742.802         578.807
    724775.377 9    562420.85847  23646397.173    23646398.2054   23646403.2224
      -849.194        -661.710
  -3176991.202 9  -2459375.60148  22529213.172    22529214.4554   22529219.5294
      2661.846        2074.166
  -4124151.186 9  -3190752.94546  23864951.844    23864953.0514   23864957.6254
      3682.451        2869.442
 96 10 21 15 42 59.9990000  0  8 17 28 26  6 23 22 21  3            -0.000160767
   -495368.415 9   -383893.02648  20493568.903    20493570.2064   20493574.5474
       318.591         248.253
  -2320281.143 9  -1796780.893 9  20683946.208    20683947.611    20683951.439
      1703.889        1327.706
   1118976.968 9    868406.12048  22457891.577    22457893.2334   22457896.9254
     -1256.055        -978.744
   2843871.746 9   2206249.10948  21776181.713    21776183.2144   21776187.9654
     -2608.410       -2032.527
  -1095560.846 9   -847596.69648  20593080.239    20593081.6294   20593086.1654
       730.853         569.496
    750468.419 9    582441.40047  23651286.567    23651287.4724   23651292.4974
      -863.159        -672.591
  -3256738.740 9  -2521516.53948  22514037.785    22514039.0284   22514044.1054
      2655.250        2069.026
  -4234533.109 9  -3276764.82746  23843946.656    23843948.0514   23843952.6504
      3676.980        2865.179
 96 10 21 15 43 29.9990000  0  8 17 28 26  6 23 22 21  3            -0.000166771
   -504803.514 9   -391245.06348  20491773.466    20491774.7914   20491779.1454
       310.593         242.020
  -2371143.815 9  -1836414.143 9  20674267.424    20674268.799    20674272.602
      1687.050        1314.584
   1156924.401 9    897975.52548  22465112.688    22465114.4094   22465118.0994
     -1273.593        -992.410
   2922303.464 9   2267364.70248  21791106.616    21791108.2934   21791113.0314
     -2620.175       -2041.695
  -1117312.292 9   -864545.87848  20588941.158    20588942.4994   20588946.9914
       719.264         560.465
    776582.476 9    602789.99847  23656256.028    23656256.8344   23656261.8344
      -877.675        -683.903
  -3336297.332 9  -2583510.24448  22498898.353    22498899.5354   22498904.6114
      2648.547        2063.803
  -4344763.948 9  -3362658.97846  23822970.505    23822971.7414   23822976.4204
      3671.916        2861.233
 96 10 21 15 43 59.9990000  0  8 17 28 26  6 23 22 21  3            -0.000172777
   -513996.336 9   -398408.31048  20490024.234    20490025.5104   20490029.8354
       302.516         235.727
  -2421495.499 9  -1875649.225 9  20664685.815    20664687.205    20664691.001
      1669.921        1301.237
   1195391.637 9    927949.96648  22472432.833    22472434.4944   22472438.1294
     -1290.713       -1005.750
   3001083.064 9   2328751.37048  21806097.828    21806099.5754   21806104.3244
     -2631.716       -2050.688
  -1138711.423 9   -881220.52748  20584869.060    20584870.3824   20584874.8964
       707.389         551.212
    803134.407 9    623479.77746  23661308.632    23661309.5234   23661314.5774
      -892.153        -695.184
  -3415640.655 9  -2645336.20948  22483799.795    22483801.0154   22483806.0524
      2641.074        2057.980
  -4454837.884 9  -3448430.86046  23802024.123    23802025.4344   23802030.1194
      3666.336        2856.885
 96 10 21 15 44 29.9990000  0  8 17 28 26  6 23 22 21  3            -0.000178789
   -522953.799 9   -405388.16348  20488319.753    20488320.9874   20488325.2744
       294.993         229.865
  -2471334.601 9  -1914484.891 9  20655201.727    20655203.153    20655206.929
      1653.037        1288.081
   1234377.246 9    958328.33648  22479851.570    22479853.2254   22479856.8584
     -1308.145       -1019.334
   3080209.775 9   2390408.51848  21821155.201    21821156.9304   21821161.6864
     -2643.037       -2059.509
  -1159745.959 9   -897611.07448  20580866.343    20580867.6784   20580872.1924
       695.113         541.646
    830110.331 9    644499.95347  23666441.985    23666442.8934   23666448.0604
      -905.684        -705.728
  -3494757.185 9  -2706985.44748  22468744.408    22468745.6394   22468750.6884
      2633.578        2052.139
  -4564739.232 9  -3534068.26746  23781110.485    23781111.8974   23781116.5824
      3660.722        2852.511
 96 10 21 15 44 59.9990000  0  8 17 28 26  6 23 22 21  3            -0.000184806
   -531668.532 9   -412178.86748  20486661.418    20486662.5884   20486666.8804
       286.276         223.072
  -2520658.911 9  -1952919.423 9  20645815.644    20645817.067    20645820.815
      1635.612        1274.503
   1273906.523 9    989130.35148  22487373.602    22487375.4074   22487379.0924
     -1326.645       -1033.749
   3159680.186 9   2452333.48348  21836277.849    21836279.6364   21836284.4464
     -2654.680       -2068.582
  -1180396.520 9   -913702.42248  20576936.679    20576938.0174   20576942.5124
       682.027         531.450
    857498.375 9    665841.27347  23671653.776    23671654.7144   23671659.9134
      -919.781        -716.712
  -3573638.536 9  -2768451.42748  22453733.764    22453735.0044   22453740.1054
      2625.375        2045.747
  -4674463.864 9  -3619567.96846  23760230.486    23760232.0154   23760236.6994
      3654.632        2847.765
 96 10 21 15 45 29.9990000  0  8 17 28 26  6 23 22 21  3            -0.000190825
   -540124.961 9   -418768.30248  20485052.129    20485053.3564   20485057.6754
       277.741         216.422
  -2569471.994 9  -1990955.593 9  20636526.843    20636528.240    20636531.986
      1618.639        1261.277
   1313982.417 9   1020358.29248  22494999.906    22495001.6524   22495005.3404
     -1344.857       -1047.941
   3239491.535 9   2514524.11248  21851465.511    21851467.2584   21851472.1114
     -2666.015       -2077.414
  -1200666.620 9   -929497.30248  20573079.376    20573080.7614   20573085.2614
       669.341         521.564
    885294.271 9    687500.38747  23676943.156    23676944.0474   23676949.3064
      -933.035        -727.040
  -3652268.262 9  -2829721.33848  22438771.086    22438772.2554   22438777.4094
      2616.706        2038.992
  -4784014.052 9  -3704931.74046  23739383.727    23739385.2824   23739389.9784
      3648.676        2843.124
 96 10 21 15 45 59.9990000  0  8 17 28 26  6 23 22 21  3            -0.000196842
   -548320.914 9   -425154.77048  20483492.417    20483493.6884   20483498.0504
       269.177         209.748
  -2617762.222 9  -2028584.344 9  20627337.457    20627338.908    20627342.693
      1601.219        1247.703
   1354605.588 9   1052012.69448  22502730.122    22502732.0204   22502735.6824
     -1362.792       -1061.916
   3319655.594 9   2576989.57548  21866720.354    21866721.9934   21866726.8764
     -2677.818       -2086.611
  -1220539.033 9   -944982.29748  20569297.762    20569299.1494   20569303.6734
       656.067         511.221
    913484.417 9    709466.72047  23682307.548    23682308.4774   23682313.7794
      -945.703        -736.911
  -3730619.751 9  -2890774.43948  22423861.258    22423862.4644   22423867.5884
      2607.355        2031.705
  -4893362.684 9  -3790138.47146  23718575.250    23718576.9324   23718581.5964
      3641.650        2837.649
 96 10 21 15 46 29.9990000  0  8 17 28 26  6 23 22 21  3            -0.000202865
   -556272.849 9   -431351.09248  20481979.226    20481980.5234   20481984.9104
       261.066         203.428
  -2665539.129 9  -2065813.109 9  20618245.847    20618247.294    20618251.062
      1583.981        1234.271
   1395753.430 9   1084075.92848  22510560.455    22510562.2214   22510565.8904
     -1380.232       -1075.505
   3400166.482 9   2639725.31147  21882041.065    21882042.7304   21882047.6044
     -2689.481       -2095.699
  -1240029.755 9   -960169.87148  20565588.834    20565590.2034   20565594.7044
       643.609         501.514
    942034.358 9    731713.40947  23687740.651    23687741.3614   23687746.6984
      -957.537        -746.133
  -3808706.900 9  -2951621.56948  22409001.822    22409002.9774   22409008.0804
      2598.587        2024.873
  -5002500.504 9  -3875180.92846  23697807.112    23697808.7504   23697813.3264
      3634.429        2832.023
 96 10 21 15 46 59.9990000  0  8 17 28 26  6 23 22 21  3            -0.000208883
   -563970.436 9   -437349.21948  20480514.492    20480515.7484   20480520.1554
       252.810         196.995
  -2712784.728 9  -2102627.863 9  20609255.407    20609256.767    20609260.505
      1566.345        1220.529
   1437428.808 9   1116550.22948  22518491.018    22518492.8064   22518496.4984
     -1397.147       -1088.686
   3481036.270 9   2702740.69847  21897430.151    21897431.7584   21897436.6214
     -2701.087       -2104.743
  -1259146.481 9   -975066.01448  20561951.071    20561952.4284   20561956.8914
       631.615         492.168
    970953.032 9    754247.40947  23693243.559    23693244.4474   23693249.7754
      -969.731        -755.635
  -3886516.271 9  -3012252.23448  22394195.258    22394196.3544   22394201.4424
      2589.446        2017.750
  -5111416.242 9  -3960050.32646  23677081.364    23677082.8064   23677087.3444
      3627.313        2826.478
 96 10 21 15 47 29.9990000  0  8 17 28 26  6 23 22 21  3            -0.000214911
   -571428.936 9   -443161.04148  20479095.279    20479096.4814   20479100.8664
       244.183         190.272
  -2759505.914 9  -2139033.989 9  20600364.623    20600366.012    20600369.755
      1548.134        1206.338
   1479592.302 9   1149404.88048  22526514.411    22526516.2634   22526519.9984
     -1413.953       -1101.782
   3562250.433 9   2766024.43847  21912884.743    21912886.3214   21912891.1764
     -2713.349       -2114.298
  -1277914.482 9   -989690.42748  20558379.643    20558380.9674   20558385.4724
       619.384         482.637
   1000221.414 9    777053.92747  23698813.156    23698814.0344   23698819.3634
      -981.760        -765.008
  -3964059.184 9  -3072675.27648  22379439.237    22379440.4474   22379445.5274
      2579.895        2010.308
  -5220122.137 9  -4044756.21246  23656395.476    23656396.8214   23656401.2884
      3619.398        2820.310
 96 10 21 15 47 59.9990000  0  8 17 28 26  6 23 22 21  3            -0.000220942
   -578645.140 9   -448784.06248  20477722.041    20477723.2404   20477727.6584
       236.891         184.590
  -2805691.769 9  -2175022.972 9  20591575.766    20591577.137    20591580.892
      1530.980        1192.971
   1522241.148 9   1182637.72948  22534630.355    22534632.1154   22534635.8404
     -1429.310       -1113.748
   3643820.460 9   2829585.46947  21928406.999    21928408.5884   21928413.4904
     -2724.566       -2123.038
  -1296332.410 9  -1004042.04748  20554874.815    20554876.1164   20554880.6534
       608.529         474.178
   1029836.085 9    800130.27047  23704448.685    23704449.5494   23704454.9164
      -992.633        -773.480
  -4041326.006 9  -3132883.18148  22364735.868    22364737.0694   22364742.1534
      2571.396        2003.685
  -5328603.171 9  -4129286.87746  23635752.076    23635753.5304   23635758.1004
      3612.793        2815.163
 96 10 21 15 48 29.9990000  0  8 17 28 26  6 23 22 21  3            -0.000226980
   -585626.272 9   -454223.91448  20476393.520    20476394.7534   20476399.2054
       228.737         178.237
  -2851348.329 9  -2210599.518 9  20582887.684    20582889.010    20582892.760
      1512.930        1178.906
   1565371.662 9   1216245.91448  22542837.756    22542839.5934   22542843.3494
     -1446.026       -1126.774
   3725740.775 9   2893419.44747  21943995.921    21943997.5294   21944002.4074
     -2736.534       -2132.364
  -1314403.266 9  -1018123.23148  20551435.942    20551437.3474   20551441.8764
       596.370         464.704
   1059800.721 9    823479.31447  23710150.843    23710151.6814   23710157.0304
     -1004.925        -783.058
  -4118327.584 9  -3192884.40248  22350083.005    22350084.1474   22350089.2624
      2562.131        1996.466
  -5436868.839 9  -4213649.72646  23615149.661    23615151.2344   23615155.8484
      3605.290        2809.317
 96 10 21 15 48 59.9990000  0  8 17 28 26  6 23 22 21  3            -0.000233016
   -592360.629 9   -459471.47048  20475111.954    20475113.2384   20475117.6834
       219.951         171.390
  -2896463.300 9  -2245754.046 9  20574302.549    20574303.923    20574307.660
      1494.476        1164.527
   1609007.029 9   1250247.48548  22551141.401    22551143.1474   22551146.9184
     -1463.329       -1140.256
   3808013.291 9   2957527.86847  21959652.051    21959653.5064   21959658.3744
     -2748.549       -2141.726
  -1332105.291 9  -1031917.01248  20548067.423    20548068.7604   20548073.2734
       583.386         454.586
   1090142.898 9    847122.55547  23715924.756    23715925.6324   23715930.9514
     -1018.219        -793.417
  -4195045.829 9  -3252664.84248  22335484.043    22335485.1814   22335490.2894
      2552.227        1988.748
  -5544916.583 9  -4297842.75446  23594588.934    23594590.4034   23594595.1364
      3597.641        2803.357
 96 10 21 15 49 29.9990000  0  8 17 28 26  6 23 22 21  3            -0.000239041
   -598828.691 9   -464511.52548  20473881.114    20473882.4384   20473886.8204
       211.159         164.539
  -2941027.570 9  -2280479.458 9  20565822.255    20565823.646    20565827.349
      1476.367        1150.416
   1653171.200 9   1284661.10948  22559545.573    22559547.3414   22559551.0664
     -1481.240       -1154.213
   3890647.551 9   3021918.17847  21975376.802    21975378.3484   21975383.1474
     -2760.586       -2151.106
  -1349415.526 9  -1045405.50148  20544773.420    20544774.7384   20544779.2864
       570.505         444.549
   1120886.950 9    871078.94147  23721774.993    23721776.0344   23721781.2864
     -1031.562        -803.815
  -4271470.751 9  -3312216.72248  22320940.896    22320942.0014   22320947.1224
      2542.686        1981.314
  -5652736.220 9  -4381858.03947  23574071.273    23574072.9824   23574077.7184
      3590.278        2797.619
 96 10 21 15 49 59.9990000  0  8 17 28 26  6 23 22 21  3            -0.000245055
   -605042.051 9   -469353.10848  20472698.843    20472700.1134   20472704.4874
       202.597         157.868
  -2985057.270 9  -2314788.321 9  20557443.784    20557445.091    20557448.798
      1458.506        1136.498
   1697870.296 9   1319491.55048  22568051.565    22568053.2974   22568057.0934
     -1499.065       -1168.102
   3973627.516 9   3086577.85647  21991167.385    21991168.9954   21991173.7234
     -2771.723       -2159.784
  -1366349.485 9  -1058600.79248  20541550.969    20541552.3064   20541556.8934
       557.933         434.753
   1152027.809 9    895344.52647  23727700.814    23727701.9794   23727707.2444
     -1044.941        -814.240
  -4347628.143 9  -3371560.13248  22306448.534    22306449.7294   22306454.8484
      2534.225        1974.721
  -5760350.019 9  -4465712.93547  23553593.001    23553594.7994   23553599.4894
      3583.567        2792.390
 96 10 21 15 50 29.9990000  0  8 17 28 26  6 23 22 21  3            -0.000251050
   -610972.395 9   -473974.15948  20471570.395    20471571.5924   20471575.9834
       193.053         150.431
  -3028527.723 9  -2348661.405 9  20549171.585    20549172.939    20549176.647
      1439.708        1121.850
   1743135.845 9   1354763.40047  22576665.312    22576667.0414   22576670.8604
     -1518.330       -1183.114
   4056958.628 9   3151511.16547  22007024.784    22007026.4434   22007031.1934
     -2783.393       -2168.878
  -1382881.975 9  -1071483.24848  20538404.942    20538406.2734   20538410.8474
       544.590         424.356
   1183597.408 9    919944.19847  23733708.517    23733709.4784   23733714.8044
     -1059.449        -825.545
  -4423519.938 9  -3430696.58248  22292006.753    22292008.0024   22292013.1514
      2525.357        1967.811
  -5867739.079 9  -4549392.71147  23533157.518    23533159.3684   23533164.0684
      3575.890        2786.408
 96 10 21 15 50 59.9990000  0  8 17 28 26  6 23 22 21  3            -0.000257034
   -616632.855 9   -478384.91448  20470493.222    20470494.4014   20470498.8574
       184.344         143.645
  -3071453.513 9  -2382110.079 9  20541003.071    20541004.436    20541008.136
      1421.995        1108.048
   1788952.314 9   1390464.52847  22585383.974    22585385.6544   22585389.4784
     -1535.954       -1196.847
   4140618.243 9   3216700.44547  22022944.700    22022946.3904   22022951.1084
     -2794.004       -2177.146
  -1399046.692 9  -1084079.13048  20535328.937    20535330.2504   20535334.8094
       532.991         415.318
   1215576.706 9    944863.10547  23739794.063    23739794.9504   23739800.2814
     -1072.363        -835.608
  -4499163.044 9  -3489639.25548  22277612.280    22277613.5844   22277618.7454
      2517.564        1961.738
  -5974925.895 9  -4632914.88447  23512760.539    23512762.3434   23512767.0964
      3569.751        2781.624
 96 10 21 15 51 29.9990000  0  8 17 28 26  6 23 22 21  3            -0.000263009
   -622014.296 9   -482578.25248  20469469.110    20469470.3724   20469474.8044
       174.724         136.149
  -3113827.777 9  -2415128.990 9  20532939.531    20532940.892    20532944.565
      1403.133        1093.350
   1835308.641 9   1426586.32647  22594205.260    22594206.9334   22594210.8014
     -1554.112       -1210.996
   4224619.944 9   3282156.28447  22038929.773    22038931.3714   22038936.1344
     -2805.902       -2186.417
  -1414840.846 9  -1096386.26248  20532323.444    20532324.6984   20532329.2734
       520.188         405.341
   1247948.123 9    970087.57047  23745954.243    23745955.0774   23745960.3244
     -1085.326        -845.709
  -4574559.109 9  -3548389.42848  22263264.867    22263266.1814   22263271.3344
      2509.139        1955.173
  -6081904.774 9  -4716275.03946  23492403.290    23492404.9034   23492409.7004
      3562.240        2775.771
 96 10 21 15 51 59.9990000  0  8 17 28 26  6 23 22 21  3            -0.000268992
   -627127.849 9   -486562.84148  20468496.037    20468497.3204   20468501.7064
       166.035         129.378
  -3155647.073 9  -2447715.461 9  20524981.600    20524982.947    20524986.645
      1384.582        1078.895
   1882182.055 9   1463111.05847  22603125.010    22603126.6634   22603130.5604
     -1570.901       -1224.079
   4308962.364 9   3347877.62447  22054979.659    22054981.2334   22054985.9474
     -2817.158       -2195.188
  -1430261.359 9  -1108402.24548  20529388.955    20529390.2334   20529394.8384
       507.526         395.475
   1280679.607 9    995592.60847  23752182.845    23752183.6724   23752188.9494
     -1096.993        -854.800
  -4649717.366 9  -3606954.29548  22248962.681    22248964.0344   22248969.1634
      2501.108        1948.915
  -6188661.111 9  -4799461.76446  23472088.101    23472089.8914   23472094.6394
      3554.565        2769.791
 96 10 21 15 52 29.9990000  0  9 17  1 28 26  6 23 22 21  3         -0.000274986
   -631990.183 9   -490351.67748  20467570.768    20467572.0734   20467576.4174
       158.193         123.267
  -2068079.50918  -1583350.66355  25064641.314    25064642.6245   25064650.4825
      3988.295        3107.762
  -3196909.107 9  -2479867.700 9  20517129.712    20517131.052    20517134.744
      1366.334        1064.676
   1929556.604 9   1500026.27448  22612140.075    22612141.7624   22612145.6804
     -1587.256       -1236.823
   4393647.579 9   3413866.06247  22071094.724    22071096.3684   22071101.0574
     -2828.548       -2204.063
  -1445301.050 9  -1120121.48648  20526527.013    20526528.3014   20526532.8794
       495.282         385.934
   1313759.918 9   1021369.45947  23758477.898    23758478.6644   23758483.9544
     -1108.161        -863.502
  -4724625.188 9  -3665324.01248  22234708.261    22234709.5894   22234714.7004
      2492.810        1942.449
  -6295183.750 9  -4882466.42046  23451817.554    23451819.2934   23451823.9684
      3547.006        2763.901
 96 10 21 15 52 59.9990000  0  9 17  1 28 26  6 23 22 21  3         -0.000280991
   -636612.632 9   -493953.59648  20466691.208    20466692.4804   20466696.7634
       150.030         116.906
  -2187765.237 8  -1676612.22645  25041866.230    25041866.9854   25041875.4574
      3990.824        3109.733
  -3237620.740 9  -2511591.055 9  20509382.553    20509383.891    20509387.568
      1347.931        1050.336
   1977413.785 9   1537317.57547  22621246.967    22621248.6854   22621252.6134
     -1603.090       -1249.161
   4478683.135 9   3480127.50647  22087276.527    22087278.1394   22087282.8494
     -2840.344       -2213.255
  -1459971.371 9  -1131552.90648  20523735.334    20523736.6504   20523741.1904
       482.789         376.199
   1347170.214 9   1047403.43547  23764835.671    23764836.4804   23764841.7004
     -1119.112        -872.035
  -4799280.386 9  -3723496.88848  22220501.966    22220503.1964   22220508.2894
      2484.474        1935.954
  -6401476.838 9  -4965292.18646  23431590.820    23431592.3424   23431596.9894
      3539.270        2757.873
 96 10 21 15 53 29.9990000  0  9 17  1 28 26  6 23 22 21  3         -0.000287016
   -640995.574 9   -497368.87948  20465857.190    20465858.4384   20465862.7494
       141.791         110.486
  -2307529.092 8  -1769934.64745  25019076.212    25019076.5514   25019085.0974
      3993.145        3111.542
  -3277786.743 9  -2542889.245 9  20501739.235    20501740.575    20501744.244
      1329.486        1035.963
   2025739.147 9   1574973.68547  22630442.861    22630444.7004   22630448.6124
     -1618.975       -1261.539
   4564063.697 9   3546657.78547  22103523.950    22103525.5444   22103530.2984
     -2851.947       -2222.296
  -1474270.570 9  -1142695.13948  20521014.270    20521015.6094   20521020.1594
       470.311         366.476
   1380904.140 9   1073689.59547  23771254.901    23771255.8054   23771261.0604
     -1130.280        -880.738
  -4873699.977 9  -3781486.16948  22206340.329    22206341.5784   22206346.6924
      2476.336        1929.612
  -6507531.672 9  -5047932.29746  23411409.097    23411410.7594   23411415.4174
      3530.761        2751.242
 96 10 21 15 53 59.9990000  0  9 17  1 28 26  6 23 22 21  3         -0.000293032
   -645116.993 9   -500580.37748  20465072.855    20465074.1694   20465078.5004
       132.406         103.174
  -2427347.635 8  -1863299.64845  24996275.464    24996275.7914   24996284.2894
      3994.262        3112.412
  -3317383.346 9  -2573743.744 9  20494204.270    20494205.593    20494209.284
      1309.848        1020.661
   2074555.926 9   1613012.72647  22639732.331    22639734.1944   22639738.1384
     -1635.941       -1274.759
   4649801.277 9   3613466.24947  22119839.339    22119840.8834   22119845.6824
     -2864.309       -2231.929
  -1488191.791 9  -1153542.84848  20518365.132    20518366.4804   20518371.0404
       457.406         356.420
   1415003.481 9   1100260.49547  23777743.806    23777744.7244   23777750.0104
     -1143.618        -891.131
  -4947847.122 9  -3839263.15548  22192230.517    22192231.8264   22192236.9304
      2466.351        1921.832
  -6613319.672 9  -5130364.48646  23391278.163    23391279.9274   23391284.6194
      3521.389        2743.939
 96 10 21 15 54 29.9990000  0  9 17  1 28 26  6 23 22 21  3         -0.000299027
   -648962.318 9   -503576.74648  20464341.113    20464342.4354   20464346.7934
       123.594          96.307
  -2547210.035 8  -1956698.76945  24973465.766    24973466.7534   24973475.2474
      3996.307        3114.005
  -3356404.894 9  -2604150.150 9  20486778.700    20486780.043    20486783.726
      1291.376        1006.267
   2123872.765 9   1651441.41747  22649117.133    22649118.8844   22649122.8574
     -1652.019       -1287.288
   4735891.911 9   3680549.82147  22136221.888    22136223.3934   22136228.2084
     -2875.235       -2240.443
  -1501746.413 9  -1164104.88848  20515785.793    20515787.1154   20515791.6904
       446.045         347.567
   1449501.136 9   1127141.76447  23784308.502    23784309.4114   23784314.7294
     -1156.361        -901.061
  -5021712.404 9  -3896820.51048  22178174.402    22178175.7434   22178180.8314
      2457.876        1915.228
  -6718845.322 9  -5212592.23546  23371197.202    23371198.9814   23371203.7834
      3513.300        2737.636
 96 10 21 15 54 59.9990000  0  9 17  1 28 26  6 23 22 21  3         -0.000305008
   -652530.870 9   -506357.44548  20463662.043    20463663.4104   20463667.7364
       114.141          88.941
  -2667113.297 8  -2050129.71845  24950648.428    24950649.7624   24950658.3704
      3997.105        3114.627
  -3394864.226 9  -2634118.467 9  20479460.122    20479461.476    20479465.176
      1272.385         991.469
   2173673.966 9   1690247.53547  22658593.945    22658595.7534   22658599.7864
     -1668.153       -1299.859
   4822309.516 9   3747888.18747  22152666.770    22152668.2174   22152672.9684
     -2886.011       -2248.840
  -1514955.140 9  -1174397.40248  20513272.254    20513273.5724   20513278.1374
       434.367         338.468
   1484383.474 9   1154322.77947  23790946.393    23790947.3334   23790952.6424
     -1169.274        -911.123
  -5095312.047 9  -3954170.87148  22164168.931    22164170.1864   22164175.2954
      2448.525        1907.942
  -6824111.279 9  -5294617.64846  23351165.694    23351167.5354   23351172.3854
      3504.310        2730.631
 96 10 21 15 55 29.9990000  0  9 17  1 28 26  6 23 22 21  3         -0.000310980
   -655828.041 9   -508926.67648  20463034.664    20463036.0044   20463040.3194
       105.674          82.343
  -2787054.341 8  -2143590.12945  24927824.492    24927825.8024   24927834.1024
      3998.933        3116.052
  -3432761.649 9  -2663648.931 9  20472248.435    20472249.837    20472253.552
      1253.960         977.112
   2223951.794 9   1729425.04847  22668161.518    22668163.3314   22668167.3674
     -1683.909       -1312.137
   4909035.343 9   3815466.71547  22169170.126    22169171.6164   22169176.3824
     -2895.840       -2256.499
  -1527823.071 9  -1184424.36248  20510823.491    20510824.8474   20510829.4354
       423.363         329.893
   1519644.192 9   1181798.64047  23797656.362    23797657.2954   23797662.5504
     -1181.514        -920.660
  -5168631.893 9  -4011303.21448  22150216.695    22150217.8754   22150223.0104
      2439.306        1900.758
  -6929115.917 9  -5376439.42746  23331183.920    23331185.7864   23331190.6664
      3495.973        2724.135
 96 10 21 15 55 59.9990000  0  9 17  1 28 26  6 23 22 21  3         -0.000316937
   -658863.968 9   -511292.33948  20462456.969    20462458.3034   20462462.6124
        96.697          75.348
  -2907043.158 9  -2237087.79245  24904991.171    24904992.9254   24905000.9094
      4000.226        3117.059
  -3470093.245 9  -2692738.490 9  20465144.460    20465145.875    20465149.600
      1234.737         962.133
   2274723.707 9   1768987.56247  22677823.107    22677824.9084   22677828.9784
     -1701.024       -1325.473
   4996066.194 9   3883282.92547  22185731.600    22185733.0334   22185737.8274
     -2906.362       -2264.698
  -1540349.273 9  -1194185.03948  20508439.833    20508441.1724   20508445.7494
       411.608         320.733
   1555285.238 9   1209570.86847  23804438.735    23804439.5694   23804444.8444
     -1194.524        -930.798
  -5241665.407 9  -4068212.43748  22136318.826    22136320.0424   22136325.2154
      2429.822        1893.368
  -7033862.933 9  -5458060.45646  23311251.246    23311253.0364   23311257.9424
      3487.020        2717.158
 96 10 21 15 56 29.9990000  0  9 17  1 28 26  6 23 22 21  3         -0.000322870
   -661626.591 9   -513445.04448  20461931.290    20461932.5774   20461936.9134
        88.120          68.665
  -3027068.647 9  -2330614.01545  24882151.192    24882152.7824   24882160.4704
      4002.171        3118.575
  -3506845.791 9  -2721376.845 9  20458150.675    20458152.107    20458155.818
      1216.079         947.594
   2326018.647 9   1808957.62047  22687584.412    22687586.0274   22687590.0984
     -1717.857       -1338.590
   5083418.759 9   3951349.82647  22202354.128    22202355.6634   22202360.5254
     -2916.573       -2272.654
  -1552514.573 9  -1203664.49448  20506124.842    20506126.1994   20506130.7804
       399.957         311.655
   1591307.620 9   1237640.22747  23811293.601    23811294.4214   23811299.7054
     -1206.270        -939.951
  -5314426.546 9  -4124909.42248  22122472.778    22122474.0584   22122479.2514
      2421.361        1886.775
  -7138335.149 9  -5539467.36146  23291370.813    23291372.6874   23291377.5084
      3478.329        2710.386
 96 10 21 15 56 59.9990000  0  9 17  1 28 26  6 23 22 21  3         -0.000328789
   -664131.602 9   -515397.01048  20461454.664    20461455.9224   20461460.2664
        79.159          61.682
  -3147148.251 9  -2424182.40545  24859300.698    24859302.2344   24859309.9284
      4003.648        3119.726
  -3543030.728 9  -2749572.905 9  20451264.945    20451266.368    20451270.066
      1196.544         932.372
   2377819.573 9   1849321.96147  22697441.761    22697443.4094   22697447.4874
     -1735.040       -1351.979
   5171090.875 9   4019665.72347  22219037.505    22219039.1014   22219043.9844
     -2927.928       -2281.502
  -1564321.202 9  -1212864.46248  20503878.125    20503879.4714   20503884.0494
       387.466         301.922
   1627678.757 9   1265981.34747  23818214.849    23818215.6524   23818220.9724
     -1218.284        -949.312
  -5386916.625 9  -4181395.18948  22108678.428    22108679.6434   22108684.8804
      2411.653        1879.210
  -7242534.379 9  -5620661.56446  23271542.439    23271544.2094   23271548.9734
      3468.695        2702.879
 96 10 21 15 57 29.9990000  0  9 17  1 28 26  6 23 22 21  3         -0.000334702
   -666389.895 9   -517156.72748  20461024.983    20461026.2244   20461030.5944
        71.147          55.439
  -3267309.120 9  -2517814.09445  24836434.719    24836436.3294   24836443.9404
      4006.742        3122.137
  -3578656.320 9  -2777333.112 9  20444485.627    20444487.054    20444490.760
      1178.227         918.099
   2430114.524 9   1890071.25347  22707393.030    22707394.8294   22707398.9234
     -1751.587       -1364.873
   5259082.846 9   4088230.85947  22235781.657    22235783.4334   22235788.3554
     -2938.470       -2289.717
  -1575775.720 9  -1221790.06148  20501698.457    20501699.7764   20501704.3374
       376.010         292.995
   1664389.221 9   1294586.88447  23825200.451    23825201.4124   23825206.7564
     -1229.379        -957.958
  -5459152.202 9  -4237682.64848  22094932.466    22094933.6704   22094938.8664
      2403.895        1873.165
  -7346476.750 9  -5701655.60647  23251762.931    23251764.6334   23251769.3794
      3460.522        2696.511
 96 10 21 15 57 59.9990000  0  9 17  1 28 26  6 23 22 21  3         -0.000340603
   -668395.678 9   -518719.68348  20460643.298    20460644.5504   20460648.9354
        62.475          48.682
  -3387540.419 9  -2611500.66645  24813555.232    24813557.0284   24813564.5214
      4008.581        3123.570
  -3613720.473 9  -2804655.834 9  20437813.157    20437814.564    20437818.310
      1159.408         903.435
   2482911.589 9   1931211.81147  22717440.016    22717441.8004   22717445.8914
     -1768.048       -1377.700
   5347401.730 9   4157050.72847  22252588.290    22252589.9454   22252594.9614
     -2949.376       -2298.215
  -1586878.425 9  -1230441.52248  20499585.720    20499587.0164   20499591.5864
       364.292         283.864
   1701440.232 9   1323457.76547  23832251.054    23832251.9764   23832257.3264
     -1240.618        -966.715
  -5531151.692 9  -4293786.13848  22081231.416    22081232.6244   22081237.7994
      2395.955        1866.978
  -7450163.376 9  -5782450.35747  23232032.234    23232033.6964   23232038.4154
      3451.838        2689.744
 96 10 21 15 58 29.9990000  0  9 17  1 28 26  6 23 22 21  3         -0.000346497
   -670121.039 9   -520064.12848  20460314.949    20460316.2344   20460320.6194
        52.706          41.070
  -3507803.686 9  -2705212.15045  24790669.728    24790671.6084   24790679.0504
      4009.156        3124.018
  -3648207.473 9  -2831528.828 9  20431250.467    20431251.932    20431255.664
      1139.835         888.183
   2536196.556 9   1972732.54347  22727579.795    22727581.5994   22727585.6514
     -1784.064       -1390.180
   5436054.540 9   4226130.80447  22269458.331    22269460.0144   22269465.0994
     -2960.599       -2306.960
  -1597616.424 9  -1238808.79148  20497542.312    20497543.6704   20497548.1904
       351.674         274.032
   1738831.299 9   1352593.63147  23839366.286    23839367.2924   23839372.6194
     -1251.940        -975.538
  -5602885.838 9  -4349682.86848  22067580.948    22067582.0894   22067587.2534
      2386.231        1859.401
  -7553575.864 9  -5863031.51047  23212353.588    23212354.9424   23212359.6744
      3442.461        2682.437
 96 10 21 15 58 59.9990000  0  9 17  1 28 26  6 23 22 21  3         -0.000352398
   -671568.931 9   -521192.36748  20460039.441    20460040.7234   20460045.0964
        43.858          34.175
  -3628096.351 9  -2798946.57146  24767779.412    24767780.4994   24767787.9604
      4010.508        3125.071
  -3682122.437 9  -2857956.084 9  20424796.730    20424798.133    20424801.861
      1121.294         873.736
   2589947.149 9   2014616.10647  22737808.083    22737809.9954   22737814.0654
     -1799.249       -1402.012
   5525024.921 9   4295458.32347  22286388.881    22286390.5524   22286395.6684
     -2970.382       -2314.583
  -1607993.353 9  -1246894.71648  20495567.670    20495569.0244   20495573.5394
       340.357         265.213
   1776549.456 9   1381984.37646  23846543.744    23846544.8204   23846550.1354
     -1262.553        -983.808
  -5674338.770 9  -4405360.47548  22053983.822    22053985.0394   22053990.1814
      2377.612        1852.685
  -7656726.783 9  -5943408.84147  23192724.416    23192725.9604   23192730.6814
      3434.521        2676.250
 96 10 21 15 59 29.9990000  0  9 17  1 28 26  6 23 22 21  3         -0.000358301
   -672722.900 9   -522091.57048  20459819.789    20459821.1444   20459825.4994
        33.335          25.975
  -3748400.489 9  -2892689.95546  24744886.665    24744887.3394   24744894.6944
      4009.771        3124.497
  -3715460.040 9  -2883933.445 9  20418452.767    20418454.191    20418457.924
      1101.390         858.226
   2644183.936 9   2056878.51947  22748128.916    22748130.9144   22748135.0024
     -1816.463       -1415.426
   5614298.834 9   4365022.37647  22303377.138    22303378.8464   22303383.9824
     -2980.952       -2322.820
  -1618013.914 9  -1254702.94448  20493660.843    20493662.1654   20493666.7184
       327.924         255.525
   1814611.637 9   1411643.19446  23853786.689    23853787.8104   23853793.1774
     -1274.734        -993.299
  -5745524.550 9  -4460829.90448  22040437.575    22040438.8214   22040443.9634
      2368.283        1845.415
  -7759627.271 9  -6023591.02747  23173142.962    23173144.6554   23173149.3354
      3425.499        2669.220
 96 10 21 15 59 59.9990000  0  9 17  1 28 26  6 23 22 21  3         -0.000364200
   -673578.189 9   -522758.03548  20459657.086    20459658.4214   20459662.7904
        23.757          18.512
  -3868689.920 8  -2986421.88146  24721996.252    24721996.9104   24722004.2794
      4009.779        3124.503
  -3748215.159 9  -2909456.922 9  20412219.656    20412221.114    20412224.860
      1082.426         843.449
   2698922.098 9   2099531.60847  22758545.316    22758547.2254   22758551.3554
     -1832.577       -1427.982
   5703861.585 9   4434811.49247  22320420.352    22320422.1234   22320427.2794
     -2989.707       -2329.642
  -1627679.140 9  -1262234.29048  20491821.566    20491822.9344   20491827.4754
       316.600         246.701
   1853019.881 9   1441571.66446  23861095.686    23861096.6624   23861102.0294
     -1285.709       -1001.851
  -5816438.524 9  -4516087.53948  22026943.136    22026944.3734   22026949.4604
      2359.468        1838.546
  -7862264.907 9  -6103568.39647  23153611.677    23153613.3154   23153618.0154
      3416.992        2662.591
 96 10 21 16  0 29.9990000  0  9 17  1 28 26  6 23 22 21  3         -0.000370096
   -674133.910 9   -523191.07348  20459551.365    20459552.6774   20459557.0834
        13.897          10.829
  -3988975.149 8  -3080150.49246  24699106.602    24699107.2724   24699114.5954
      4009.764        3124.491
  -3780391.964 9  -2934529.765 9  20406096.588    20406098.061    20406101.808
      1063.126         828.410
   2754155.262 9   2142570.41347  22769055.970    22769057.7744   22769061.8654
     -1849.169       -1440.911
   5793696.507 9   4504812.69747  22337515.597    22337517.2004   22337522.3614
     -2998.856       -2336.771
  -1636997.368 9  -1269495.24948  20490048.410    20490049.7444   20490054.2514
       305.028         237.684
   1891769.184 9   1471765.89746  23868469.422    23868470.3894   23868475.8124
     -1297.133       -1010.753
  -5887079.397 9  -4571132.36848  22013500.637    22013501.8644   22013506.9464
      2350.473        1831.537
  -7964629.596 9  -6183333.07047  23134132.429    23134133.9714   23134138.7304
      3407.685        2655.339
 96 10 21 16  0 59.9990000  0  9 17  1 28 26  6 23 22 21  3         -0.000375981
   -674400.625 9   -523398.91248  20459500.640    20459501.9364   20459506.3764
         4.179           3.256
  -4109267.339 8  -3173884.52146  24676215.268    24676216.3794   24676223.5704
      4009.979        3124.659
  -3811990.777 9  -2959152.223 9  20400083.551    20400085.017    20400088.768
      1043.738         813.302
   2809896.641 9   2186005.23547  22779663.222    22779665.0224   22779669.1984
     -1866.378       -1454.321
   5883805.450 9   4575027.42247  22354662.811    22354664.4094   22354669.6144
     -3008.098       -2343.972
  -1645973.498 9  -1276489.64148  20488340.259    20488341.6324   20488346.1354
       293.763         228.906
   1930862.466 9   1502228.16346  23875908.636    23875909.5974   23875915.1164
     -1308.778       -1019.827
  -5957464.974 9  -4625978.26648  22000106.639    22000107.9434   22000113.0294
      2342.181        1825.076
  -8066711.508 9  -6262877.39947  23114706.768    23114708.4134   23114713.2054
      3398.031        2647.816
 96 10 21 16  1 29.9990000  0  9 17  1 28 26  6 23 22 21  3         -0.000381857
   -674398.380 9   -523397.17648  20459501.003    20459502.3444   20459506.8294
        -4.159          -3.241
  -4229576.610 8  -3267631.85745  24653321.751    24653322.1644   24653329.2854
      4010.781        3125.284
  -3843021.267 9  -2983331.833 9  20394178.658    20394180.125    20394183.892
      1024.996         798.698
   2866128.853 9   2229822.51347  22790363.952    22790365.7024   22790369.8994
     -1882.359       -1466.773
   5974171.092 9   4645442.16547  22371858.833    22371860.4564   22371865.6214
     -3016.417       -2350.455
  -1654628.846 9  -1283234.07148  20486693.230    20486694.5834   20486699.0834
       283.243         220.709
   1970282.860 9   1532945.32346  23883410.223    23883411.1094   23883416.5624
     -1318.964       -1027.764
  -6027614.400 9  -4680640.15048  21986757.627    21986758.9474   21986764.0224
      2334.323        1818.953
  -8168509.502 9  -6342200.49047  23095335.251    23095336.9294   23095341.7424
      3388.407        2640.317
 96 10 21 16  1 59.9990000  0  9 17  1 28 26  6 23 22 21  3         -0.000387719
   -674130.095 9   -523188.12848  20459552.083    20459553.4004   20459557.8574
       -13.231         -10.310
  -4349904.482 8  -3361393.63845  24630423.216    24630424.4524   24630431.4574
      4011.641        3125.954
  -3873466.621 9  -3007055.488 9  20388385.082    20388386.555    20388390.345
      1005.237         783.302
   2922853.086 9   2274023.18547  22801158.357    22801159.9974   22801164.1744
     -1898.503       -1479.353
   6064809.529 9   4716069.48347  22389106.772    22389108.3934   22389113.5464
     -3025.666       -2357.662
  -1662946.228 9  -1289715.15048  20485110.438    20485111.8714   20485116.3514
       271.736         211.742
   2010020.534 9   1563909.70546  23890972.067    23890973.0174   23890978.4124
     -1329.565       -1036.025
  -6097484.806 9  -4735084.62248  21973461.820    21973463.0904   21973468.1374
      2324.257        1811.109
  -8269994.367 9  -6421279.59747  23076023.196    23076025.0024   23076029.8524
      3377.887        2632.120
 96 10 21 16  2 29.9990000  0  9 17  1 28 26  6 23 22 21  3         -0.000393582
   -673606.271 9   -522779.96848  20459651.743    20459653.0764   20459657.5074
       -21.313         -16.608
  -4470274.320 8  -3455188.10245  24607517.968    24607518.8444   24607525.7634
      4013.338        3127.276
  -3903333.166 9  -3030328.130 9  20382701.715    20382703.174    20382706.932
       986.190         768.460
   2980033.552 9   2318579.36047  22812039.536    22812041.1494   22812045.3004
     -1913.153       -1490.769
   6155721.947 9   4786910.29347  22406406.985    22406408.5124   22406413.6084
     -3034.921       -2364.874
  -1670930.995 9  -1295937.05448  20483591.052    20483592.4234   20483596.8764
       260.801         203.222
   2050059.567 9   1595108.91046  23898591.194    23898592.2104   23898597.5984
     -1339.364       -1043.660
  -6167064.303 9  -4789302.41248  21960221.266    21960222.5334   21960227.5864
      2314.709        1803.669
  -8371185.029 9  -6500129.45347  23056767.378    23056769.0614   23056773.8784
      3368.604        2624.886
 96 10 21 16  2 59.9990000  0  9 17  1 28 26  6 23 22 21  3         -0.000399453
   -672838.247 9   -522181.51748  20459798.048    20459799.2404   20459803.6614
       -30.234         -23.559
  -4590688.790 8  -3549017.34045  24584603.596    24584604.6504   24584611.5494
      4013.980        3127.777
  -3932627.982 9  -3053155.263 9  20377127.082    20377128.569    20377132.338
       966.486         753.106
   3037656.587 9   2363480.39647  22823004.776    22823006.4544   22823010.6734
     -1928.497       -1502.725
   6246912.423 9   4857967.77147  22423759.985    22423761.5274   22423766.5974
     -3044.791       -2372.564
  -1678587.130 9  -1301902.87748  20482134.145    20482135.5024   20482139.9554
       249.306         194.264
   2090394.648 9   1626538.81146  23906266.839    23906267.6784   23906273.1534
     -1349.966       -1051.922
  -6236355.815 9  -4843295.79848  21947035.510    21947036.7674   21947041.8434
      2304.344        1795.593
  -8472110.552 9  -6578772.70947  23037561.885    23037563.5594   23037568.3714
      3359.414        2617.725
 96 10 21 16  3 29.9990000  0  9 17  1 28 26  6 23 22 21  3         -0.000405322
   -671796.506 9   -521369.78248  20459996.305    20459997.4974   20460001.9124
       -39.143         -30.501
  -4711120.549 8  -3642860.03545  24561686.205    24561687.1214   24561694.0444
      4014.963        3128.543
  -3961328.807 9  -3075519.550 9  20371665.546    20371666.990    20371670.783
       947.021         737.938
   3095733.816 9   2408735.35347  22834056.357    22834058.2424   22834062.4354
     -1943.223       -1514.200
   6338405.548 9   4929261.06947  22441170.689    22441172.1434   22441177.1824
     -3054.564       -2380.180
  -1685890.614 9  -1307593.90748  20480744.372    20480745.7074   20480750.1714
       237.705         185.225
   2131050.098 9   1658218.34746  23914003.263    23914004.1504   23914009.5994
     -1360.295       -1059.970
  -6305330.752 9  -4897042.49948  21933910.022    21933911.2714   21933916.3344
      2294.245        1787.723
  -8572755.372 9  -6657197.23747  23018409.949    23018411.4934   23018416.3074
      3350.449        2610.739
 96 10 21 16  3 59.9990000  0  9 17  1 28 26  6 23 22 21  3         -0.000411206
   -670493.688 9   -520354.61048  20460244.175    20460245.4064   20460249.8774
       -47.876         -37.306
  -4831593.378 8  -3736734.79146  24538760.796    24538761.8834   24538768.7304
      4016.275        3129.565
  -3989461.100 9  -3097440.828 9  20366312.098    20366313.596    20366317.403
       928.368         723.404
   3154235.340 9   2454320.92547  22845188.891    22845190.7524   22845194.9414
     -1956.827       -1524.800
   6430185.139 9   5000777.59447  22458635.817    22458637.2834   22458642.3004
     -3064.148       -2387.648
  -1692862.533 9  -1313026.58148  20479417.658    20479419.0154   20479423.4714
       226.988         176.874
   2172006.550 9   1690132.44346  23921796.969    23921797.8474   23921803.3334
     -1370.313       -1067.776
  -6374026.467 9  -4950571.63048  21920837.694    21920838.9334   21920843.9944
      2285.627        1781.008
  -8673151.793 9  -6735428.20347  22999305.215    22999306.7414   22999311.5494
      3342.531        2604.570
 96 10 21 16  4 29.9990000  0  9 17  1 28 26  6 23 22 21  3         -0.000417086
   -668895.181 9   -519109.03148  20460548.387    20460549.6134   20460554.0904
       -58.041         -45.227
  -4952057.935 8  -3830603.10045  24515837.176    24515838.1274   24515844.8784
      4015.283        3128.792
  -4017000.304 9  -3118899.958 9  20361071.526    20361073.053    20361076.881
       908.180         707.673
   3213176.154 9   2500248.78647  22856404.914    22856406.8654   22856411.0514
     -1972.110       -1536.709
   6522295.670 9   5072551.99247  22476163.940    22476165.3634   22476170.3854
     -3075.902       -2396.807
  -1699480.796 9  -1318183.67848  20478158.287    20478159.6004   20478164.0434
       214.809         167.384
   2213302.888 9   1722311.37846  23929655.400    23929656.2924   23929661.7694
     -1382.089       -1076.952
  -6442453.804 9  -5003891.62948  21907816.366    21907817.6164   21907822.7334
      2276.882        1774.194
  -8773272.068 9  -6813443.99147  22980253.124    22980254.5144   22980259.3324
      3332.590        2596.823
 96 10 21 16  4 59.9990000  0  9 17  1 28 26  6 23 22 21  3         -0.000422957
   -667015.509 9   -517644.36248  20460906.114    20460907.3214   20460911.8154
       -67.295         -52.438
  -5072509.956 8  -3924461.65746  24492915.791    24492916.6594   24492923.3754
      4014.864        3128.465
  -4043954.203 9  -3139903.005 9  20355942.368    20355943.891    20355947.738
       888.621         692.432
   3272564.640 9   2546525.48747  22867706.293    22867708.1264   22867712.3224
     -1987.163       -1548.439
   6614731.673 9   5144580.01647  22493753.726    22493755.3864   22493760.4314
     -3086.440       -2405.018
  -1705750.420 9  -1323069.10448  20476965.188    20476966.5374   20476970.9894
       203.076         158.241
   2254923.114 9   1754742.68446  23937575.628    23937576.4564   23937581.9014
     -1392.592       -1085.137
  -6510647.366 9  -5057029.46948  21894839.510    21894840.8214   21894845.9494
      2269.180        1768.192
  -8873101.659 9  -6891233.27047  22961256.109    22961257.5934   22961262.3964
      3322.363        2588.854
 96 10 21 16  5 29.9990000  0  9 17  1 28 26  6 23 22 21  3         -0.000428829
   -664862.711 9   -515966.86848  20461315.769    20461317.0214   20461321.4854
       -76.215         -59.388
  -5192949.839 8  -4018310.76246  24469996.675    24469997.4434   24470004.3654
      4014.521        3128.198
  -4070319.415 9  -3160447.339 9  20350925.269    20350926.763    20350930.627
       869.013         677.153
   3332404.304 9   2593153.76347  22879093.261    22879095.2534   22879099.4874
     -2002.211       -1560.164
   6707475.120 9   5216847.59547  22511402.112    22511403.8924   22511408.9534
     -3096.419       -2412.794
  -1711666.367 9  -1327678.94048  20475839.393    20475840.7484   20475845.1864
       191.318         149.079
   2296847.168 9   1787410.75046  23945553.279    23945554.4014   23945559.7734
     -1402.361       -1092.749
  -6578609.364 9  -5109986.86748  21881906.779    21881908.0674   21881913.2234
      2261.570        1762.262
  -8972614.193 9  -6968775.49147  22942319.380    22942321.0054   22942325.8114
      3311.831        2580.648
 96 10 21 16  5 59.9990000  0  9 17  1 28 26  6 23 22 21  3         -0.000434692
   -662441.659 9   -514080.34148  20461776.497    20461777.7464   20461782.2384
       -85.168         -66.365
  -5313373.396 9  -4112147.19346  24447080.629    24447081.5434   24447088.3814
      4013.607        3127.486
  -4096092.088 9  -3180529.953 9  20346020.938    20346022.420    20346026.264
       849.057         661.603
   3392700.930 9   2640138.10747  22890567.357    22890569.3144   22890573.6424
     -2017.662       -1572.204
   6800520.424 9   5289350.39347  22529107.944    22529109.8374   22529114.8834
     -3106.555       -2420.692
  -1717227.350 9  -1332012.17948  20474781.165    20474782.5224   20474787.0154
       179.300         139.714
   2339067.675 9   1820309.80246  23953587.569    23953588.7164   23953594.0854
     -1412.448       -1100.609
  -6646330.767 9  -5162756.78948  21869019.821    21869021.1344   21869026.2884
      2253.021        1755.601
  -9071801.992 9  -7046064.67947  22923444.539    22923446.2044   22923451.0054
      3300.519        2571.833
 96 10 21 16  6 29.9990000  0  9 17  1 28 26  6 23 22 21  3         -0.000440543
   -659766.476 9   -511995.79048  20462285.616    20462286.8074   20462291.3504
       -93.279         -72.685
  -5433785.571 9  -4205974.79945  24424166.691    24424167.8114   24424174.6584
      4013.927        3127.735
  -4121271.495 9  -3200150.278 9  20341229.437    20341230.932    20341234.812
       829.520         646.379
   3453465.369 9   2687486.99247  22902130.618    22902132.4544   22902136.7914
     -2033.377       -1584.450
   6893850.923 9   5362075.42147  22546868.244    22546870.0204   22546875.1214
     -3115.344       -2427.541
  -1722427.721 9  -1336064.41648  20473791.596    20473792.9324   20473797.4364
       167.386         130.431
   2381581.062 9   1853437.09346  23961677.743    23961678.8444   23961684.0634
     -1421.762       -1107.866
  -6713790.879 9  -5215323.10448  21856182.597    21856183.9214   21856189.0544
      2244.116        1748.662
  -9170648.323 9  -7123087.78247  22904634.619    22904636.3294   22904641.1254
      3289.230        2563.036
 96 10 21 16  6 59.9990000  0  9 17  1 28 26  6 23 22 21  3         -0.000446389
   -656834.944 9   -509711.49248  20462843.464    20462844.6794   20462849.2594
      -101.828         -79.346
  -5554204.595 9  -4299807.74545  24401251.029    24401252.7244   24401259.5564
      4014.489        3128.173
  -4145857.771 9  -3219308.428 9  20336550.860    20336552.338    20336556.227
       810.013         631.179
   3514705.196 9   2735206.29747  22913784.140    22913786.0194   22913790.3064
     -2048.616       -1596.324
   6987429.930 9   5434994.08547  22564675.697    22564677.5014   22564682.6824
     -3122.754       -2433.315
  -1727263.674 9  -1339832.69848  20472871.284    20472872.6684   20472877.1934
       155.714         121.336
   2424376.642 9   1886784.27246  23969821.483    23969822.5714   23969827.8484
     -1430.936       -1115.015
  -6780963.582 9  -5267665.46848  21843400.077    21843401.4124   21843406.5164
      2234.482        1741.155
  -9269151.966 9  -7199843.86847  22885889.995    22885891.7274   22885896.5904
      3278.285        2554.508
 96 10 21 16  7 29.9990000  0  9 17  1 28 26  6 23 22 21  3         -0.000452236
   -653629.562 9   -507213.80648  20463453.381    20463454.6584   20463459.2214
      -111.953         -87.236
  -5674630.352 9  -4393645.94645  24378334.544    24378336.2964   24378343.1694
      4013.814        3127.647
  -4169849.992 9  -3238003.677 9  20331985.319    20331986.773    20331990.680
       789.449         615.155
   3576401.142 9   2783281.03247  22925524.395    22925526.3844   22925530.6084
     -2064.307       -1608.551
   7081242.802 9   5508094.97947  22582527.690    22582529.5314   22582534.7444
     -3131.545       -2440.165
  -1731753.353 9  -1343331.15148  20472016.952    20472018.3084   20472022.8274
       143.617         111.909
   2467464.032 9   1920358.82446  23978020.740    23978021.8034   23978027.1174
     -1441.651       -1123.364
  -6847835.505 9  -5319773.45748  21830674.844    21830676.1214   21830681.2334
      2223.704        1732.756
  -9367330.714 9  -7276346.78247  22867207.209    22867208.8994   22867213.7524
      3266.935        2545.664
 96 10 21 16  7 59.9990000  0  9 17  1 28 26  6 23 22 21  3         -0.000458084
   -650139.917 9   -504494.61148  20464117.434    20464118.7504   20464123.2624
      -121.098         -94.362
  -5795067.731 9  -4487493.22045  24355415.975    24355417.7514   24355424.5244
      4014.867        3128.468
  -4193252.351 9  -3256239.293 9  20327531.970    20327533.455    20327537.375
       770.288         600.224
   3638533.381 9   2831695.73547  22937347.720    22937349.7624   22937353.9994
     -2078.227       -1619.398
   7175297.394 9   5581384.22747  22600425.618    22600427.5284   22600432.7444
     -3139.199       -2446.129
  -1735907.612 9  -1346568.23548  20471226.439    20471227.7754   20471232.3024
       133.056         103.680
   2510855.853 9   1954170.59446  23986277.956    23986279.0724   23986284.2944
     -1451.470       -1131.015
  -6914413.986 9  -5371652.78748  21818005.439    21818006.6554   21818011.7734
      2214.609        1725.669
  -9465190.300 9  -7352601.00147  22848585.286    22848586.8204   22848591.6524
      3256.685        2537.677
 96 10 21 16  8 29.9990000  0  9 17  1 28 26  6 23 22 21  3         -0.000463933
   -646352.709 9   -501543.54848  20464838.146    20464839.4094   20464843.9284
      -131.766        -102.675
  -5915515.833 9  -4581348.89045  24332495.801    24332497.0694   24332503.9174
      4014.711        3128.346
  -4216064.280 9  -3274014.833 9  20323191.034    20323192.518    20323196.439
       750.164         584.543
   3701092.549 9   2880443.10947  22949252.406    22949254.4354   22949258.6234
     -2092.602       -1630.599
   7269597.517 9   5654864.80847  22618370.342    22618372.2644   22618377.4964
     -3147.874       -2452.889
  -1739741.606 9  -1349555.76848  20470496.951    20470498.2214   20470502.7514
       122.344          95.333
   2554551.632 9   1988219.22746  23994592.983    23994594.0694   23994599.3524
     -1461.899       -1139.142
  -6980712.992 9  -5423314.34648  21805389.146    21805390.3804   21805395.4974
      2204.995        1718.178
  -9562735.150 9  -7428609.96347  22830022.946    22830024.6274   22830029.4934
      3245.932        2529.298
 96 10 21 16  8 59.9990000  0  9 17  1 28 26  6 23 22 21  3         -0.000469774
   -642237.755 9   -498337.10148  20465621.166    20465622.4624   20465627.0004
      -142.320        -110.899
  -6035950.090 9  -4675193.74545  24309578.142    24309579.2024   24309585.8214
      4014.239        3127.978
  -4238271.103 9  -3291318.862 9  20318965.222    20318966.727    20318970.619
       730.462         569.191
   3764067.788 9   2929514.69747  22961236.301    22961238.2334   22961242.4124
     -2105.570       -1640.704
   7364165.718 9   5728554.26647  22636366.043    22636367.9674   22636373.2614
     -3156.549       -2459.649
  -1743265.392 9  -1352301.57748  20469826.412    20469827.6924   20469832.2334
       112.823          87.914
   2598563.647 9   2022514.26446  24002968.266    24002969.3054   24002974.6354
     -1472.055       -1147.056
  -7046730.174 9  -5474756.30248  21792826.436    21792827.7104   21792832.8394
      2196.427        1711.502
  -9659955.773 9  -7504366.28647  22811522.423    22811524.1164   22811529.0594
      3235.627        2521.268
 96 10 21 16  9 29.9990000  0  9 17  1 28 26  6 23 22 21  3         -0.000475616
   -637817.479 9   -494892.74348  20466462.356    20466463.6324   20466468.1894
      -152.488        -118.822
  -6156370.814 9  -4769028.07245  24286663.081    24286663.8244   24286670.5404
      4013.637        3127.509
  -4259893.952 9  -3308167.845 9  20314850.476    20314852.043    20314855.933
       710.849         553.908
   3827428.312 9   2978886.51647  22973293.276    22973295.3834   22973299.5064
     -2118.743       -1650.969
   7458997.112 9   5802448.81047  22654412.121    22654413.7844   22654419.1364
     -3165.708       -2466.785
  -1746508.742 9  -1354828.86748  20469209.229    20469210.4824   20469215.0484
       103.083          80.324
   2642876.546 9   2057043.77146  24011400.807    24011401.8424   24011407.1554
     -1482.287       -1155.029
  -7112505.037 9  -5526009.43848  21780309.891    21780311.1764   21780316.2974
      2188.243        1705.124
  -9756873.508 9  -7579886.57947  22793079.549    22793081.2914   22793086.2804
      3225.228        2513.165
 96 10 21 16  9 59.9990000  0  9 17  1 28 26  6 23 22 21  3         -0.000481454
   -633099.195 9   -491216.16548  20467360.245    20467361.5434   20467366.0844
      -162.928        -126.957
  -6276780.360 9  -4862853.67946  24263749.562    24263750.4914   24263757.2844
      4012.568        3126.676
  -4280931.461 9  -3324560.715 9  20310847.266    20310848.772    20310852.655
       690.690         538.200
   3891192.468 9   3028572.85147  22985427.414    22985429.3374   22985433.4564
     -2133.180       -1662.218
   7554092.226 9   5876548.85547  22672508.161    22672509.7844   22672515.1904
     -3174.835       -2473.897
  -1749461.904 9  -1357130.03548  20468647.251    20468648.5094   20468653.1114
        92.771          72.289
   2687487.888 9   2091805.82046  24019890.049    24019891.1294   24019896.4574
     -1492.605       -1163.069
  -7178037.970 9  -5577074.05448  21767839.425    21767840.7054   21767845.7944
      2179.609        1698.397
  -9853481.591 9  -7655165.58547  22774695.768    22774697.4294   22774702.3914
      3214.405        2504.731
 96 10 21 16 10 29.9990000  0  9 17  1 28 26  6 23 22 21  3         -0.000487280
   -628075.336 9   -487301.48148  20468316.229    20468317.5564   20468322.1044
      -172.064        -134.076
  -6397147.234 9  -4956646.03746  24240844.125    24240845.3024   24240852.1704
      4011.903        3126.158
  -4301365.765 9  -3340483.560 9  20306958.776    20306960.254    20306964.146
       671.499         523.246
   3955386.411 9   3078594.08947  22997643.144    22997645.0464   22997649.1954
     -2146.489       -1672.589
   7649444.084 9   5950848.93847  22690653.055    22690654.6644   22690660.1024
     -3182.024       -2479.499
  -1752106.478 9  -1359190.75148  20468143.987    20468145.2754   20468149.8664
        83.200          64.831
   2732404.046 9   2126805.40446  24028437.357    24028438.4184   24028443.6244
     -1501.879       -1170.295
  -7243308.259 9  -5627934.01448  21755418.882    21755420.1854   21755425.2964
      2171.498        1692.076
  -9949770.119 9  -7730195.59447  22756372.722    22756374.3164   22756379.2834
      3204.552        2497.053
 96 10 21 16 10 59.9990000  0  9 17  1 28 26  6 23 22 21  3         -0.000493111
   -622770.563 9   -483167.90648  20469325.645    20469327.0284   20469331.5434
      -181.297        -141.270
  -6517484.341 9  -5050415.17046  24217944.681    24217945.8694   24217952.7474
      4010.863        3125.348
  -4321212.127 9  -3355948.268 9  20303182.137    20303183.624    20303187.522
       651.852         507.937
   4019993.069 9   3128936.91647  23009937.423    23009939.3034   23009943.4244
     -2160.440       -1683.460
   7745016.201 9   6025320.66947  22708839.855    22708841.4564   22708846.9414
     -3189.202       -2485.092
  -1754439.711 9  -1361008.86048  20467700.004    20467701.2834   20467705.8664
        72.504          56.497
   2777606.236 9   2162027.86246  24037039.134    24037040.1164   24037045.4254
     -1511.184       -1177.546
  -7308322.999 9  -5678594.84448  21743046.941    21743048.2764   21743053.4274
      2163.111        1685.541
 -10045743.945 9  -7804980.37947  22738109.577    22738111.1094   22738116.0534
      3194.081        2488.894
 96 10 21 16 11 29.9990000  0  9 17  1 28 26  6 23 22 21  3         -0.000498947
   -617190.287 9   -478819.64948  20470387.569    20470388.9594   20470393.4304
      -189.965        -148.025
  -6637789.030 9  -5144159.01646  24195051.916    24195052.7054   24195059.5854
      4010.254        3124.873
  -4340465.253 9  -3370950.712 9  20299518.437    20299519.893    20299523.787
       632.337         492.730
   4085037.231 9   3179620.66347  23022314.894    23022316.8584   23022320.8854
     -2175.015       -1694.817
   7840799.393 9   6099956.86647  22727066.711    22727068.4794   22727073.9614
     -3195.693       -2490.150
  -1756439.962 9  -1362567.50448  20467319.340    20467320.6714   20467325.2294
        61.552          47.963
   2823076.997 9   2197459.58446  24045691.912    24045692.9254   24045698.3764
     -1519.420       -1183.964
  -7373075.126 9  -5729051.04448  21730724.996    21730726.3444   21730731.4804
      2154.355        1678.718
 -10141403.376 9  -7879520.17947  22719906.152    22719907.6804   22719912.6344
      3183.764        2480.855
 96 10 21 16 11 59.9990000  0  9 17  1 28 26  6 23 22 21  3         -0.000504790
   -611339.051 9   -474260.25348  20471501.056    20471502.4444   20471506.9234
      -199.714        -155.621
  -6758054.821 9  -5237872.55646  24172165.775    24172166.9344   24172173.7884
      4007.867        3123.013
  -4359116.235 9  -3385483.953 9  20295969.261    20295970.733    20295974.639
       611.466         476.467
   4150527.893 9   3230652.32947  23034777.397    23034779.3254   23034783.3274
     -2190.486       -1706.872
   7936789.079 9   6174753.96547  22745333.047    22745334.8184   22745340.2634
     -3203.268       -2496.053
  -1758099.376 9  -1363860.56048  20467003.586    20467004.9034   20467009.4704
        49.463          38.543
   2868799.311 9   2233087.31646  24054392.496    24054393.5304   24054399.0674
     -1528.189       -1190.797
  -7437550.746 9  -5779291.78148  21718455.678    21718457.0384   21718462.1734
      2144.555        1671.082
 -10236730.977 9  -7953801.41847  22701765.816    22701767.3804   22701772.3994
      3171.697        2471.452
 96 10 21 16 12 29.9990000  0  9 17  1 28 26  6 23 22 21  3         -0.000510638
   -605217.988 9   -469490.60348  20472665.869    20472667.2524   20472671.7474
      -208.449        -162.428
  -6878269.685 8  -5331546.38546  24149289.438    24149290.7604   24149297.5654
      4006.479        3121.932
  -4377165.426 9  -3399548.267 9  20292534.669    20292536.126    20292539.997
       591.740         461.096
   4216448.372 9   3282018.91747  23047321.726    23047323.5634   23047327.6304
     -2204.301       -1717.637
   8032984.812 9   6249711.62247  22763638.695    22763640.3434   22763645.7824
     -3210.025       -2501.318
  -1759420.044 9  -1364889.65748  20466752.290    20466753.6064   20466758.1704
        38.536          30.028
   2914753.539 9   2268895.78046  24063137.397    24063138.4954   24063143.8784
     -1535.496       -1196.490
  -7501759.668 9  -5829324.69748  21706237.133    21706238.4814   21706243.6194
      2135.997        1664.413
 -10331707.273 9  -8027808.90547  22683692.330    22683693.9704   22683699.0044
      3159.824        2462.200
 96 10 21 16 12 59.9990000  0  9 17  1 28 26  6 23 22 21  3         -0.000516483
   -598827.599 9   -464511.09348  20473881.890    20473883.2874   20473887.7894
      -216.888        -169.004
  -6998435.575 8  -5425182.05346  24126422.554    24126423.9054   24126430.6414
      4005.108        3120.863
  -4394612.104 9  -3413143.092 9  20289214.645    20289216.148    20289220.027
       571.970         445.691
   4282799.123 9   3333720.77747  23059947.887    23059949.6664   23059953.8054
     -2218.479       -1728.685
   8129411.453 9   6324849.20347  22781987.923    22781989.8044   22781995.2004
     -3217.944       -2507.489
  -1760407.979 9  -1365659.48248  20466564.264    20466565.5884   20466570.1714
        28.026          21.838
   2960928.779 9   2304876.45246  24071924.361    24071925.3764   24071930.7344
     -1542.362       -1201.841
  -7565705.935 9  -5879152.95248  21694068.536    21694069.8814   21694075.0534
      2127.767        1658.000
 -10426313.177 9  -8101527.78447  22665689.292    22665690.9774   22665696.0334
      3147.966        2452.961
 96 10 21 16 13 29.9990000  0  9 17  1 28 26  6 23 22 21  3         -0.000522320
   -592173.365 9   -459325.98848  20475148.179    20475149.5674   20475154.0604
      -226.573        -176.550
  -7118547.651 9  -5518775.77446  24103565.710    24103567.1704   24103573.9894
      4002.532        3118.856
  -4411458.690 9  -3426270.312 9  20286008.868    20286010.336    20286014.252
       551.212         429.516
   4349581.811 9   3385759.21447  23072656.197    23072657.9724   23072662.1864
     -2233.411       -1740.320
   8226087.961 9   6400181.49147  22800384.836    22800386.7814   22800392.1804
     -3227.103       -2514.626
  -1761078.235 9  -1366181.76548  20466436.727    20466438.0594   20466442.6214
        16.876          13.150
   3007320.212 9   2341025.57546  24080752.363    24080753.4534   24080758.8034
     -1550.583       -1208.246
  -7629396.633 9  -5928782.06548  21681948.598    21681949.9424   21681955.1174
      2118.353        1650.665
 -10520556.110 9  -8174963.83647  22647755.347    22647757.1264   22647762.1374
      3134.957        2442.824
 96 10 21 16 13 59.9990000  0  9 17  1 28 26  6 23 22 21  3         -0.000528126
   -585229.951 9   -453915.54648  20476469.500    20476470.8664   20476475.3274
      -235.813        -183.750
  -7238588.842 8  -5612314.26346  24080722.632    24080724.0664   24080730.9004
      4001.032        3117.687
  -4427684.874 9  -3438914.106 9  20282921.122    20282922.608    20282926.521
       531.212         413.931
   4416799.566 9   3438136.66147  23085447.363    23085449.1244   23085453.3174
     -2247.013       -1750.919
   8323048.994 9   6475735.48647  22818836.093    22818837.8764   22818843.3534
     -3236.198       -2521.713
  -1761422.553 9  -1366450.06748  20466371.180    20466372.5444   20466377.1184
         6.694           5.216
   3053967.308 9   2377373.91346  24089629.110    24089630.1294   24089635.5044
     -1558.598       -1214.492
  -7692811.096 9  -5978195.92948  21669881.213    21669882.5794   21669887.7394
      2109.919        1644.093
 -10614404.213 9  -8248092.21847  22629896.787    22629898.4784   22629903.4104
      3122.303        2432.963
 96 10 21 16 14 29.9990000  0  9 17  1 28 26  6 23 22 21  3         -0.000533924
   -578009.780 9   -448289.44848  20477843.461    20477844.8114   20477849.2854
      -245.956        -191.654
  -7358601.055 9  -5705830.21946  24057885.152    24057886.5824   24057893.2544
      3999.231        3116.284
  -4443320.302 9  -3451097.569 9  20279945.785    20279947.292    20279951.220
       510.598         397.869
   4484411.979 9   3490821.63147  23098313.448    23098315.3294   23098319.5824
     -2261.010       -1761.826
   8420273.652 9   6551494.90447  22837337.641    22837339.1884   22837344.6764
     -3245.937       -2529.302
  -1761467.603 9  -1366485.17948  20466362.599    20466363.9974   20466368.5564
        -4.198          -3.271
   3100853.478 9   2413908.55846  24098551.193    24098552.2414   24098557.7434
     -1567.746       -1221.620
  -7755979.224 9  -6027417.84148  21657860.722    21657862.0834   21657867.2684
      2100.501        1636.754
 -10707885.731 9  -8320934.95947  22612107.792    22612109.5774   22612114.4774
      3109.336        2422.859
 96 10 21 16 14 59.9990000  0  9 17  1 28 26  6 23 22 21  3         -0.000539705
   -570500.934 9   -442438.41548  20479272.468    20479273.7394   20479278.2244
      -254.867        -198.598
  -7478574.728 9  -5799316.11146  24035054.822    24035056.3534   24035063.1074
      3998.749        3115.908
  -4458347.367 9  -3462806.984 9  20277086.260    20277087.741    20277091.700
       491.004         382.601
   4552435.647 9   3543827.05947  23111257.972    23111259.7594   23111264.0464
     -2274.018       -1771.962
   8517776.539 9   6627471.12647  22855891.605    22855893.4854   22855898.9144
     -3254.238       -2535.770
  -1761199.267 9  -1366276.09048  20466413.698    20466415.0894   20466419.6324
       -13.822         -10.770
   3148004.950 9   2450649.93646  24107524.008    24107524.9994   24107530.4034
     -1575.925       -1227.994
  -7818869.522 9  -6076423.26648  21645893.133    21645894.4824   21645899.6124
      2092.141        1630.240
 -10800999.368 9  -8393491.03847  22594388.880    22594390.6944   22594395.5014
      3098.212        2414.191
 96 10 21 16 15 29.9990000  0  9 17  1 28 26  6 23 22 21  3         -0.000545488
   -562707.537 9   -436365.64948  20480755.527    20480756.8044   20480761.2614
      -264.564        -206.154
  -7598531.225 9  -5892788.65646  24012227.791    24012229.3904   24012236.0464
      3998.451        3115.676
  -4472778.884 9  -3474052.337 9  20274340.011    20274341.515    20274345.506
       471.182         367.155
   4620847.505 9   3597134.96947  23124276.306    23124278.0764   23124282.4014
     -2286.640       -1781.797
   8615520.888 9   6703635.49547  22874492.007    22874493.6724   22874499.1094
     -3261.823       -2541.680
  -1760637.062 9  -1365838.01548  20466520.719    20466522.0664   20466526.6114
       -23.558         -18.357
   3195411.403 9   2487589.97746  24116545.325    24116546.1344   24116551.6774
     -1584.400       -1234.597
  -7881500.945 9  -6125226.96548  21633974.783    21633976.1104   21633981.2274
      2083.352        1623.391
 -10893773.468 9  -8465782.53947  22576734.666    22576736.4034   22576741.1594
      3086.658        2405.188
 96 10 21 16 15 59.9990000  0  9 17  1 28 26  6 23 22 21  3         -0.000551272
   -554617.541 9   -430061.76948  20482294.993    20482296.2894   20482300.7664
      -274.217        -213.675
  -7718472.421 9  -5986249.28146  23989403.957    23989405.3504   23989411.9074
      3998.098        3115.401
  -4486603.359 9  -3484824.669 9  20271709.306    20271710.798    20271714.808
       451.030         351.452
   4689646.027 9   3650744.17447  23137368.232    23137370.0354   23137374.3684
     -2299.362       -1791.711
   8713500.432 9   6779983.13347  22893136.730    22893138.6074   22893144.0534
     -3269.325       -2547.526
  -1759766.102 9  -1365159.34748  20466686.375    20466687.7814   20466692.3384
       -33.980         -26.478
   3243081.603 9   2524735.54246  24125616.696    24125617.4874   24125623.0554
     -1592.868       -1241.196
  -7943858.337 9  -6173817.13448  21622108.612    21622109.8994   21622115.0064
      2074.395        1616.412
 -10986184.961 9  -8537791.49747  22559149.315    22559151.0904   22559155.7624
      3074.780        2395.932
 96 10 21 16 16 29.9990000  0  9 17  1 28 26  6 23 22 21  3         -0.000557067
   -546233.691 9   -423528.91148  20483890.344    20483891.7074   20483896.1884
      -284.189        -221.446
  -7838389.461 9  -6079691.10346  23966584.655    23966585.8464   23966592.2964
      3996.596        3114.231
  -4499819.294 9  -3495122.816 9  20269194.403    20269195.893    20269199.917
       430.370         335.353
   4758832.929 9   3704656.01047  23150534.005    23150535.8884   23150540.2604
     -2312.785       -1802.170
   8811689.779 9   6856494.26147  22911821.633    22911823.5074   22911828.9014
     -3276.294       -2552.956
  -1758581.016 9  -1364235.91348  20466911.849    20466913.2954   20466917.8454
       -44.512         -34.685
   3291004.719 9   2562078.18646  24134736.120    24134736.9414   24134742.6274
     -1601.643       -1248.034
  -8005945.115 9  -6222196.43348  21610293.837    21610295.1764   21610300.2814
      2064.888        1609.004
 -11078246.426 9  -8609527.70347  22541630.787    22541632.3754   22541637.0514
      3063.008        2386.759
 96 10 21 16 16 59.9990000  0  9 17  1 28 26  6 23 22 21  3         -0.000562875
   -537572.926 9   -416780.27748  20485538.466    20485539.8064   20485544.2974
      -293.778        -228.918
  -7958276.465 9  -6173109.52646  23943770.630    23943772.1004   23943778.4914
      3995.336        3113.249
  -4512434.991 9  -3504953.243 9  20266793.743    20266795.220    20266799.233
       410.168         319.611
   4828399.827 9   3758863.95647  23163772.161    23163774.0444   23163778.4444
     -2325.551       -1812.118
   8910063.519 9   6933149.06647  22930541.830    22930543.4664   22930548.8054
     -3282.384       -2557.702
  -1757112.359 9  -1363091.51548  20467191.387    20467192.7804   20467197.3284
       -53.988         -42.069
   3339171.163 9   2599610.44246  24143902.026    24143902.7224   24143908.5444
     -1610.021       -1254.562
  -8067765.512 9  -6270368.16748  21598529.919    21598531.1594   21598536.2504
      2055.986        1602.067
 -11169974.812 9  -8681004.36547  22524175.437    22524177.0554   22524181.6844
      3051.645        2377.905
 96 10 21 16 17 29.9990000  0 10 17  1 28 26  6 23 22 21  3  9      -0.000568694
   -528623.775 9   -409806.92848  20487241.482    20487242.7844   20487247.2794
      -303.400        -236.416
  -8078123.932 9  -6266497.14946  23920964.770    23920965.9434   23920972.1694
      3993.717        3111.987
  -4524452.196 9  -3514317.316 9  20264506.964    20264508.443    20264512.447
       390.326         304.150
   4898343.033 9   3813365.12147  23177081.978    23177083.8214   23177088.2664
     -2337.984       -1821.806
   9008615.955 9   7009943.10947  22949295.677    22949297.4624   22949302.7774
     -3288.471       -2562.445
  -1755357.052 9  -1361723.75048  20467525.481    20467526.8254   20467531.3734
       -63.842         -49.747
   3387589.134 9   2637338.68746  24153115.663    24153116.4334   24153122.1714
     -1618.409       -1261.098
  -8129313.898 9  -6318327.94348  21586817.594    21586818.8974   21586823.9704
      2046.527        1594.696
 -11261364.588 9  -8752217.17047  22506784.579    22506786.1354   22506790.7844
      3040.277        2369.047
  -2814572.70818  -1992846.42255  24912695.028    24912696.6785   24912701.8905
      2498.828        1947.139
 96 10 21 16 17 59.9990000  0 10 17  1 28 26  6 23 22 21  3  9      -0.000574520
   -519387.208 9   -402609.61948  20488999.133    20489000.4534   20489004.9574
      -312.505        -243.510
  -8197908.427 9  -6359835.70446  23898170.694    23898171.6684   23898177.9504
      3991.679        3110.399
  -4535870.785 9  -3523214.933 9  20262334.054    20262335.558    20262339.574
       370.819         288.950
   4968665.878 9   3868162.10647  23190463.931    23190465.8954   23190470.3454
     -2350.347       -1831.439
   9107354.050 9   7086881.83647  22968085.033    22968086.7464   22968091.9994
     -3294.162       -2566.879
  -1753294.317 9  -1360116.43348  20467917.979    20467919.3424   20467923.9074
       -73.691         -57.422
   3436262.354 9   2675265.83146  24162377.790    24162378.7584   24162384.3924
     -1626.454       -1267.367
  -8190575.132 9  -6366063.96648  21575160.035    21575161.2784   21575166.3364
      2037.465        1587.635
 -11352408.669 9  -8823160.60647  22489459.308    22489460.9914   22489465.6584
      3029.340        2360.525
  -2889489.056 8  -2051222.72245  24898438.610    24898440.4094   24898445.8104
      2495.447        1944.504
 96 10 21 16 18 29.9990000  0 10 17  1 28 26  6 23 22 21  3  9      -0.000580341
   -509849.585 9   -395177.71648  20490814.093    20490815.4234   20490819.9074
      -323.147        -251.803
  -8317599.830 9  -6453101.72046  23875394.200    23875395.0424   23875401.3974
      3987.908        3107.461
  -4546683.002 9  -3531640.054 9  20260276.603    20260278.091    20260282.094
       350.102         272.807
   5039387.269 9   3923269.65547  23203921.665    23203923.7654   23203928.1954
     -2364.224       -1842.252
   9206278.174 9   7163965.51546  22986909.826    22986911.4194   22986916.6684
     -3300.935       -2572.157
  -1750923.050 9  -1358268.69748  20468369.248    20468370.5984   20468375.1364
       -84.297         -65.686
   3485203.497 9   2713401.73246  24171690.899    24171691.9514   24171697.5284
     -1636.141       -1274.915
  -8251537.506 9  -6413567.10148  21563559.283    21563560.5434   21563565.5724
      2026.850        1579.364
 -11443100.639 9  -8893829.66947  22472201.203    22472202.8754   22472207.5744
      3016.743        2350.709
  -2964284.708 8  -2109504.97745  24884205.344    24884207.1864   24884212.5274
      2491.064        1941.089
 96 10 21 16 18 59.9990000  0 10 17  1 28 26  6 23 22 21  3  9      -0.000586146
   -500005.508 9   -387507.01848  20492687.385    20492688.6924   20492693.1864
      -333.565        -259.921
  -8437192.806 9  -6546291.03846  23852636.210    23852637.2034   23852643.5484
      3984.521        3104.822
  -4556886.044 9  -3539590.493 9  20258335.031    20258336.544    20258340.528
       329.686         256.898
   5110508.441 9   3978688.71947  23217455.757    23217457.7044   23217462.1314
     -2377.538       -1852.627
   9305407.736 9   7241209.28146  23005773.710    23005775.1704   23005780.4324
     -3308.204       -2577.821
  -1748233.391 9  -1356172.87148  20468881.070    20468882.4354   20468886.9894
       -95.620         -74.509
   3534422.766 9   2751754.35746  24181056.909    24181058.0974   24181063.6574
     -1645.397       -1282.128
  -8312196.736 9  -6460834.02848  21552016.185    21552017.4544   21552022.4664
      2016.899        1571.610
 -11533419.160 9  -8964207.73047  22455014.079    22455015.8184   22455020.5414
      3004.037        2340.808
  -3038957.773 8  -2167691.70245  24869995.600    24869997.0564   24870002.7284
      2486.724        1937.707
 96 10 21 16 19 29.9990000  0 10 17  1 28 26  6 23 22 21  3  9      -0.000591947
   -489867.285 9   -379607.11248  20494616.617    20494617.9374   20494622.4484
      -343.143        -267.384
  -8556694.739 9  -6639409.39346  23829895.697    23829896.7174   23829903.1024
      3981.391        3102.383
  -4566488.217 9  -3547072.720 9  20256507.808    20256509.327    20256513.297
       309.595         241.243
   5182018.175 9   4034410.56947  23231063.726    23231065.6094   23231070.0304
     -2390.460       -1862.696
   9404750.150 9   7318618.89846  23024677.961    23024679.4194   23024684.7034
     -3315.524       -2583.525
  -1745205.623 9  -1353813.58148  20469457.221    20469458.6004   20469463.1854
      -106.935         -83.326
   3583896.101 9   2790304.97646  24190471.437    24190472.6234   24190478.1314
     -1653.461       -1288.411
  -8372577.738 9  -6507884.15648  21540526.084    21540527.3314   21540532.3174
      2007.833        1564.545
 -11623367.016 9  -9034296.95447  22437897.518    22437899.3104   22437904.0234
      2991.579        2331.101
  -3113508.579 8  -2225783.16845  24855809.327    24855810.3404   24855816.2994
      2482.356        1934.303
 96 10 21 16 19 59.9990000  0 10 17  1 28 26  6 23 22 21  3  9      -0.000597745
   -479448.460 9   -371488.55748  20496599.209    20496600.5764   20496605.1004
      -352.090        -274.356
  -8676104.687 9  -6732456.08846  23807172.716    23807173.6484   23807180.0734
      3978.721        3100.302
  -4575484.632 9  -3554082.926 9  20254795.853    20254797.387    20254801.362
       289.427         225.528
   5253907.663 9   4090428.32047  23244743.764    23244745.7664   23244750.1944
     -2402.821       -1872.328
   9504307.395 9   7396195.91646  23043623.149    23043624.5414   23043629.8544
     -3322.338       -2588.835
  -1741848.058 9  -1351197.30348  20470096.164    20470097.5564   20470102.1534
      -117.455         -91.523
   3633599.769 9   2829035.05846  24199929.735    24199930.8724   24199936.5314
     -1660.784       -1294.117
  -8432699.056 9  -6554731.93248  21529085.374    21529086.6574   21529091.5574
      1999.535        1558.079
 -11712932.153 9  -9104087.96147  22420853.810    22420855.6094   22420860.3474
      2978.822        2321.160
  -3187928.027 8  -2283772.27245  24841647.657    24841648.8404   24841654.7844
      2478.442        1931.254
 96 10 21 16 20 29.9990000  0 10 17  1 28 26  6 23 22 21  3  9      -0.000603545
   -468759.397 9   -363159.42548  20498633.268    20498634.6514   20498639.1814
      -361.239        -281.485
  -8795436.387 9  -6825441.80046  23784464.671    23784465.6144   23784472.0144
      3976.068        3098.235
  -4583871.027 9  -3560617.792 9  20253200.016    20253201.520    20253205.499
       268.870         209.509
   5326165.048 9   4146732.75147  23258494.012    23258495.9674   23258500.3364
     -2415.097       -1881.894
   9604076.743 9   7473938.21146  23062608.459    23062610.0904   23062615.3494
     -3329.945       -2594.762
  -1738175.799 9  -1348335.80948  20470795.015    20470796.3624   20470800.9684
      -128.173         -99.875
   3683519.233 9   2867933.28146  24209429.115    24209430.2504   24209435.9624
     -1667.784       -1299.572
  -8492575.498 9  -6601388.89248  21517691.233    21517692.5474   21517697.4624
      1991.494        1551.813
 -11802111.735 9  -9173578.52547  22403883.598    22403885.3034   22403890.0444
      2965.677        2310.917
  -3262232.706 8  -2341671.96545  24827507.633    24827508.9884   24827514.8704
      2474.431        1928.128
 96 10 21 16 20 59.9990000  0 10 17  1 28 26  6 23 22 21  3  9      -0.000609366
   -457822.972 9   -354637.55048  20500714.431    20500715.8064   20500720.3204
      -368.926        -287.475
  -8914713.916 9  -6918385.28646  23761766.803    23761767.9734   23761774.1284
      3974.780        3097.231
  -4591661.410 9  -3566688.238 9  20251717.610    20251719.086    20251723.055
       249.597         194.491
   5398762.519 9   4203302.17747  23272308.791    23272310.8604   23272315.1544
     -2425.724       -1890.175
   9704061.049 9   7551848.00246  23081635.104    23081636.5854   23081641.8224
     -3336.455       -2599.835
  -1734201.340 9  -1345238.83948  20471551.281    20471552.6744   20471557.2584
      -137.612        -107.230
   3733611.316 9   2906966.03846  24218961.198    24218962.5094   24218968.1984
     -1672.571       -1303.302
  -8552238.442 9  -6647879.49648  21506337.747    21506339.0554   21506343.9524
      1985.113        1546.841
 -11890923.190 9  -9242782.25347  22386983.339    22386985.0244   22386989.7654
      2954.272        2302.030
  -3336436.683 8  -2399493.17445  24813387.262    24813388.3424   24813394.1734
      2471.537        1925.873
 96 10 21 16 21 29.9990000  0 10 17  1 28 26  6 23 22 21  3  9      -0.000615206
   -446625.480 9   -345912.24048  20502845.279    20502846.6164   20502851.1504
      -377.489        -294.147
  -9033933.013 9  -7011283.23846  23739080.178    23739081.2304   23739087.3744
      3973.320        3096.093
  -4598850.862 9  -3572290.422 9  20250349.424    20250350.998    20250354.958
       229.848         179.102
   5471712.376 9   4260146.19747  23286190.625    23286192.8054   23286197.0564
     -2437.354       -1899.237
   9804250.760 9   7629917.85446  23100700.477    23100702.0134   23100707.4054
     -3342.556       -2604.589
  -1729938.271 9  -1341916.97148  20472362.481    20472363.8994   20472368.4944
      -146.336        -114.028
   3783862.855 9   2946123.02546  24228523.730    24228525.0584   24228530.8894
     -1677.629       -1307.243
  -8611687.099 9  -6694203.11748  21495025.045    21495026.3544   21495031.2174
      1978.111        1541.385
 -11979368.168 9  -9311700.41247  22370152.688    22370154.4754   22370159.2754
      2942.201        2292.624
  -3410528.041 8  -2457226.68345  24799287.833    24799289.0064   24799295.1214
      2468.125        1923.214
 96 10 21 16 21 59.9990000  0 10 17  1 28 26  6 23 22 21  3  9      -0.000621063
   -435163.816 9   -336981.08448  20505026.343    20505027.7184   20505032.2784
      -386.488        -301.159
  -9153107.117 9  -7104146.11346  23716402.355    23716403.1684   23716409.2364
      3972.021        3095.081
  -4605447.443 9  -3577430.632 9  20249094.151    20249095.717    20249099.669
       210.211         163.801
   5545011.613 9   4317262.46447  23300139.220    23300141.2214   23300145.4404
     -2449.168       -1908.443
   9904614.830 9   7708123.56646  23119799.170    23119800.6984   23119806.0904
     -3348.068       -2608.884
  -1725416.513 9  -1338393.53148  20473222.964    20473224.3584   20473228.9754
      -154.874        -120.681
   3834277.083 9   2985406.78946  24238117.187    24238118.6194   24238124.4524
     -1683.141       -1311.538
  -8670915.399 9  -6740355.03348  21483754.287    21483755.5934   21483760.4624
      1970.680        1535.595
 -12067450.612 9  -9380336.07647  22353391.149    22353392.9534   22353397.7474
      2930.178        2283.256
  -3484512.541 8  -2514876.91945  24785208.906    24785210.3154   24785216.2374
      2464.396        1920.309
 96 10 21 16 22 29.9990000  0 10 17  1 28 26  6 23 22 21  3  9      -0.000626914
   -423390.690 9   -327807.22948  20507266.692    20507268.0774   20507272.6344
      -397.708        -309.902
  -9272221.044 9  -7196962.07546  23693735.490    23693736.5634   23693742.6764
      3969.567        3093.169
  -4611431.422 9  -3582093.488 9  20247955.490    20247957.030    20247960.975
       189.470         147.639
   5618703.458 9   4374684.65347  23314162.345    23314164.3254   23314168.5054
     -2462.799       -1919.064
  10005172.197 9   7786479.90446  23138934.610    23138936.1534   23138941.6124
     -3355.062       -2614.334
  -1720613.528 9  -1334650.94948  20474136.955    20474138.3504   20474142.9794
      -164.594        -128.255
   3884891.799 9   3024846.78246  24247749.037    24247750.3114   24247756.1574
     -1690.470       -1317.249
  -8729894.457 9  -6786312.74148  21472530.966    21472532.2494   21472537.1104
      1961.837        1528.704
 -12155145.273 9  -9448669.57847  22336703.507    22336705.2054   22336710.0344
      2916.749        2272.791
  -3558359.894 8  -2572420.28445  24771155.989    24771157.6404   24771163.7484
      2459.439        1916.446
 96 10 21 16 22 59.9990000  0 10 17  1 28 26  6 23 22 21  3  9      -0.000632757
   -411292.892 9   -318380.38248  20509568.825    20509570.2124   20509574.7854
      -408.771        -318.523
  -9391281.643 9  -7289736.49846  23671078.631    23671080.0654   23671086.1484
      3967.737        3091.743
  -4616814.802 9  -3586288.343 9  20246931.106    20246932.633    20246936.554
       169.476         132.059
   5692782.277 9   4432408.38947  23328259.053    23328261.0714   23328265.2014
     -2475.660       -1929.086
  10105907.936 9   7864975.22646  23158103.745    23158105.5474   23158111.1264
     -3360.484       -2618.559
  -1715543.620 9  -1330700.37948  20475101.691    20475103.1334   20475107.7604
      -173.345        -135.074
   3935712.146 9   3064447.00146  24257419.735    24257421.0964   24257427.0154
     -1697.613       -1322.815
  -8788617.799 9  -6832071.19148  21461356.358    21461357.5984   21461362.4414
      1953.056        1521.862
 -12242452.108 9  -9516700.86647  22320089.534    22320091.2814   22320096.0954
      2903.639        2262.576
  -3632077.941 8  -2629862.89445  24757127.729    24757129.5674   24757135.6624
      2455.075        1913.045
 96 10 21 16 23 29.9990000  0 10 17  1 28 26  6 23 22 21  3  9      -0.000638586
   -398862.583 9   -308694.43848  20511934.341    20511935.6544   20511940.1934
      -419.559        -326.929
  -9510283.912 9  -7382465.46746  23648433.225    23648434.6044   23648440.8244
      3965.770        3090.210
  -4621597.491 9  -3590015.127 9  20246020.966    20246022.524    20246026.453
       149.529         116.516
   5767242.064 9   4490428.98247  23342428.351    23342430.3454   23342434.4054
     -2488.019       -1938.716
  10206798.391 9   7943591.11146  23177302.568    23177304.3484   23177309.9884
     -3365.516       -2622.480
  -1710212.907 9  -1326546.58348  20476116.172    20476117.5834   20476122.1684
      -181.985        -141.806
   3986758.172 9   3104223.08146  24267133.624    24267134.8864   24267140.8514
     -1705.294       -1328.801
  -8847072.495 9  -6877620.30248  21450232.768    21450234.0374   21450238.8934
      1943.969        1514.781
 -12329349.775 9  -9584413.33047  22303553.496    22303555.2254   22303560.0534
      2889.633        2251.662
  -3705667.629 8  -2687205.49645  24743124.038    24743126.0234   24743131.8784
      2450.984        1909.858
 96 10 21 16 23 59.9990000  0 10 17  1 28 26  6 23 22 21  3  9      -0.000644402
   -386111.366 9   -298758.43248  20514360.771    20514362.1414   20514366.6774
      -430.511        -335.463
  -9629218.627 9  -7475141.78646  23625800.768    23625802.0654   23625808.3104
      3963.121        3088.146
  -4625775.901 9  -3593271.041 9  20245225.836    20245227.399    20245231.352
       129.020         100.535
   5842067.518 9   4548734.51746  23356667.226    23356669.1284   23356673.2494
     -2500.294       -1948.281
  10307853.455 9   8022335.25346  23196533.116    23196534.5404   23196540.3374
     -3371.647       -2627.257
  -1704605.049 9  -1322176.82648  20477183.334    20477184.7234   20477189.3114
      -191.944        -149.567
   4038037.680 9   3144181.07246  24276891.926    24276893.0694   24276899.1024
     -1713.144       -1334.917
  -8905241.743 9  -6922946.98748  21439163.559    21439164.8114   21439169.6734
      1934.064        1507.063
 -12415824.559 9  -9651796.27047  22287097.813    22287099.6274   22287104.4574
      2875.227        2240.437
  -3779129.700 8  -2744448.63845  24729144.762    24729146.6454   24729152.5264
      2446.525        1906.383
 96 10 21 16 24 29.9990000  0 10 17  1 28 26  6 23 22 21  3  9      -0.000650209
   -373048.041 9   -288579.22748  20516846.683    20516848.0334   20516852.5824
      -440.308        -343.097
  -9748075.182 9  -7567757.21446  23603183.153    23603184.4354   23603190.6224
      3960.401        3086.027
  -4629347.859 9  -3596054.400 9  20244546.164    20244547.699    20244551.647
       109.055          84.978
   5917241.923 9   4607311.95046  23370972.494    23370974.3374   23370978.5084
     -2511.282       -1956.843
  10409088.930 9   8101219.96846  23215797.526    23215799.0624   23215804.8944
     -3377.470       -2631.795
  -1698708.944 9  -1317582.46848  20478305.342    20478306.7144   20478311.2994
      -201.171        -156.757
   4089532.712 8   3184307.02946  24286691.169    24286692.2364   24286698.3054
     -1719.769       -1340.080
  -8963124.716 9  -6968050.59948  21428148.745    21428150.0344   21428154.9024
      1924.655        1499.731
 -12501871.217 9  -9718845.60647  22270723.726    22270725.4594   22270730.3094
      2861.312        2229.594
  -3852474.284 9  -2801600.23445  24715187.629    24715189.6454   24715195.6264
      2443.012        1903.646
 96 10 21 16 24 59.9990000  0 10 17  1 28 26  6 23 22 21  3  9      -0.000656017
   -359693.665 9   -278173.23148  20519387.976    20519389.3284   20519393.8584
      -449.365        -350.155
  -9866830.422 9  -7660293.69546  23580584.835    23580586.0434   23580592.2054
      3957.157        3083.499
  -4632312.301 9  -3598364.368 9  20243982.040    20243983.600    20243987.532
        89.142          69.461
   5992746.319 9   4666146.51546  23385340.559    23385342.3574   23385346.5614
     -2521.735       -1964.988
  10510500.930 9   8180242.24546  23235095.458    23235097.2044   23235103.0084
     -3382.822       -2635.965
  -1692527.448 9  -1312765.72248  20479481.663    20479483.0134   20479487.6104
      -210.378        -163.931
   4141220.352 8   3224583.06146  24296527.033    24296527.9934   24296534.0624
     -1725.461       -1344.515
  -9020719.016 9  -7012929.27048  21417188.929    21417190.1954   21417195.0964
      1915.678        1492.736
 -12587496.124 9  -9785566.30747  22254429.846    22254431.6074   22254436.4384
      2847.749        2219.025
  -3925705.025 9  -2858663.11245  24701252.270    24701254.2904   24701260.2064
      2439.519        1900.924
 96 10 21 16 25 29.9990000  0 10 17  1 28 26  6 23 22 21  3  9      -0.000661830
   -346057.080 9   -267547.33048  20521982.895    20521984.3014   20521988.8274
      -458.944        -357.619
  -9985466.684 9  -7752737.48046  23558009.084    23558010.3244   23558016.5014
      3952.811        3080.112
  -4634665.137 9  -3600197.758 9  20243534.317    20243535.875    20243539.820
        68.550          53.416
   6068583.314 9   4725240.26946  23399771.754    23399773.6204   23399777.8584
     -2533.217       -1973.935
  10612097.229 9   8259408.12446  23254428.652    23254430.4164   23254436.2024
     -3389.389       -2641.082
  -1686048.999 9  -1307717.58748  20480714.454    20480715.8404   20480720.4274
      -220.606        -171.901
   4193085.342 8   3264997.27746  24306396.554    24306397.4904   24306403.6794
     -1731.394       -1349.138
  -9078031.927 9  -7057588.67548  21406282.610    21406283.8954   21406288.8184
      1906.080        1485.257
 -12672710.980 9  -9851967.49147  22238214.082    22238215.7984   22238220.5504
      2834.260        2208.514
  -3998810.908 9  -2915628.69145  24687341.011    24687342.6904   24687348.4944
      2434.895        1897.321
 96 10 21 16 25 59.9990000  0 10 17  1 28 26  6 23 22 21  3  9      -0.000667655
   -332139.350 9   -256702.36148  20524631.371    20524632.7644   20524637.3144
      -468.858        -365.344
 -10103985.741 9  -7845089.95746  23535455.703    23535456.8284   23535463.0034
      3948.555        3076.796
  -4636413.637 9  -3601560.238 9  20243201.558    20243203.136    20243207.105
        48.178          37.541
   6144755.137 9   4784594.91146  23414266.948    23414268.6214   23414272.8584
     -2544.635       -1982.832
  10713875.241 9   8338715.59446  23273796.460    23273798.2024   23273803.9654
     -3395.650       -2645.961
  -1679280.926 9  -1302443.76648  20482002.373    20482003.7564   20482008.3624
      -230.361        -179.502
   4245109.770 8   3305535.74046  24316296.528    24316297.4394   24316303.5804
     -1736.780       -1353.335
  -9135072.112 9  -7102035.56648  21395428.147    21395429.4784   21395434.4574
      1896.982        1478.168
 -12757549.734 9  -9918075.60947  22222069.760    22222071.5394   22222076.2234
      2821.705        2198.731
  -4071781.650 9  -2972488.95046  24673455.081    24673456.8014   24673462.5224
      2429.923        1893.446
 96 10 21 16 26 29.9990000  0 10 17  1 28 26  6 23 22 21  3  9      -0.000673491
   -317927.284 9   -245628.03648  20527335.876    20527337.2434   20527341.7854
      -477.732        -372.259
 -10222382.444 9  -7937347.08846  23512925.504    23512926.6624   23512932.8204
      3945.408        3074.344
  -4637559.697 9  -3602453.291 9  20242983.463    20242985.059    20242989.041
        29.105          22.679
   6221260.322 9   4844209.31046  23428825.533    23428827.0364   23428831.3334
     -2554.986       -1990.898
  10815824.963 9   8418156.87846  23293197.214    23293198.6844   23293204.4274
     -3400.010       -2649.358
  -1672237.650 9  -1296955.50948  20483342.683    20483344.0794   20483348.6724
      -238.291        -185.681
   4297292.043 9   3346197.19146  24326226.618    24326227.5364   24326233.6674
     -1741.295       -1356.853
  -9191855.591 9  -7146282.42748  21384622.668    21384623.9244   21384628.9514
      1889.509        1472.345
 -12842015.602 9  -9983893.16947  22205996.375    22205998.1624   22206002.8994
      2810.266        2189.818
  -4144600.066 9  -3029230.53146  24659598.221    24659599.8954   24659605.6604
      2425.466        1889.974
 96 10 21 16 26 59.9990000  0 10 17  1 28 26  6 23 22 21  3  9      -0.000679341
   -303418.460 9   -234322.47048  20530096.877    20530098.1894   20530102.7404
      -488.639        -380.758
 -10340663.644 9  -8029514.23147  23490417.443    23490418.4884   23490424.6114
      3940.933        3070.857
  -4638108.012 9  -3602880.558 9  20242879.166    20242880.746    20242884.722
         8.313           6.478
   6298102.923 9   4904086.63546  23443448.012    23443449.6554   23443454.0134
     -2567.000       -2000.260
  10917918.583 9   8497710.27546  23312624.742    23312626.5544   23312632.2164
     -3405.316       -2653.493
  -1664925.427 9  -1291257.68148  20484734.122    20484735.5264   20484740.1404
      -248.318        -193.495
   4349644.174 9   3386991.00146  24336188.989    24336189.9174   24336196.0374
     -1748.037       -1362.107
  -9248393.424 9  -7190337.87148  21373863.895    21373865.1334   21373870.1564
      1880.555        1465.368
 -12926111.441 9 -10049422.38847  22189993.459    22189995.2354   22189999.9844
      2796.919        2179.417
  -4217252.946 9  -3085843.10346  24645772.992    24645774.4394   24645780.2394
      2418.889        1884.849
 96 10 21 16 27 29.9990000  0 10 17  1 28 26  6 23 22 21  3  9      -0.000685194
   -288597.451 9   -222773.64648  20532917.222    20532918.5354   20532923.0844
      -499.093        -388.904
 -10458831.444 9  -8121593.02046  23467930.584    23467931.9024   23467937.9664
      3937.176        3067.929
  -4638048.522 9  -3602834.217 9  20242890.540    20242892.071    20242896.062
       -12.037          -9.379
   6375289.183 9   4964231.74647  23458135.965    23458137.6434   23458142.0544
     -2578.512       -2009.230
  11020154.001 9   8577374.18146  23332079.866    23332081.3974   23332087.0314
     -3410.033       -2657.169
  -1657329.689 9  -1285338.93148  20486179.570    20486180.9444   20486185.5654
      -257.721        -200.822
   4402192.421 9   3427937.62646  24346188.873    24346189.5784   24346195.6874
     -1754.914       -1367.465
  -9304676.930 9  -7234195.13948  21363153.485    21363154.7254   21363159.7894
      1871.953        1458.665
 -13009815.635 9 -10114646.43347  22174065.093    22174066.8634   22174071.6634
      2783.371        2168.861
  -4289718.370 9  -3142309.62646  24631983.397    24631984.6384   24631990.5984
      2412.410        1879.800
 96 10 21 16 27 59.9990000  0 10 17  1 28 26  6 23 22 21  3  9      -0.000691044
   -273473.044 9   -210988.40848  20535795.339    20535796.6424   20535801.1874
      -509.135        -396.728
 -10576891.100 9  -8213587.53247  23445464.568    23445465.8614   23445471.9424
      3933.382        3064.973
  -4637380.458 9  -3602313.660 9  20243017.621    20243019.224    20243023.212
       -32.544         -25.359
   6452812.268 9   5024639.30547  23472888.081    23472889.7784   23472894.2684
     -2589.529       -2017.815
  11122523.984 9   8657142.92646  23351560.087    23351561.8284   23351567.4134
     -3414.694       -2660.801
  -1649458.457 9  -1279205.51148  20487677.438    20487678.7974   20487683.4284
      -267.160        -208.177
   4454947.248 9   3469045.22546  24356227.817    24356228.5764   24356234.6464
     -1762.102       -1373.066
  -9360705.275 9  -7277853.58748  21352491.638    21352492.8684   21352497.9564
      1863.344        1451.956
 -13093093.220 9 -10179538.05847  22158217.947    22158219.6834   22158224.5034
      2768.285        2157.105
  -4361997.411 9  -3198630.91946  24618229.076    24618230.3764   24618236.2524
      2406.307        1875.044
 96 10 21 16 28 29.9990000  0 10 17  1 28 26  6 23 22 21  3  9      -0.000696883
   -258056.897 9   -198975.84048  20538728.921    20538730.2474   20538734.8084
      -518.664        -404.154
 -10694832.030 9  -8305489.52747  23423021.285    23423022.4994   23423028.4954
      3929.313        3061.802
  -4636094.843 9  -3601311.896 9  20243262.313    20243263.883    20243267.863
       -53.255         -41.497
   6530665.715 9   5085304.30347  23487703.123    23487704.8354   23487709.3994
     -2600.899       -2026.675
  11225028.923 9   8737016.84846  23371066.271    23371067.9374   23371073.4764
     -3419.111       -2664.242
  -1641298.569 9  -1272847.16648  20489230.201    20489231.6264   20489236.2234
      -276.907        -215.772
   4507921.356 9   3510323.69346  24366308.307    24366309.3214   24366315.2964
     -1769.466       -1378.805
  -9416478.727 9  -7321313.41248  21341878.270    21341879.5124   21341884.6424
      1854.639        1445.173
 -13175907.084 9 -10244068.33247  22142459.012    22142460.7364   22142465.5414
      2752.609        2144.890
  -4434095.576 9  -3254811.28146  24604508.838    24604510.4654   24604516.3224
      2400.231        1870.310
 96 10 21 16 28 59.9990000  0 10 17  1 28 26  6 23 22 21  3  9      -0.000702715
   -242372.492 9   -186754.24448  20541713.560    20541714.9134   20541719.4504
      -527.613        -411.127
 -10812664.391 9  -8397306.93147  23400598.292    23400599.7404   23400605.7204
      3925.569        3058.885
  -4634197.063 9  -3599833.122 9  20243623.445    20243625.033    20243629.024
       -73.767         -57.481
   6608851.622 9   5146228.35647  23502581.358    23502583.1974   23502587.7404
     -2611.923       -2035.265
  11327659.129 9   8816988.36446  23390596.337    23390597.8744   23390603.4434
     -3423.629       -2667.763
  -1632856.241 9  -1266268.73448  20490836.796    20490838.1644   20490842.7774
      -286.379        -223.152
   4561096.924 9   3551759.15046  24376427.460    24376428.4444   24376434.2764
     -1775.959       -1383.864
  -9471994.552 9  -7364572.49148  21331313.914    21331315.1824   21331320.3204
      1845.854        1438.328
 -13258260.830 9 -10308240.07647  22126787.563    22126789.3324   22126794.1424
      2737.237        2132.912
  -4506027.867 8  -3310862.38946  24590820.504    24590822.2104   24590828.0664
      2394.755        1866.043
 96 10 21 16 29 29.9990000  0 10 17  1 28 26  6 23 22 21  3  9      -0.000708539
   -226422.622 9   -174325.78648  20544748.762    20544750.0994   20544754.6214
      -536.219        -417.833
 -10930378.979 9  -8489032.54747  23378197.898    23378199.3504   23378205.3644
      3921.537        3055.743
  -4631689.581 9  -3597879.258 9  20244100.611    20244102.202    20244106.214
       -93.809         -73.098
   6687361.815 9   5207405.09447  23517521.572    23517523.2174   23517527.8154
     -2622.634       -2043.611
  11430433.496 9   8897072.21746  23410153.482    23410155.1824   23410160.8144
     -3428.517       -2671.572
  -1624139.352 9  -1259476.36348  20492495.525    20492496.9324   20492501.5564
      -295.247        -230.062
   4614456.503 9   3593337.98946  24386581.506    24386582.4904   24386588.2454
     -1781.703       -1388.340
  -9527248.145 9  -7407627.23948  21320799.410    21320800.7864   21320805.9164
      1837.339        1431.693
 -13340160.321 9 -10372057.85947  22111202.629    22111204.3934   22111209.1874
      2722.446        2121.386
  -4577802.876 9  -3366790.94546  24577162.034    24577163.9464   24577169.6624
      2389.901        1862.261
 96 10 21 16 29 59.9990000  0 10 17  1 28 26  6 23 22 21  3  9      -0.000714355
   -210201.774 9   -161686.17748  20547835.409    20547836.8344   20547841.3624
      -545.186        -424.820
 -11047964.265 9  -8580657.40347  23355822.099    23355823.5474   23355829.5474
      3917.505        3052.601
  -4628570.678 9  -3595448.959 9  20244694.171    20244695.729    20244699.729
      -114.047         -88.868
   6766204.753 9   5268841.12747  23532524.912    23532526.6054   23532531.2224
     -2633.446       -2052.036
  11533370.501 9   8977282.80746  23429741.772    23429743.4364   23429749.1384
     -3433.832       -2675.713
  -1615142.604 9  -1252465.91748  20494207.547    20494208.9714   20494213.5854
      -304.457        -237.239
   4667993.952 9   3635055.43746  24396769.385    24396770.3574   24396776.0824
     -1787.286       -1392.690
  -9582235.592 9  -7450474.59448  21310335.708    21310337.0564   21310342.1914
      1828.610        1424.891
 -13421617.751 9 -10435531.17248  22095701.884    22095703.5674   22095708.3494
      2708.237        2110.314
  -4649429.089 8  -3422603.56046  24563531.663    24563533.7324   24563539.5694
      2385.108        1858.526
 96 10 21 16 30 29.9990000  0 10 17  1 28 26  6 23 22 21  3  9      -0.000720177
   -193708.288 9   -148834.12848  20550974.094    20550975.4584   20550979.9984
      -554.518        -432.092
 -11165436.275 9  -8672193.99346  23333467.957    23333469.3164   23333475.3294
      3914.029        3049.893
  -4624852.837 9  -3592551.959 9  20245401.630    20245403.225    20245407.213
      -133.764        -104.232
   6845371.429 9   5330529.42347  23547589.735    23547591.5774   23547596.2464
     -2644.382       -2060.557
  11636461.477 9   9057613.37246  23449359.383    23449360.9934   23449366.6934
     -3438.938       -2679.692
  -1605876.620 9  -1245245.68048  20495970.855    20495972.2144   20495976.8514
      -313.083        -243.961
   4721681.876 9   3676890.12246  24406985.899    24406986.8114   24406992.6824
     -1791.798       -1396.206
  -9636968.629 9  -7493123.71548  21299920.347    21299921.7134   21299926.8334
      1820.137        1418.289
 -13502670.009 9 -10498688.77748  22080278.076    22080279.8184   22080284.6284
      2695.329        2100.256
  -4720907.774 9  -3478301.22646  24549930.069    24549931.7764   24549937.6234
      2380.063        1854.595
 96 10 21 16 30 59.9990000  0 10 17  1 28 26  6 23 22 21  3  9      -0.000726001
   -176911.103 9   -135745.42648  20554170.553    20554171.8674   20554176.3834
      -565.118        -440.352
 -11282791.061 9  -8763639.25846  23311136.055    23311137.3984   23311143.3984
      3909.895        3046.671
  -4620532.760 9  -3589185.684 9  20246223.766    20246225.321    20246229.309
      -153.963        -119.971
   6924877.276 9   5392481.99847  23562719.225    23562721.0604   23562725.7724
     -2655.528       -2069.243
  11739725.989 9   9138079.16346  23469009.794    23469011.4984   23469017.1884
     -3445.003       -2684.418
  -1596339.549 9  -1237814.20348  20497785.658    20497787.0344   20497791.6934
      -322.461        -251.268
   4775519.683 9   3718841.59246  24417230.854    24417231.8654   24417237.7154
     -1797.128       -1400.359
  -9691434.632 9  -7535564.75148  21289555.811    21289557.1844   21289562.2834
      1811.362        1411.451
 -13583329.178 9 -10561540.08248  22064929.110    22064930.9014   22064935.6954
      2682.264        2090.076
  -4792220.043 8  -3533869.20146  24536359.738    24536361.5804   24536367.2654
      2374.266        1850.077
 96 10 21 16 31 29.9990000  0 10 17  1 28 26  6 23 22 21  3  9      -0.000731818
   -159775.122 9   -122392.72948  20557431.372    20557432.7594   20557437.2804
      -577.110        -449.696
 -11400006.682 9  -8854976.07346  23288830.581    23288831.9484   23288837.9584
      3904.684        3042.611
  -4615595.999 9  -3585338.876 9  20247163.190    20247164.766    20247168.763
      -175.081        -136.427
   7004727.468 9   5454702.90847  23577914.285    23577916.0644   23577920.7834
     -2667.688       -2078.718
  11843177.684 9   9218690.80346  23488695.961    23488697.6904   23488703.4314
     -3451.653       -2689.600
  -1586509.975 9  -1230154.80048  20499656.154    20499657.5654   20499662.1974
      -332.672        -259.225
   4829529.609 9   3760927.20946  24427508.456    24427509.5474   24427515.4254
     -1803.391       -1405.240
  -9745632.300 9  -7577796.69148  21279242.350    21279243.7124   21279248.8134
      1802.021        1404.172
 -13663579.978 9 -10624073.16848  22049657.949    22049659.6904   22049664.4914
      2667.777        2078.787
  -4863339.722 8  -3589287.11446  24522826.027    24522827.8704   24522833.6474
      2367.012        1844.425
 96 10 21 16 31 59.9990000  0 10 17  1 28 26  6 23 22 21  3  9      -0.000737628
   -142305.089 9   -108779.73148  20560755.854    20560757.2044   20560761.7054
      -587.728        -457.970
 -11517099.663 9  -8946217.33546  23266548.523    23266549.7994   23266555.8444
      3901.235        3039.923
  -4610044.870 9  -3581013.339 9  20248219.586    20248221.112    20248225.114
      -195.196        -152.101
   7084911.594 9   5517184.01047  23593172.638    23593174.5544   23593179.2764
     -2678.036       -2086.781
  11946800.903 9   9299436.08746  23508415.044    23508416.5164   23508422.3294
     -3456.625       -2693.474
  -1576409.860 9  -1222284.58848  20501578.278    20501579.5934   20501584.1834
      -340.792        -265.552
   4883706.527 9   3803142.94946  24437818.288    24437819.1254   24437824.9514
     -1808.468       -1409.196
  -9799573.147 9  -7619828.51448  21268977.771    21268979.1164   21268984.2324
      1793.818        1397.780
 -13743407.714 9 -10686276.59948  22034467.234    22034468.9624   22034473.7554
      2653.650        2067.779
  -4934249.435 9  -3644541.38246  24509332.385    24509334.1574   24509339.9554
      2359.955        1838.926
 96 10 21 16 32 29.9990000  0 10 17  1 28 26  6 23 22 21  3  9      -0.000743438
   -124510.349 9    -94913.71348  20564142.129    20564143.4584   20564147.9474
      -598.798        -466.596
 -11634079.881 9  -9037370.73846  23244288.220    23244289.1354   23244295.1224
      3897.098        3036.700
  -4603889.517 9  -3576216.980 9  20249390.891    20249392.446    20249396.460
      -215.409        -167.851
   7165408.446 9   5579908.80447  23608490.788    23608492.6014   23608497.3874
     -2688.718       -2095.105
  12050570.226 9   9380295.23446  23528161.569    23528163.1464   23528168.9714
     -3461.434       -2697.221
  -1566069.481 9  -1214227.15648  20503545.991    20503547.3124   20503551.8914
      -348.780        -271.777
   4938030.647 9   3845473.37445  24448155.678    24448156.7954   24448162.4764
     -1813.486       -1413.106
  -9853265.989 9  -7661667.09448  21258760.356    21258761.6994   21258766.8044
      1785.420        1391.236
 -13822802.033 9 -10748142.30448  22019358.908    22019360.7094   22019365.4984
      2639.125        2056.461
  -5004936.974 8  -3699622.53946  24495880.887    24495882.7694   24495888.5054
      2352.468        1833.092
 96 10 21 16 32 59.9990000  0 10 17  1 28 26  6 23 22 21  3  9      -0.000749251
   -106410.231 9    -80809.74248  20567586.483    20567587.8344   20567592.3204
      -608.802        -474.391
 -11750943.082 9  -9128432.96246  23222049.787    23222050.7364   23222056.6564
      3892.824        3033.369
  -4597142.363 9  -3570959.482 9  20250674.858    20250676.402    20250680.422
      -235.477        -183.489
   7246205.348 9   5642867.38147  23623865.910    23623867.7864   23623872.6084
     -2698.587       -2102.795
  12154458.674 9   9461247.20946  23547930.943    23547932.4954   23547938.3574
     -3465.375       -2700.292
  -1555508.953 9  -1205998.18448  20505555.601    20505556.9154   20505561.5094
      -356.342        -277.669
   4992492.405 9   3887911.05445  24458519.628    24458520.5894   24458526.1794
     -1818.210       -1416.787
  -9906723.524 9  -7703322.31548  21248587.705    21248589.0674   21248594.1854
      1777.431        1385.011
 -13901774.853 9 -10809679.56548  22004330.971    22004332.6924   22004337.4834
      2624.565        2045.116
  -5075423.973 9  -3754547.41046  24482467.644    24482469.5294   24482475.1674
      2345.727        1827.839
 96 10 21 16 33 29.9990000  0 10 17  1 28 26  6 23 22 21  3  9      -0.000755057
    -87995.635 9    -66460.71748  20571090.713    20571092.0074   20571096.5034
      -618.288        -481.783
 -11867663.151 9  -9219383.65746  23199838.296    23199839.6244   23199845.4524
      3888.965        3030.362
  -4589774.059 9  -3565217.970 9  20252076.994    20252078.566    20252082.584
      -255.270        -198.912
   7327309.835 9   5706065.66047  23639299.702    23639301.5534   23639306.3184
     -2707.781       -2109.959
  12258480.548 9   9542303.15246  23567725.621    23567727.2894   23567733.0404
     -3468.949       -2703.077
  -1544709.100 9  -1197582.72248  20507610.800    20507612.0774   20507616.6934
      -363.127        -282.956
   5047100.066 9   3930462.44646  24468911.250    24468912.0734   24468917.5234
     -1821.904       -1419.665
  -9959914.539 9  -7744769.85948  21238465.833    21238467.1474   21238472.3014
      1769.000        1378.442
 -13980280.118 9 -10870852.50348  21989391.870    21989393.6614   21989398.3824
      2609.586        2033.444
  -5145690.866 8  -3809300.79146  24469096.324    24469098.1424   24469103.8144
      2339.397        1822.907
 96 10 21 16 33 59.9990000  0 10 17  1 28 26  6 23 22 21  3  9      -0.000760863
    -69287.164 9    -51882.70048  20574650.784    20574652.1384   20574656.6464
      -629.098        -490.206
 -11984254.059 9  -9310233.72546  23177651.767    23177653.0444   23177658.9304
      3883.504        3026.107
  -4581800.724 9  -3559004.997 9  20253594.342    20253595.876    20253599.868
      -276.331        -215.323
   7408702.248 9   5769488.27247  23654788.188    23654790.0134   23654794.8094
     -2718.437       -2118.263
  12362624.019 9   9623453.83946  23587543.920    23587545.2264   23587550.8514
     -3473.899       -2706.934
  -1533692.535 9  -1188998.39048  20509707.193    20509708.4674   20509713.0854
      -371.680        -289.621
   5101831.404 9   3973110.19846  24479326.494    24479327.1754   24479332.5744
     -1826.894       -1423.554
 -10012833.175 9  -7786005.15548  21228395.727    21228397.0374   21228402.2154
      1758.804        1370.497
 -14058326.299 9 -10931667.70548  21974540.181    21974541.9694   21974546.6524
      2593.514        2020.920
  -5215757.711 8  -3863898.28946  24455763.213    24455764.7784   24455770.5134
      2331.861        1817.034
 96 10 21 16 34 29.9990000  0 10 17  1 28 26  6 23 22 21  3  9      -0.000766676
    -50277.870 9    -37070.28348  20578268.133    20578269.4954   20578274.0204
      -638.821        -497.783
 -12100703.899 9  -9400973.85246  23155491.989    23155493.3804   23155499.2524
      3879.113        3022.685
  -4573226.817 9  -3552324.050 9  20255225.898    20255227.446    20255231.439
      -295.872        -230.550
   7490392.203 9   5833142.73547  23670333.153    23670335.1364   23670339.9584
     -2728.181       -2125.855
  12466881.342 9   9704693.24246  23607383.728    23607384.8194   23607390.2394
     -3477.292       -2709.578
  -1522429.103 9  -1180221.70048  20511850.539    20511851.8184   20511856.4274
      -379.845        -295.983
   5156678.765 9   4015848.37546  24489763.620    24489764.3254   24489769.7274
     -1830.350       -1426.247
 -10065476.541 9  -7827025.96048  21218378.021    21218379.3384   21218384.5104
      1750.181        1363.777
 -14135931.365 9 -10992139.18748  21959772.443    21959774.1734   21959778.8744
      2579.663        2010.127
  -5285649.121 8  -3918359.08146  24442463.435    24442464.8744   24442470.5204
      2326.850        1813.130
 96 10 21 16 34 59.9990000  0 10 17  1 28 26  6 23 22 21  3  9      -0.000772498
    -30963.544 9    -22020.17248  20581943.518    20581944.8974   20581949.4194
      -649.117        -505.805
 -12217013.155 9  -9491604.43546  23133358.828    23133360.4664   23133366.3704
      3874.543        3019.124
  -4564054.494 9  -3545176.807 9  20256971.335    20256972.885    20256976.883
      -315.844        -246.112
   7572379.091 9   5897028.58246  23685935.057    23685936.7734   23685941.5474
     -2737.706       -2133.277
  12571253.535 9   9786022.16846  23627245.099    23627246.2404   23627251.6644
     -3481.080       -2712.530
  -1510907.491 9  -1171243.82948  20514043.055    20514044.3304   20514048.8974
      -388.528        -302.749
   5211642.802 9   4058677.46046  24500222.955    24500223.7724   24500229.1094
     -1834.069       -1429.145
 -10117851.875 9  -7867837.90248  21208411.276    21208412.6264   21208417.7734
      1741.291        1356.850
 -14213100.787 9 -11052271.20548  21945087.533    21945089.3064   21945094.0584
      2564.522        1998.329
  -5355380.172 8  -3972694.92546  24429193.992    24429195.4204   24429201.0744
      2321.496        1808.958
 96 10 21 16 35 29.9990000  0 10 17  1 28 26  6 23 22 21  3  9      -0.000778324
    -11319.553 9     -6713.18448  20585681.638    20585683.0374   20585687.5614
      -660.227        -514.462
 -12333179.269 9  -9582123.48946  23111253.280    23111254.8534   23111260.6964
      3869.894        3015.502
  -4554279.194 9  -3537559.708 9  20258831.571    20258833.093    20258837.086
      -335.639        -261.537
   7654654.739 9   5961139.43646  23701591.722    23701593.3904   23701598.0904
     -2747.202       -2140.677
  12675751.211 9   9867448.87546  23647130.248    23647131.6174   23647136.9674
     -3485.119       -2715.677
  -1499115.229 9  -1162055.06448  20516287.035    20516288.3414   20516292.9074
      -397.417        -309.675
   5266722.586 9   4101596.72346  24510704.389    24510705.1064   24510710.6334
     -1837.831       -1432.076
 -10169955.442 9  -7908438.07748  21198496.339    21198497.6634   21198502.8254
      1732.529        1350.023
 -14289803.266 9 -11112039.37848  21930491.606    21930493.3114   21930498.0854
      2549.296        1986.464
  -5424933.827 8  -4026892.55346  24415958.398    24415959.6304   24415965.4084
      2315.668        1804.417
 96 10 21 16 35 59.9990000  0 10 17  1 28 26  6 23 22 21  3  9      -0.000784149
      8660.684 9      8855.81448  20589483.842    20589485.1764   20589489.6924
      -671.490        -523.239
 -12449193.928 9  -9672524.51646  23089176.422    23089178.0564   23089183.8954
      3864.691        3011.448
  -4543903.659 9  -3529474.897 9  20260805.933    20260807.473    20260811.506
      -355.805        -277.251
   7737234.548 9   6025487.29346  23717306.241    23717307.8064   23717312.5264
     -2757.772       -2148.913
  12780370.610 9   9948970.41746  23667038.427    23667040.1274   23667045.4784
     -3489.126       -2718.799
  -1487040.769 9  -1152646.40148  20518584.714    20518586.0334   20518590.6014
      -407.295        -317.373
   5321931.695 9   4144616.75346  24521210.323    24521211.0184   24521216.6624
     -1842.378       -1435.619
 -10221800.954 9  -7948837.16848  21188630.511    21188631.8094   21188636.9344
      1724.068        1343.430
 -14366045.162 9 -11171448.65448  21915983.246    21915984.9694   21915989.7234
      2533.716        1974.324
  -5494305.674 8  -4080948.49546  24402757.198    24402758.6084   24402764.2984
      2309.399        1799.532
 96 10 21 16 36 29.9990000  0 10 17  1 28 26  6 23 22 21  3  9      -0.000789970
     28974.139 9     24684.46948  20593349.412    20593350.7064   20593355.2384
      -683.007        -532.213
 -12565053.740 9  -9762804.87146  23067129.306    23067130.7144   23067136.5094
      3859.026        3007.033
  -4532925.348 9  -3520920.388 9  20262895.091    20262896.585    20262900.630
      -376.412        -293.308
   7820118.092 9   6090071.83446  23733078.537    23733080.0004   23733084.7044
     -2768.012       -2156.892
  12885101.226 9  10030578.63246  23686968.334    23686969.8654   23686975.2444
     -3493.283       -2722.039
  -1474675.933 9  -1143011.46948  20520937.657    20520938.9964   20520943.5504
      -417.134        -325.039
   5377270.925 9   4187738.20646  24531741.069    24531741.7484   24531747.4204
     -1847.315       -1439.466
 -10273397.699 9  -7989042.41948  21178811.941    21178813.2704   21178818.3964
      1715.391        1336.668
 -14441813.391 9 -11230488.83348  21901565.030    21901566.8044   21901571.5014
      2517.202        1961.456
  -5563494.297 9  -4134861.67846  24389590.974    24389592.4534   24389598.1234
      2302.600        1794.234
 96 10 21 16 36 59.9990000  0 10 17  1 28 26  6 23 22 21  3  9      -0.000795791
     49612.857 9     40766.57648  20597276.805    20597278.1534   20597282.6784
      -692.946        -539.958
 -12680762.958 9  -9852967.88547  23045110.538    23045112.0124   23045117.8294
      3854.734        3003.689
  -4521348.504 9  -3511899.493 9  20265098.091    20265099.604    20265103.656
      -395.532        -308.207
   7903279.093 9   6154872.56546  23748903.315    23748904.8774   23748909.7504
     -2776.107       -2163.200
  12989930.404 9  10112263.64046  23706916.471    23706918.2634   23706923.7004
     -3495.686       -2723.911
  -1462046.075 9  -1133170.03248  20523341.021    20523342.3814   20523346.9214
      -425.069        -331.223
   5432744.817 9   4230964.58346  24542297.398    24542298.1294   24542303.9284
     -1851.033       -1442.363
 -10324753.536 9  -8029059.94448  21169039.230    21169040.5834   21169045.6814
      1708.109        1330.994
 -14517094.816 9 -11289149.68748  21887239.602    21887241.2524   21887245.9024
      2501.433        1949.168
  -5632482.586 8  -4188618.77446  24376462.926    24376464.3594   24376470.1164
      2296.396        1789.399
 96 10 21 16 37 29.9990000  0 10 17  1 28 26  6 23 22 21  3  9      -0.000801614
     70560.132 9     57089.11548  20601262.938    20601264.2874   20601268.8244
      -703.681        -548.323
 -12796320.162 9  -9943012.44047  23023120.637    23023122.2024   23023128.0554
      3848.867        2999.117
  -4509179.605 9  -3502417.252 9  20267413.753    20267415.279    20267419.337
      -416.034        -324.182
   7986702.540 9   6219877.80846  23764778.130    23764779.7724   23764784.6904
     -2785.722       -2170.692
  13094857.622 9  10194025.05546  23726883.741    23726885.4034   23726890.8264
     -3499.693       -2727.034
  -1449150.785 9  -1123121.76248  20525794.911    20525796.2534   20525800.7814
      -434.818        -338.819
   5488351.980 9   4274294.79246  24552879.081    24552879.8814   24552885.7544
     -1856.418       -1446.559
 -10375870.115 9  -8068891.03648  21159312.083    21159313.4364   21159318.4934
      1699.407        1324.213
 -14591894.452 9 -11347435.11748  21873005.670    21873007.3614   21873011.9604
      2485.063        1936.413
  -5701265.885 9  -4242216.14046  24363374.019    24363375.3104   24363381.0964
      2288.685        1783.391
 96 10 21 16 37 59.9990000  0 10 17  1 28 26  6 23 22 21  3  9      -0.000807444
     91798.434 9     73638.42848  20605304.440    20605305.8064   20605310.3544
      -713.400        -555.896
 -12911728.914 9 -10032941.30947  23001159.076    23001160.6044   23001166.4964
      3843.905        2995.251
  -4496419.094 9  -3492474.020 9  20269842.039    20269843.559    20269847.608
      -435.776        -339.566
   8070387.744 9   6285087.03246  23780702.877    23780704.5664   23780709.4864
     -2794.288       -2177.367
  13199872.061 9  10275854.42946  23746866.964    23746868.9144   23746874.6184
     -3502.397       -2729.140
  -1435992.113 9  -1112868.26248  20528298.897    20528300.2534   20528304.7794
      -443.423        -345.524
   5544098.620 9   4317733.67646  24563487.244    24563488.1844   24563494.1034
     -1860.943       -1450.085
 -10426749.385 9  -8108537.21448  21149630.066    21149631.4374   21149636.4584
      1691.382        1317.960
 -14666226.205 9 -11405355.97148  21858860.797    21858862.5014   21858867.1354
      2469.337        1924.159
  -5769829.459 9  -4295642.28846  24350326.893    24350328.0854   24350333.8804
      2281.026        1777.423
 96 10 21 16 38 29.9990000  0 10 17  1 28 26  6 23 22 21  3  9      -0.000813286
    113332.706 9     90418.36448  20609402.305    20609403.6354   20609408.1884
      -722.689        -563.134
 -13026985.596 9 -10122751.69247  22979226.407    22979227.9704   22979233.8664
      3839.383        2991.727
  -4483063.970 9  -3482067.451 9  20272383.454    20272384.975    20272389.028
      -455.112        -354.633
   8154319.851 9   6350488.63246  23796674.466    23796676.2944   23796681.3384
     -2801.780       -2183.205
  13304971.535 9  10357750.05846  23766866.654    23766868.7474   23766874.5584
     -3504.839       -2731.043
  -1422577.854 9  -1102415.60348  20530851.473    20530852.9204   20530857.4654
      -451.366        -351.714
   5599980.996 9   4361278.33946  24574121.305    24574122.3224   24574128.3074
     -1865.167       -1453.377
 -10477382.175 9  -8147991.33248  21139994.934    21139996.3334   21140001.3464
      1683.633        1311.922
 -14740089.983 9 -11462912.16448  21844805.042    21844806.6814   21844811.3464
      2454.548        1912.635
  -5838146.740 8  -4348876.54146  24337326.346    24337327.7394   24337333.5094
      2272.831        1771.037
 96 10 21 16 38 59.9990000  0 10 17  1 28 26  6 23 22 21  3  9      -0.000819137
    135164.522 9    107430.15648  20613556.740    20613558.1094   20613562.6744
      -732.288        -570.614
 -13142082.411 9 -10212437.48447  22957324.156    22957325.7184   22957331.6884
      3834.027        2987.553
  -4469105.315 9  -3471190.595 9  20275039.638    20275041.222    20275045.306
      -475.086        -370.197
   8238505.821 9   6416088.05046  23812694.430    23812696.3754   23812701.4144
     -2810.191       -2189.759
  13410170.114 8  10439722.91646  23786885.697    23786887.3824   23786893.2974
     -3508.097       -2733.582
  -1408902.086 9  -1091759.16748  20533453.946    20533455.3404   20533459.8844
      -460.057        -358.486
   5656008.553 9   4404936.12646  24584783.038    24584784.0194   24584790.1044
     -1869.454       -1456.717
 -10527760.188 9  -8187246.92248  21130408.373    21130409.7324   21130414.7444
      1675.155        1305.316
 -14813496.792 9 -11520112.27448  21830836.092    21830837.8114   21830842.5064
      2439.504        1900.912
  -5906190.663 8  -4401897.76246  24324377.921    24324379.3524   24324385.0574
      2263.917        1764.091
 96 10 21 16 39 29.9990000  0 10 17  1 28 26  6 23 22 21  3  9      -0.000825036
    157272.218 9    124656.92048  20617763.729    20617765.0914   20617769.6474
      -741.932        -578.129
 -13257024.351 9 -10302002.60447  22935451.386    22935452.9634   22935459.0034
      3828.596        2983.322
  -4454555.086 9  -3459852.774 9  20277808.467    20277810.062    20277814.152
      -495.200        -385.870
   8322941.798 9   6481882.28746  23828762.317    23828764.1324   23828769.1574
     -2819.190       -2196.771
  13515450.572 8  10521759.55546  23806919.730    23806921.5444   23806927.5874
     -3510.673       -2735.589
  -1394968.485 9  -1080901.82348  20536105.453    20536106.8174   20536111.3584
      -468.863        -365.348
   5712155.142 9   4448686.65646  24595467.344    24595468.4284   24595474.6304
     -1873.816       -1460.116
 -10577887.634 9  -8226307.26448  21120869.457    21120870.7884   21120875.7894
      1666.384        1298.481
 -14886461.284 9 -11576967.72448  21816951.291    21816953.1184   21816957.8534
      2424.454        1889.185
  -5973979.778 8  -4454720.43546  24311477.908    24311479.5344   24311485.3414
      2255.034        1757.169
 96 10 21 16 39 59.9990000  0 10 17  1 28 26  6 23 22 21  3  9      -0.000830908
    179677.301 9    142115.41248  20622027.320    20622028.6414   20622033.1994
      -751.611        -585.671
 -13371799.834 9 -10391438.00747  22913610.331    22913611.8764   22913617.9664
      3823.121        2979.055
  -4439400.132 9  -3448043.742 9  20280692.298    20280693.953    20280698.065
      -514.974        -401.278
   8407653.469 9   6547891.34346  23844882.215    23844884.3074   23844889.2514
     -2827.997       -2203.634
  13620805.337 8  10603854.09946  23826967.782    23826969.8934   23826976.0234
     -3512.896       -2737.322
  -1380783.374 9  -1069848.50148  20538804.787    20538806.1524   20538810.7224
      -476.660        -371.423
   5768423.397 9   4492532.00246  24606174.888    24606175.9884   24606182.1934
     -1877.235       -1462.781
 -10627748.061 9  -8265159.54248  21111381.336    21111382.6574   21111387.6444
      1657.762        1291.763
 -14958967.791 9 -11633466.30348  21803153.917    21803155.5784   21803160.3114
      2409.494        1877.528
  -6041502.292 8  -4507335.37846  24298628.568    24298630.4014   24298636.2534
      2246.840        1750.784
 96 10 21 16 40 29.9990000  0 10 17  1 28 26  6 23 22 21  3  9      -0.000836790
    202374.975 9    159801.90048  20626346.511    20626347.8624   20626352.4374
      -761.072        -593.043
 -13486395.218 9 -10480733.07547  22891803.452    22891805.1104   22891811.1644
      3817.128        2974.385
  -4423642.420 9  -3435765.026 9  20283690.899    20283692.564    20283696.679
      -534.966        -416.857
   8492638.434 9   6614113.36246  23861054.287    23861056.4404   23861061.3334
     -2837.045       -2210.684
  13726240.352 8  10686011.16746  23847031.511    23847033.5714   23847039.7894
     -3515.566       -2739.402
  -1366355.166 9  -1058605.75248  20541550.372    20541551.7414   20541556.3084
      -484.699        -377.688
   5824806.022 9   4536466.46746  24616904.294    24616905.3604   24616911.4804
     -1881.015       -1465.726
 -10677338.525 9  -8303801.46048  21101944.584    21101945.9214   21101950.9044
      1648.806        1284.784
 -15031024.213 9 -11689614.16648  21789441.949    21789443.6914   21789448.4104
      2394.714        1866.011
  -6108782.729 8  -4559761.66746  24285825.873    24285827.4174   24285833.2004
      2239.253        1744.872
 96 10 21 16 40 59.9990000  0 10 17  1 28 26  6 23 22 21  3  9      -0.000842685
    225349.837 9    177704.37548  20630718.451    20630719.8284   20630724.4464
      -770.690        -600.538
 -13600817.674 9 -10569893.40147  22870029.863    22870031.2704   22870037.2694
      3811.097        2969.686
  -4407298.868 9  -3423029.812 9  20286800.994    20286802.653    20286806.786
      -554.501        -432.079
   8577885.591 9   6680539.67746  23877276.504    23877278.5004   23877283.3654
     -2846.034       -2217.689
  13831741.471 8  10768219.76546  23867107.767    23867109.7344   23867116.1104
     -3517.911       -2741.229
  -1351703.858 9  -1047189.15648  20544338.440    20544339.7994   20544344.3594
      -492.027        -383.398
   5881274.541 9   4580467.83846  24627650.002    24627650.9154   24627657.2144
     -1883.492       -1467.656
 -10726669.815 9  -8342241.42348  21092557.152    21092558.5084   21092563.4744
      1640.018        1277.936
 -15102642.025 9 -11745420.25748  21775813.472    21775815.2874   21775819.9914
      2379.634        1854.260
  -6175857.834 8  -4612027.95046  24273061.901    24273063.4754   24273069.2784
      2232.497        1739.608
 96 10 21 16 41 29.9990000  0 10 17  1 28 26  6 23 22 21  3  9      -0.000848579
    248635.052 9    195848.68348  20635149.469    20635150.8684   20635155.4814
      -781.232        -608.752
 -13715058.143 9 -10658911.90347  22848290.758    22848291.9814   22848298.0144
      3805.487        2965.314
  -4390363.696 9  -3409833.595 9  20290023.719    20290025.331    20290029.459
      -574.038        -447.302
   8663412.115 9   6747183.67946  23893551.625    23893553.7264   23893558.5994
     -2855.113       -2224.763
  13937328.856 8  10850495.55846  23887200.266    23887202.2814   23887208.9354
     -3521.118       -2743.728
  -1336825.559 9  -1035595.68748  20547169.743    20547171.0564   20547175.6134
      -499.283        -389.052
   5937830.405 9   4624537.27246  24638412.059    24638413.1484   24638419.4604
     -1886.370       -1469.899
 -10775737.237 9  -8380475.77448  21083219.954    21083221.2934   21083226.2484
      1631.752        1271.495
 -15173791.263 9 -11800861.21948  21762274.172    21762276.0174   21762280.7944
      2364.212        1842.243
  -6242728.430 8  -4664134.85946  24260336.917    24260338.2754   24260344.1714
      2225.826        1734.410
 96 10 21 16 41 59.9990000  0 10 17  1 28 26  6 23 22 21  3  9      -0.000854471
    272253.165 9    214252.39048  20639643.831    20639645.2064   20639649.8724
      -792.530        -617.556
 -13829110.582 9 -10747783.89947  22826587.381    22826588.4934   22826594.5184
      3798.609        2959.955
  -4372831.037 9  -3396171.808 9  20293360.115    20293361.705    20293365.828
      -594.208        -463.019
   8749211.253 9   6814040.11146  23909878.850    23909880.7584   23909885.6534
     -2864.144       -2231.801
  14043037.626 8  10932865.96546  23907315.937    23907318.0904   23907324.7004
     -3525.790       -2747.369
  -1321718.645 9  -1023824.07648  20550044.494    20550045.8194   20550050.3654
      -507.318        -395.313
   5994477.720 8   4668677.98046  24649191.696    24649192.7874   24649199.2274
     -1889.538       -1472.367
 -10824550.505 9  -8418512.08648  21073931.137    21073932.4194   21073937.3534
      1623.082        1264.739
 -15244467.455 9 -11855933.57148  21748824.920    21748826.7804   21748831.5734
      2348.111        1829.697
  -6309378.320 8  -4716069.77746  24247653.339    24247655.1154   24247661.0084
      2218.183        1728.454
 96 10 21 16 42 29.9990000  0 10 17  1 28 26  6 23 22 21  3  9      -0.000860359
    296196.583 9    232909.58748  20644200.109    20644201.4844   20644206.1814
      -803.101        -625.793
 -13942968.554 9 -10836504.36447  22804920.752    22804921.9724   22804928.1124
      3792.642        2955.305
  -4354702.578 9  -3382045.754 9  20296809.838    20296811.454    20296815.571
      -613.789        -478.277
   8835270.431 9   6881099.16946  23926255.129    23926257.2904   23926262.1824
     -2872.524       -2238.330
  14148888.312 8  11015346.92545  23927458.879    23927460.7204   23927467.4034
     -3530.179       -2750.789
  -1306378.002 9  -1011870.33748  20552963.730    20552965.0484   20552969.5744
      -514.763        -401.114
   6051218.973 8   4712891.86246  24659989.245    24659990.2984   24659996.7804
     -1892.320       -1474.535
 -10873113.199 9  -8456353.14648  21064689.874    21064691.2424   21064696.1694
      1614.985        1258.430
 -15314664.434 9 -11910632.51248  21735466.841    21735468.7234   21735473.5054
      2332.131        1817.245
  -6375805.864 8  -4767831.45146  24235012.594    24235014.3154   24235020.2844
      2210.756        1722.667
 96 10 21 16 42 59.9990000  0 10 17  1 28 26  6 23 22 21  3  9      -0.000866241
    320452.820 9    251810.53648  20648815.850    20648817.3084   20648822.0064
      -814.167        -634.416
 -14056659.224 9 -10925094.45847  22783286.123    22783287.3084   22783293.4714
      3786.416        2950.454
  -4335995.269 9  -3367468.649 9  20300369.713    20300371.330    20300375.459
      -633.648        -493.752
   8921580.209 9   6948353.50546  23942679.367    23942681.5434   23942686.4114
     -2881.662       -2245.451
  14254863.740 8  11097925.08845  23947626.067    23947627.2344   23947633.8794
     -3534.918       -2754.482
  -1290826.131 9   -999752.00648  20555923.101    20555924.4484   20555928.9854
      -522.260        -406.956
   6108025.681 8   4757156.76946  24670799.234    24670800.3624   24670806.8724
     -1895.083       -1476.688
 -10921441.852 9  -8494011.83848  21055493.280    21055494.5984   21055499.5154
      1606.682        1251.960
 -15384377.393 9 -11964954.29348  21722201.007    21722202.7904   21722207.6014
      2315.037        1803.925
  -6442016.957 8  -4819424.44446  24222413.220    24222414.6094   24222420.6454
      2202.995        1716.619
 96 10 21 16 43 29.9990000  0 10 17  1 28 26  6 23 22 21  3  9      -0.000872116
    345025.350 9    270957.94248  20653491.911    20653493.3214   20653498.0384
      -824.272        -642.290
 -14170170.233 9 -11013544.56247  22761685.708    22761686.8204   22761693.0014
      3780.392        2945.760
  -4316703.811 9  -3352436.365 9  20304040.769    20304042.384    20304046.529
      -652.940        -508.784
   9008138.504 9   7015801.48646  23959151.078    23959153.1064   23959157.9464
     -2889.329       -2251.425
  14360953.443 8  11180592.30746  23967814.713    23967815.6074   23967822.1944
     -3537.941       -2756.837
  -1275064.802 9   -987470.45848  20558922.344    20558923.7224   20558928.2554
      -528.943        -412.163
   6164906.299 8   4801479.26046  24681623.342    24681624.5294   24681630.9674
     -1897.314       -1478.426
 -10969536.751 9  -8531488.38348  21046341.104    21046342.4484   21046347.3684
      1598.999        1245.973
 -15453589.326 9 -12018885.67348  21709030.356    21709032.2194   21709037.0604
      2298.706        1791.199
  -6508004.560 8  -4870843.30246  24209855.438    24209857.5284   24209863.4714
      2195.608        1710.863
 96 10 21 16 43 59.9990000  0 10 17  1 28 26  6 23 22 21  3  9      -0.000877977
    369905.822 9    290345.30648  20658226.552    20658227.9244   20658232.6714
      -834.291        -650.097
 -14283468.214 9 -11101828.67047  22740125.682    22740126.8874   22740133.1114
      3772.953        2939.963
  -4296814.183 9  -3336937.973 9  20307825.642    20307827.253    20307831.430
      -672.988        -524.406
   9094947.058 9   7083444.47046  23975670.339    23975672.2764   23975677.1184
     -2897.979       -2258.165
  14467130.806 8  11263327.84345  23988019.573    23988020.6644   23988027.0534
     -3540.297       -2758.673
  -1259084.905 9   -975018.59348  20561963.220    20561964.6014   20561969.1354
      -536.357        -417.941
   6221866.296 8   4845863.60346  24692462.760    24692463.7464   24692470.1284
     -1900.056       -1480.563
 -11017365.689 9  -8568757.68148  21037239.540    21037240.8804   21037245.7924
      1589.693        1238.722
 -15522289.897 9 -12072418.57948  21695957.065    21695958.9444   21695963.8014
      2281.388        1777.705
  -6573746.620 8  -4922070.82546  24197345.413    24197347.3424   24197353.1824
      2187.368        1704.443
 96 10 21 16 44 29.9990000  0 10 17  1 28 26  6 23 22 21  3  9      -0.000883808
    395083.922 9    309964.59248  20663017.831    20663019.1694   20663023.9264
      -844.705        -658.212
 -14396550.527 9 -11189944.73547  22718606.684    22718608.0284   22718614.2484
      3765.569        2934.210
  -4276322.576 9  -3320970.504 9  20311725.086    20311726.679    20311730.888
      -693.444        -540.346
   9182025.439 9   7151297.71946  23992241.019    23992242.8224   23992247.6744
     -2907.455       -2265.549
  14573367.965 8  11346109.97045  24008235.416    24008237.0754   24008243.4864
     -3542.347       -2760.270
  -1242883.751 9   -962394.32348  20565046.168    20565047.5754   20565052.1154
      -544.109        -423.981
   6278910.491 8   4890313.54646  24703317.698    24703318.9154   24703325.2994
     -1903.018       -1482.871
 -11064916.511 9  -8605810.26548  21028190.919    21028192.2204   21028197.1664
      1580.185        1231.313
 -15590464.484 9 -12125541.62848  21682983.904    21682985.7514   21682990.6274
      2263.353        1763.652
  -6639240.259 8  -4973104.78046  24184882.510    24184884.3174   24184890.1214
      2178.438        1697.484
 96 10 21 16 44 59.9990000  0 10 17  1 28 26  6 23 22 21  3  9      -0.000889628
    420565.242 9    329820.14248  20667866.695    20667868.1064   20667872.8804
      -854.624        -665.941
 -14509421.859 9 -11277896.39447  22697127.908    22697129.2344   22697135.5834
      3758.696        2928.854
  -4255234.152 9  -3304537.987 9  20315738.081    20315739.673    20315743.895
      -712.904        -555.510
   9269367.092 9   7219356.09746  24008861.662    24008863.4064   24008868.3224
     -2915.612       -2271.905
  14679635.646 8  11428915.88645  24028457.126    24028459.2694   24028465.5794
     -3542.551       -2760.429
  -1226457.225 9   -949594.43848  20568171.988    20568173.4164   20568177.9894
      -551.528        -429.762
   6336025.822 8   4934818.93546  24714186.018    24714187.6024   24714193.9284
     -1905.217       -1484.585
 -11112208.216 9  -8642660.94148  21019191.606    21019192.9214   21019197.8644
      1572.170        1225.068
 -15658122.735 9 -12178262.34748  21670108.970    21670110.8134   21670115.6944
      2246.764        1750.725
  -6704482.099 8  -5023942.52846  24172467.525    24172469.1684   24172475.0124
      2170.335        1691.170
 96 10 21 16 45 29.9990000  0 10 17  1 28 26  6 23 22 21  3  9      -0.000895458
    446352.890 9    349914.39448  20672773.890    20672775.3444   20672780.1454
      -864.372        -673.537
 -14622083.016 9 -11365684.28447  22675689.224    22675690.5474   22675696.8524
      3752.283        2923.857
  -4233559.472 9  -3287648.646 9  20319862.607    20319864.254    20319868.449
      -731.964        -570.361
   9356944.441 9   7287598.13646  24025527.000    24025528.9194   24025533.8144
     -2922.801       -2277.507
  14785910.756 8  11511727.58945  24048680.210    24048682.9094   24048689.2894
     -3542.436       -2760.340
  -1209798.278 9   -936613.44748  20571342.144    20571343.5364   20571348.0934
      -559.105        -435.666
   6393214.486 8   4979381.45746  24725069.106    24725070.3134   24725076.6634
     -1907.290       -1486.200
 -11159261.852 9  -8679326.11148  21010237.626    21010238.9264   21010243.8684
      1564.849        1219.363
 -15725287.085 9 -12230598.20448  21657328.032    21657329.8514   21657334.7424
      2230.989        1738.433
  -6769463.622 8  -5074577.42446  24160101.901    24160103.5644   24160109.4564
      2161.753        1684.483
 96 10 21 16 45 59.9990000  0 11 17  1 31 28 26  6 23 22 21  3  9   -0.000901296
    472456.445 9    370254.80748  20677741.349    20677742.7034   20677747.5164
      -875.554        -682.250
 -14734542.732 9 -11453315.20347  22654288.722    22654290.1994   22654296.4464
      3745.389        2918.485
  -1889778.31018  -1450476.24055  24817521.435    24817521.9595   24817527.2335
      3623.740        2823.694
  -4211287.938 9  -3270294.223 9  20324100.779    20324102.406    20324106.601
      -752.466        -586.337
   9444771.198 9   7356034.53146  24042240.244    24042241.8504   24042246.7984
     -2931.916       -2284.610
  14892219.211 9  11594565.29045  24068910.257    24068912.8124   24068918.9614
     -3544.649       -2762.064
  -1192873.255 9   -923425.12348  20574562.879    20574564.2894   20574568.8154
      -568.856        -443.264
   6450496.921 9   5024017.04846  24735969.409    24735970.9064   24735977.2354
     -1911.271       -1489.302
 -11206072.265 9  -8715801.75748  21001329.832    21001331.1954   21001336.1214
      1556.362        1212.750
 -15791951.826 9 -12282544.75948  21644642.148    21644643.9734   21644648.8574
      2213.647        1724.920
  -6834155.970 9  -5124986.99146  24147791.488    24147793.0174   24147798.8334
      2151.453        1676.457
 96 10 21 16 46 29.9990000  0 11 17  1 31 28 26  6 23 22 21  3  9   -0.000907158
    498868.905 9    390835.92748  20682767.475    20682768.8434   20682773.6554
      -885.723        -690.174
 -14846831.884 9 -11540813.22747  22632920.878    22632922.3154   22632928.4904
      3740.094        2914.359
  -1998403.906 9  -1535119.63845  24796850.465    24796851.1644   24796855.9834
      3617.498        2818.830
  -4188432.938 9  -3252485.155 9  20328449.905    20328451.572    20328455.771
      -771.501        -601.170
   9532826.632 9   7424649.09946  24058996.873    24058998.2924   24059003.2324
     -2938.743       -2289.930
  14998572.579 9  11677438.00945  24089149.051    24089151.2124   24089157.0814
     -3545.834       -2762.988
  -1175688.794 9   -910034.63748  20577832.922    20577834.3884   20577838.8994
      -577.028        -449.632
   6507869.559 8   5068722.92746  24746886.986    24746888.4744   24746894.9354
     -1913.822       -1491.290
 -11252669.456 9  -8752111.25248  20992462.695    20992464.0554   20992468.9664
      1549.644        1207.515
 -15858131.698 9 -12334113.49348  21632048.587    21632050.3754   21632055.2314
      2198.044        1712.762
  -6898574.052 9  -5175182.85546  24135533.196    24135534.6744   24135540.4954
      2142.738        1669.666
 96 10 21 16 46 59.9990000  0 11 17  1 31 28 26  6 23 22 21  3  9   -0.000913054
    525602.734 9    411667.46648  20687854.690    20687856.1274   20687860.9644
      -896.439        -698.524
 -14958943.799 9 -11628173.15247  22611586.682    22611588.1234   22611594.2254
      3734.030        2909.634
  -2106832.222 9  -1619609.32345  24776217.122    24776218.2654   24776222.9184
      3610.964        2813.738
  -4164998.483 9  -3234224.561 9  20332909.344    20332911.002    20332915.224
      -790.788        -616.198
   9621090.641 9   7493426.19846  24075792.709    24075794.4004   24075799.3664
     -2945.571       -2295.250
  15104965.371 9  11760341.44845  24109395.350    24109397.2344   24109403.1664
     -3547.022       -2763.913
  -1158252.592 9   -896447.99448  20581150.989    20581152.3774   20581156.8994
      -585.151        -455.962
   6565331.712 9   5113498.56046  24757821.813    24757823.1234   24757829.6514
     -1916.946       -1493.724
 -11299047.891 9  -8788250.28548  20983637.145    20983638.5394   20983643.4454
      1542.117        1201.650
 -15923834.516 9 -12385310.50048  21619545.749    21619547.5304   21619552.4014
      2181.982        1700.246
  -6962717.672 9  -5225164.86146  24123326.846    24123328.4434   24123334.3304
      2133.583        1662.532
 96 10 21 16 47 29.9990000  0 11 17  1 31 28 26  6 23 22 21  3  9   -0.000918966
    552659.759 9    432750.84348  20693003.511    20693004.9304   20693009.7834
      -907.460        -707.112
 -15070870.964 9 -11715389.10447  22590287.582    22590289.1154   22590295.1614
      3727.533        2904.571
  -2215052.519 9  -1703936.95145  24755623.779    24755624.6214   24755628.8924
      3603.463        2807.893
  -4140979.348 9  -3215508.374 9  20337480.061    20337481.693    20337485.922
      -810.669        -631.690
   9709568.821 9   7562370.19246  24092629.388    24092631.3084   24092636.2374
     -2953.221       -2301.211
  15211411.237 9  11843286.23945  24129651.601    24129653.1784   24129659.1744
     -3549.622       -2765.939
  -1140572.221 9   -882671.08848  20584515.507    20584516.8554   20584521.3884
      -593.690        -462.615
   6622888.241 9   5158347.74346  24768774.655    24768775.8114   24768782.3514
     -1920.237       -1496.289
 -11345178.443 9  -8824196.16348  20974858.786    20974860.1944   20974865.0724
      1533.092        1194.617
 -15989037.788 9 -12436118.24748  21607137.959    21607139.7664   21607144.5974
      2164.733        1686.805
  -7026577.327 9  -5274925.58946  24111174.616    24111176.3584   24111182.0874
      2123.823        1654.927
 96 10 21 16 47 59.9990000  0 11 17  1 31 28 26  6 23 22 21  3  9   -0.000924889
    580031.015 9    454079.07148  20698212.110    20698213.5264   20698218.3924
      -917.531        -714.959
 -15182618.157 9 -11802464.82547  22569022.689    22569024.3424   22569030.2834
      3721.735        2900.053
  -2323063.418 9  -1788101.31945  24735069.932    24735070.8714   24735075.0974
      3597.131        2802.959
  -4116379.948 9  -3196340.035 9  20342161.200    20342162.827    20342167.057
      -829.472        -646.342
   9798265.035 9   7631484.08246  24109507.769    24109509.7114   24109514.6274
     -2959.928       -2306.437
  15317921.050 9  11926280.86045  24149920.148    24149921.5354   24149927.5314
     -3551.214       -2767.180
  -1122656.409 9   -868710.72148  20587924.711    20587926.1374   20587930.6684
      -600.623        -468.018
   6680523.219 9   5203258.05046  24779742.231    24779743.5104   24779750.0314
     -1922.171       -1497.796
 -11391049.863 9  -8859940.12448  20966129.772    20966131.1504   20966136.0394
      1524.832        1188.181
 -16053736.831 9 -12486533.08448  21594826.148    21594827.9544   21594832.8024
      2148.414        1674.089
  -7090175.339 9  -5324482.44146  24099072.372    24099074.1014   24099079.7404
      2115.886        1648.742
 96 10 21 16 48 29.9990000  0 11 17  1 31 28 26  6 23 22 21  3  9   -0.000930815
    607734.819 9    475666.43048  20703483.887    20703485.3844   20703490.2834
      -929.116        -723.986
 -15294151.642 9 -11889374.01247  22547798.548    22547800.2124   22547806.0964
      3714.109        2894.111
  -2430866.010 9  -1872103.34545  24714555.549    24714556.7694   24714560.9164
      3589.905        2797.329
  -4091196.753 9  -3176716.786 9  20346953.467    20346955.065    20346959.281
      -849.070        -661.613
   9887174.354 9   7700764.03546  24126426.358    24126428.6364   24126433.4884
     -2967.219       -2312.119
  15424502.226 9  12009331.06045  24170201.707    24170203.3164   24170209.4094
     -3553.721       -2769.133
  -1104530.196 9   -854586.40948  20591373.979    20591375.4244   20591379.9734
      -607.442        -473.331
   6738226.529 9   5248221.62046  24790722.938    24790724.0964   24790730.6394
     -1924.376       -1499.514
 -11436652.794 9  -8895474.86748  20957451.863    20957453.1894   20957458.0804
      1515.660        1181.034
 -16117926.007 9 -12536550.62248  21582611.374    21582613.1374   21582618.0214
      2131.143        1660.631
  -7153512.684 9  -5373836.18046  24087019.722    24087021.2914   24087027.0144
      2106.716        1641.597
 96 10 21 16 48 59.9990000  0 11 17  1 31 28 26  6 23 22 21  3  9   -0.000936730
    635781.653 9    497521.08948  20708820.980    20708822.5054   20708827.4434
      -940.844        -733.125
 -15405460.306 9 -11976108.01547  22526617.096    22526618.8574   22526624.7044
      3706.158        2887.915
  -2538457.425 9  -1955940.82045  24694081.695    24694082.8784   24694086.9144
      3582.415        2791.492
  -4065434.221 9  -3156642.106 9  20351855.909    20351857.535    20351861.744
      -868.709        -676.916
   9976298.770 9   7770211.57546  24143386.250    24143388.3984   24143393.3514
     -2974.770       -2318.003
  15531148.230 9  12092431.77545  24190495.982    24190497.4014   24190503.4574
     -3556.330       -2771.166
  -1086203.675 9   -840306.00848  20594861.445    20594862.8424   20594867.3954
      -614.579        -478.893
   6795977.375 9   5293222.20746  24801712.903    24801713.7104   24801720.3724
     -1925.947       -1500.738
 -11481987.095 9  -8930800.29148  20948825.002    20948826.3534   20948831.2704
      1506.395        1173.814
 -16181596.950 9 -12586164.34648  21570495.269    21570496.9904   21570501.8494
      2113.274        1646.707
  -7216571.339 9  -5422972.76246  24075020.280    24075021.5294   24075027.1954
      2096.791        1633.863
 96 10 21 16 49 29.9990000  0 11 17  1 31 28 26  6 23 22 21  3  9   -0.000942639
    664165.954 9    519638.71048  20714222.406    20714223.8854   20714228.8044
      -952.103        -741.898
 -15516537.243 9 -12062661.45047  22505480.015    22505481.6114   22505487.4774
      3698.109        2881.643
  -2645830.484 9  -2039608.14745  24673649.211    24673650.4384   24673654.7094
      3575.038        2785.744
  -4039094.547 9  -3136117.705 9  20356868.179    20356869.813    20356874.030
      -888.048        -691.985
  10065642.874 9   7839830.31046  24160388.011    24160390.0404   24160395.0124
     -2982.139       -2323.745
  15637872.854 8  12175593.76345  24210805.050    24210806.4624   24210812.6884
     -3559.248       -2773.440
  -1067668.289 9   -825862.85548  20598388.614    20598390.0494   20598394.5784
      -621.845        -484.555
   6853762.795 9   5338249.74146  24812708.871    24812709.8644   24812716.6004
     -1927.147       -1501.673
 -11527057.330 9  -8965919.95448  20940248.417    20940249.7514   20940254.6914
      1497.692        1167.033
 -16244750.052 9 -12635374.55848  21558477.652    21558479.3734   21558484.2264
      2096.194        1633.398
  -7279343.271 9  -5471885.93446  24063074.706    24063076.3814   24063082.0594
      2087.209        1626.397
 96 10 21 16 49 59.9990000  0 11 17  1 31 28 26  6 23 22 21  3  9   -0.000948530
    692900.762 9    542029.44848  20719690.475    20719691.9704   20719696.8804
      -963.336        -750.651
 -15627351.824 9 -12149010.45447  22484392.801    22484394.3054   22484400.1444
      3689.769        2875.145
  -2752971.845 9  -2123094.93146  24653260.780    24653262.2024   24653266.5554
      3567.904        2780.185
  -4012160.532 9  -3115130.186 9  20361993.593    20361995.211    20361999.419
      -907.332        -707.012
  10155218.862 9   7909629.72846  24177433.822    24177435.7414   24177440.7664
     -2989.207       -2329.252
  15744685.617 8  12258824.40745  24231130.243    24231132.2904   24231138.5754
     -3561.254       -2775.003
  -1048910.497 9   -811246.40448  20601958.145    20601959.5754   20601964.0994
      -628.437        -489.691
   6911596.018 9   5383314.53146  24823714.249    24823715.2684   24823721.9934
     -1928.164       -1502.465
 -11571859.032 9  -9000830.36648  20931722.904    20931724.2394   20931729.2104
      1489.296        1160.490
 -16307375.532 9 -12684173.63148  21546560.343    21546562.1784   21546567.0144
      2079.061        1620.048
  -7341807.429 9  -5520559.28846  24051188.408    24051189.8374   24051195.5104
      2077.076        1618.501
 96 10 21 16 50 29.9990000  0 11 17  1 31 28 26  6 23 22 21  3  9   -0.000954413
    721971.084 9    564681.62548  20725222.424    20725223.8884   20725228.8094
      -974.169        -759.093
 -15737916.481 9 -12235164.70547  22463352.957    22463354.5084   22463360.3914
      3681.804        2868.938
  -2859887.939 9  -2206406.17546  24632915.221    24632916.8204   24632921.1984
      3560.105        2774.108
  -3984649.917 9  -3093693.366 9  20367228.680    20367230.312    20367234.532
      -926.322        -721.809
  10245005.568 9   7979593.34646  24194519.326    24194521.6084   24194526.6304
     -2996.309       -2334.786
  15851546.831 8  12342092.79545  24251464.748    24251467.3604   24251473.6374
     -3562.337       -2775.847
  -1029953.512 9   -796474.73848  20605565.562    20605566.9884   20605571.4854
      -635.166        -494.935
   6969453.583 9   5428398.29646  24834724.242    24834725.2714   24834732.0254
     -1928.652       -1502.846
 -11616409.963 9  -9035545.37248  20923245.079    20923246.4514   20923251.4324
      1481.164        1154.154
 -16369480.717 9 -12732567.28148  21534742.106    21534743.9464   21534748.8074
      2061.683        1606.506
  -7403957.560 9  -5568987.94546  24039361.594    24039363.0484   24039368.6234
      2066.700        1610.416
 96 10 21 16 50 59.9990000  0 11 17  1 31 28 26  6 23 22 21  3  9   -0.000960276
    751363.816 9    587585.03048  20730815.640    20730817.1524   20730822.0894
      -984.593        -767.215
 -15848238.686 9 -12321130.04347  22442359.269    22442360.8814   22442366.7604
      3673.676        2862.605
  -2966561.728 9  -2289528.60646  24612615.785    24612617.4844   24612622.0054
      3552.150        2767.909
  -3956561.334 9  -3071806.182 9  20372573.759    20372575.403    20372579.625
      -945.602        -736.833
  10335018.705 9   8049733.41746  24211648.201    24211650.5904   24211655.5544
     -3003.900       -2340.701
  15958439.867 8  12425385.95745  24271805.719    24271808.5554   24271814.8434
     -3563.280       -2776.582
  -1010773.735 9   -781529.46648  20609215.335    20609216.7734   20609221.2914
      -642.795        -500.879
   7027340.781 9   5473505.14546  24845739.690    24845740.8924   24845747.6974
     -1929.903       -1503.821
 -11660703.654 9  -9070059.94148  20914816.237    20914817.6434   20914822.6144
      1472.391        1147.318
 -16431055.061 9 -12780547.29248  21523024.876    21523026.7214   21523031.6054
      2043.970        1592.704
  -7465790.860 9  -5617169.73846  24027594.893    24027596.4894   24027602.1774
      2056.486        1602.457
 96 10 21 16 51 29.9990000  0 11 17  1 31 28 26  6 23 22 21  3  9   -0.000966131
    781057.008 9    610722.56148  20736466.111    20736467.5844   20736472.5684
      -994.930        -775.270
 -15958323.514 9 -12406910.40247  22421410.891    22421412.4204   22421418.2954
      3665.551        2856.274
  -3073002.370 9  -2372469.37146  24592361.038    24592362.4844   24592367.0434
      3543.976        2761.540
  -3927897.852 9  -3049471.024 9  20378028.227    20378029.880    20378034.123
      -965.173        -752.083
  10425255.004 9   8120047.37846  24228819.485    24228822.0364   24228826.9784
     -3011.604       -2346.704
  16065358.895 8  12508699.39345  24292152.151    24292154.5834   24292160.8584
     -3564.482       -2777.518
   -991375.255 9   -766413.77748  20612906.816    20612908.1714   20612912.7024
      -650.283        -506.714
   7085266.696 9   5518642.15246  24856762.654    24856763.9034   24856770.5234
     -1931.793       -1505.293
 -11704746.352 9  -9104378.92048  20906435.228    20906436.5924   20906441.5764
      1463.888        1140.692
 -16492108.205 9 -12828121.17048  21511406.931    21511408.6834   21511413.6094
      2026.203        1578.859
  -7527335.420 9  -5665126.52046  24015883.072    24015884.9374   24015890.5384
      2046.558        1594.721
 96 10 21 16 51 59.9990000  0 11 17  1 31 28 26  6 23 22 21  3  9   -0.000971978
    811060.081 9    634101.55448  20742175.624    20742177.0164   20742182.0034
     -1005.318        -783.365
 -16068180.805 9 -12492513.45847  22400505.880    22400507.2824   22400513.0954
      3658.429        2850.724
  -3179203.379 9  -2455223.39146  24572151.587    24572153.0934   24572157.7474
      3536.260        2755.527
  -3898653.464 9  -3026683.212 9  20383593.293    20383594.922    20383599.152
      -984.284        -766.975
  10515715.527 9   8190536.07646  24246033.722    24246036.1374   24246041.0654
     -3018.942       -2352.422
  16172306.145 8  12592034.82645  24312503.523    24312506.0644   24312512.3474
     -3565.123       -2778.018
   -971757.419 9   -751127.15748  20616639.949    20616641.3234   20616645.8484
      -657.594        -512.411
   7143246.986 9   5563821.54546  24867796.087    24867797.3004   24867803.8764
     -1933.498       -1506.622
 -11748535.416 9  -9138500.26548  20898102.430    20898103.8004   20898108.8094
      1455.595        1134.230
 -16552624.138 9 -12875276.44448  21499891.048    21499892.8634   21499897.8214
      2008.454        1565.029
  -7588586.181 9  -5712854.38446  24004227.586    24004229.1934   24004234.8254
      2036.851        1587.157
 96 10 21 16 52 29.9990000  0 11 17  1 31 28 26  6 23 22 21  3  9   -0.000977835
    841379.600 9    657727.13248  20747945.237    20747946.6434   20747951.6544
     -1016.097        -791.764
 -16177823.662 9 -12577949.43047  22379641.657    22379642.9554   22379648.7254
      3650.791        2844.772
  -3285169.765 8  -2537794.59946  24551986.834    24551988.3674   24551993.1784
      3528.084        2749.156
  -3868834.526 9  -3003447.699 9  20389267.605    20389269.270    20389273.505
     -1003.843        -782.215
  10606397.181 9   8261197.05846  24263289.913    24263292.1834   24263297.1964
     -3026.712       -2358.477
  16279281.299 8  12675391.98645  24332860.177    24332862.7064   24332869.1414
     -3566.847       -2779.361
   -951910.494 9   -735662.02848  20620416.708    20620418.0724   20620422.5834
      -665.729        -518.750
   7201287.706 9   5609048.01846  24878840.842    24878842.0984   24878848.7214
     -1936.082       -1508.635
 -11792084.007 9  -9172434.22848  20889815.413    20889816.7774   20889821.7724
      1447.435        1127.871
 -16612619.224 9 -12922025.86248  21488474.404    21488476.2244   21488481.1684
      1991.019        1551.443
  -7649545.878 9  -5760355.44446  23992627.568    23992628.9034   23992634.5054
      2026.868        1579.378
 96 10 21 16 52 59.9990000  0 11 17  1 31 28 26  6 23 22 21  3  9   -0.000983705
    872012.334 9    681596.77448  20753774.435    20753775.8544   20753780.8904
     -1026.085        -799.547
 -16287240.690 9 -12663209.43147  22358820.271    22358821.5704   22358827.3374
      3643.588        2839.159
  -3390906.204 8  -2620186.63046  24531865.841    24531867.4014   24531872.2594
      3521.012        2743.646
  -3838434.413 9  -2979759.318 9  20395052.553    20395054.236    20395058.460
     -1022.788        -796.978
  10697301.190 9   8332031.32346  24280588.314    24280590.6894   24280595.7514
     -3033.278       -2363.593
  16386308.627 8  12758789.78445  24353227.352    24353229.4444   24353235.9044
     -3568.225       -2780.435
   -931829.236 9   -720014.29948  20624238.029    20624239.4004   20624243.9284
      -672.875        -524.318
   7259406.119 9   5654335.03446  24889900.517    24889901.7234   24889908.4604
     -1938.351       -1510.403
 -11835390.569 9  -9206179.59648  20881574.416    20881575.7854   20881580.8074
      1439.712        1121.854
 -16672096.024 9 -12968371.42548  21477156.343    21477158.1644   21477163.1364
      1974.155        1538.303
  -7710216.032 9  -5807630.89646  23981082.246    23981083.8354   23981089.2824
      2017.758        1572.279
 96 10 21 16 53 29.9990000  0 11 17  1 31 28 26  6 23 22 21  3  9   -0.000989594
    902953.821 9    705706.99848  20759662.397    20759663.8424   20759668.9084
     -1037.121        -808.146
 -16396435.312 9 -12748296.12547  22338041.152    22338042.5064   22338048.2574
      3635.709        2833.020
  -3496423.576 8  -2702407.93945  24511786.670    24511788.0894   24511793.0034
      3513.093        2737.475
  -3807463.129 9  -2955625.875 9  20400946.182    20400947.881    20400952.106
     -1042.220        -812.119
  10788399.277 9   8403016.79246  24297923.877    24297926.1724   24297931.1714
     -3039.902       -2368.755
  16493382.281 8  12842223.68245  24373602.581    24373605.0054   24373611.3914
     -3570.243       -2782.008
   -911533.874 9   -704199.74048  20628100.080    20628101.5064   20628106.0314
      -680.445        -530.217
   7317591.572 9   5699674.28446  24900973.014    24900974.0154   24900980.7324
     -1940.882       -1512.376
 -11878465.685 9  -9239744.61448  20873377.404    20873378.8564   20873383.8854
      1431.429        1115.399
 -16731066.308 9 -13014322.30448  21465934.685    21465936.5114   21465941.4674
      1956.784        1524.767
  -7770594.101 9  -5854678.75746  23969592.698    23969594.2614   23969599.6344
      2007.063        1563.945
 96 10 21 16 53 59.9990000  0 11 17  1 31 28 26  6 23 22 21  3  9   -0.000995500
    934218.601 9    730069.13748  20765611.896    20765613.2984   20765618.4014
     -1048.031        -816.648
 -16505400.339 9 -12833203.91747  22317305.733    22317307.1144   22317312.8534
      3627.618        2826.715
  -3601719.655 8  -2784456.82745  24491749.230    24491750.9944   24491755.7894
      3505.600        2731.636
  -3775922.964 9  -2931049.148 9  20406947.954    20406949.787    20406954.004
     -1061.327        -827.008
  10879675.748 9   8474141.27546  24315293.438    24315295.6194   24315300.6234
     -3046.033       -2373.532
  16600493.409 8  12925686.79846  24393985.221    24393987.6354   24393993.9044
     -3571.389       -2782.901
   -891021.728 9   -688216.26048  20632003.485    20632004.8644   20632009.3874
      -687.851        -535.988
   7375830.850 9   5745055.49046  24912055.574    24912056.6234   24912063.3674
     -1942.603       -1513.717
 -11921292.030 9  -9273115.78948  20865227.848    20865229.2744   20865234.3064
      1422.904        1108.756
 -16789523.324 9 -13059873.23448  21454810.885    21454812.5104   21454817.4704
      1939.496        1511.296
  -7830655.083 9  -5901479.53846  23958163.688    23958165.0114   23958170.4384
      1996.289        1555.550
 96 10 21 16 54 29.9990000  0 11 17  1 31 28 26  6 23 22 21  3  9   -0.001001414
    965795.657 9    754674.61048  20771620.841    20771622.2514   20771627.3364
     -1057.712        -824.191
 -16614119.932 9 -12917920.45947  22296616.885    22296618.4404   22296624.1534
      3619.580        2820.452
  -3706790.055 8  -2866329.85345  24471754.906    24471756.7654   24471761.6834
      3498.211        2725.879
  -3743818.488 9  -2906032.700 9  20413057.247    20413059.090    20413063.304
     -1079.729        -841.347
  10971126.441 9   8545401.52846  24332695.576    24332698.0934   24332703.1684
     -3051.350       -2377.675
  16707630.762 8  13009170.38146  24414373.284    24414375.2274   24414381.5944
     -3571.825       -2783.240
   -870307.399 9   -672075.23348  20635945.316    20635946.7044   20635951.2264
      -693.820        -540.639
   7434105.819 9   5790464.50146  24923144.793    24923146.0044   24923152.6624
     -1943.050       -1514.065
 -11963873.035 9  -9306295.78848  20857124.978    20857126.3754   20857131.4344
      1414.933        1102.545
 -16847461.464 9 -13105019.84548  21443785.579    21443787.2584   21443792.1884
      1921.959        1497.630
  -7890403.895 9  -5948037.06246  23946793.787    23946795.1974   23946800.6204
      1986.172        1547.666
 96 10 21 16 54 59.9980000  0 11 17  1 31 28 26  6 23 22 21  3  9   -0.001007314
    997676.106 9    779516.49348  20777687.577    20777688.9544   20777694.0284
     -1067.753        -832.015
 -16722582.602 9 -13002436.80147  22275977.207    22275978.6604   22275984.4064
      3611.508        2814.162
  -3811614.055 8  -2948010.86545  24451807.566    24451809.2944   24451814.4134
      3490.261        2719.684
  -3711152.239 9  -2880578.508 9  20419273.440    20419275.273    20419279.510
     -1098.035        -855.612
  11062740.339 9   8616788.92946  24350129.184    24350131.6634   24350136.7874
     -3056.370       -2381.587
  16814779.742 8  13092663.02246  24434763.067    24434765.0774   24434771.4544
     -3571.507       -2782.992
   -849406.154 9   -655788.55948  20639922.702    20639924.0904   20639928.6264
      -699.497        -545.062
   7492393.556 9   5835883.48646  24934236.827    24934237.9084   24934244.4974
     -1942.790       -1513.862
 -12006194.739 9  -9339273.73748  20849071.436    20849072.8104   20849077.8944
      1406.625        1096.071
 -16904846.333 9 -13149735.33548  21432865.642    21432867.2914   21432872.2254
      1903.892        1483.552
  -7949831.514 9  -5994344.29846  23935484.919    23935486.5084   23935492.0264
      1975.907        1539.668
 96 10 21 16 55 29.9980000  0 11 17  1 31 28 26  6 23 22 21  3  9   -0.001013191
   1029894.053 9    804621.36848  20783818.402    20783819.8574   20783824.9344
     -1079.678        -841.308
 -16830777.301 9 -13086744.33247  22255388.416    22255389.8594   22255395.6594
      3601.976        2806.735
  -3916170.631 8  -3029483.50245  24431911.066    24431912.7154   24431917.9704
      3480.628        2712.178
  -3677910.084 9  -2854675.553 9  20425599.296    20425601.070    20425605.308
     -1117.644        -870.891
  11154530.020 9   8688313.32246  24367596.400    24367598.7034   24367603.7984
     -3062.531       -2386.388
  16921941.822 8  13176165.87046  24455155.299    24455157.2824   24455163.8274
     -3572.327       -2783.631
   -828309.903 9   -639349.92948  20643937.164    20643938.5884   20643943.1144
      -706.470        -550.496
   7550690.367 9   5881309.53645  24945330.441    24945331.4354   24945338.0944
     -1943.346       -1514.296
 -12048242.348 9  -9372038.10148  20841070.033    20841071.3874   20841076.5084
      1397.003        1088.574
 -16961661.696 9 -13194007.04948  21422053.920    21422055.6874   21422060.6174
      1884.311        1468.294
  -8008924.519 9  -6040390.80246  23924239.683    23924241.5284   23924246.9434
      1964.270        1530.600
 96 10 21 16 55 59.9980000  0 11 17  1 31 28 26  6 23 22 21  3  9   -0.001019050
   1062454.945 9    829993.47148  20790014.589    20790016.0084   20790021.0764
     -1091.221        -850.302
 -16938703.402 9 -13170842.56547  22234850.701    22234852.1744   22234857.9804
      3592.851        2799.624
  -4020457.082 8  -3110745.65445  24412065.834    24412067.7844   24412072.9674
      3471.387        2704.977
  -3644096.321 9  -2828327.186 9  20432033.907    20432035.636    20432039.869
     -1136.856        -885.862
  11246503.917 9   8759981.25246  24385098.396    24385100.7974   24385105.8564
     -3069.344       -2391.697
  17029108.852 8  13259672.57346  24475548.728    24475550.6024   24475557.1064
     -3572.395       -2783.684
   -807017.368 9   -622758.35048  20647989.061    20647990.4294   20647994.9574
      -713.355        -555.861
   7608987.020 9   5926735.43945  24956423.872    24956424.8414   24956431.6274
     -1943.469       -1514.391
 -12090024.410 9  -9404595.54848  20833119.211    20833120.5304   20833125.6534
      1388.485        1081.936
 -17017909.808 9 -13237836.75748  21411350.258    21411352.0074   21411356.9154
      1865.401        1453.559
  -8067690.263 9  -6086182.28646  23913057.199    23913058.7774   23913064.2034
      1953.319        1522.067
 96 10 21 16 56 29.9980000  0 11 17  1 31 28 26  6 23 22 21  3  9   -0.001024904
   1095347.800 9    855624.24148  20796273.822    20796275.3544   20796280.4214
     -1101.874        -858.603
 -17046372.676 9 -13254740.67347  22214361.982    22214363.3594   22214369.1934
      3584.795        2793.347
  -4124468.813 8  -3191793.73045  24392273.324    24392274.9824   24392280.2474
      3462.374        2697.954
  -3609721.609 9  -2801541.720 9  20438575.228    20438576.949    20438581.165
     -1155.033        -900.026
  11338665.743 9   8831795.61646  24402636.178    24402638.5944   24402643.7474
     -3075.078       -2396.165
  17136264.815 8  13343170.66246  24495939.973    24495941.6624   24495948.2484
     -3571.454       -2782.951
   -785528.683 9   -606013.93248  20652078.200    20652079.5714   20652084.1354
      -719.558        -560.695
   7667277.267 9   5972156.35345  24967515.916    24967517.1414   24967523.7064
     -1942.865       -1513.921
 -12131577.637 9  -9436974.68348  20825211.855    20825213.2374   20825218.3384
      1381.298        1076.336
 -17073606.551 9 -13281236.82148  21400751.494    21400753.2824   21400758.1784
      1847.558        1439.656
  -8126144.619 9  -6131731.12246  23901933.607    23901935.2664   23901940.8234
      1943.250        1514.221
 96 10 21 16 56 59.9980000  0 11 17  1 31 28 26  6 23 22 21  3  9   -0.001030766
   1128571.224 9    881512.60348  20802596.088    20802597.5834   20802602.6574
     -1113.143        -867.384
 -17153788.707 9 -13338441.44147  22193921.354    22193922.7154   22193928.5824
      3576.083        2786.558
  -4228207.194 8  -3272628.82745  24372532.605    24372534.3284   24372539.3874
      3453.417        2690.974
  -3574793.295 9  -2774324.873 9  20445221.888    20445223.613    20445227.820
     -1173.621        -914.510
  11431010.989 9   8903752.90846  24420209.377    24420211.4074   24420216.4904
     -3081.350       -2401.052
  17243395.359 9  13426648.94046  24516325.887    24516328.0144   24516334.5634
     -3570.678       -2782.346
   -763837.650 9   -589111.83848  20656205.951    20656207.2864   20656211.8054
      -726.613        -566.192
   7725565.922 9   6017576.07945  24978607.841    24978608.9504   24978615.5454
     -1943.142       -1514.137
 -12172902.607 9  -9469175.96248  20817348.008    20817349.3614   20817354.4634
      1373.606        1070.342
 -17128776.870 9 -13324226.69048  21390252.962    21390254.7424   21390259.6264
      1830.366        1426.259
  -8184283.994 9  -6177034.52546  23890869.909    23890871.8204   23890877.2644
      1932.721        1506.016
 96 10 21 16 57 29.9980000  0 11 17  1 31 28 26  6 23 22 21  3  9   -0.001036648
   1162127.334 9    907660.19948  20808981.642    20808983.1134   20808988.1954
     -1123.581        -875.518
 -17260942.191 9 -13421937.63347  22173530.744    22173532.0434   22173537.9424
      3567.850        2780.143
  -4331675.130 8  -3353253.18845  24352843.324    24352844.9534   24352850.1964
      3444.709        2684.189
  -3539305.576 9  -2746672.125 9  20451975.000    20451976.722    20451980.932
     -1191.900        -928.753
  11523554.135 9   8975864.40746  24437819.748    24437821.8154   24437826.8914
     -3087.960       -2406.203
  17350508.755 9  13510113.87545  24536708.936    24536711.2104   24536717.6524
     -3570.014       -2781.829
   -741924.637 9   -572036.77248  20660375.885    20660377.2094   20660381.7054
      -734.109        -572.033
   7783870.764 9   6063008.39145  24989702.995    24989704.1314   24989710.3694
     -1943.648       -1514.531
 -12214004.268 9  -9501203.21948  20809526.626    20809527.9784   20809533.0934
      1366.934        1065.143
 -17183434.708 9 -13366817.21448  21379851.833    21379853.7004   21379858.6154
      1813.716        1413.285
  -8242110.637 9  -6222094.22746  23879865.990    23879867.7774   23879873.2274
      1922.653        1498.171
 96 10 21 16 57 59.9980000  0 11 17  1 31 28 26  6 23 22 21  3  9   -0.001042554
   1195999.762 9    934054.27048  20815427.320    20815428.8504   20815433.9284
     -1134.106        -883.719
 -17367841.742 9 -13505235.96647  22153188.262    22153189.7264   22153195.5914
      3559.105        2773.329
  -4434878.704 8  -3433671.55345  24333204.613    24333205.8964   24333211.3384
      3435.582        2677.077
  -3503262.542 9  -2718586.668 9  20458833.843    20458835.520    20458839.708
     -1210.624        -943.343
  11616299.862 9   9048133.76046  24455468.382    24455470.6724   24455475.9624
     -3094.619       -2411.391
  17457605.857 9  13593566.12745  24557088.945    24557091.2094   24557097.6764
     -3569.485       -2781.417
   -719768.108 9   -554771.95448  20664592.113    20664593.4804   20664597.9714
      -742.549        -578.610
   7842207.932 9   6108465.94145  25000804.149    25000804.9634   25000811.6804
     -1944.991       -1515.577
 -12254900.732 9  -9533070.59348  20801744.298    20801745.6484   20801750.7684
      1359.664        1059.478
 -17237580.773 9 -13409008.95748  21369548.251    21369550.0894   21369554.9674
      1796.268        1399.689
  -8299615.911 9  -6266903.50946  23868923.238    23868924.8714   23868930.3584
      1911.393        1489.397
 96 10 21 16 58 29.9980000  0 11 17  1 31 28 26  6 23 22 21  3  9   -0.001048476
   1230172.180 9    960682.10548  20821930.187    20821931.6514   20821936.7504
     -1143.498        -891.037
 -17474485.021 9 -13588334.59747  22132894.738    22132896.1964   22132902.0404
      3550.926        2766.955
  -4537813.264 8  -3513880.30845  24313616.889    24313618.2174   24313623.4814
      3427.270        2670.600
  -3466667.689 9  -2690071.223 9  20465797.652    20465799.323    20465803.506
     -1228.481        -957.258
  11709230.370 9   9120547.10046  24473152.076    24473154.7994   24473159.9994
     -3100.135       -2415.690
  17564683.473 9  13677003.17245  24577465.693    24577467.5034   24577473.8374
     -3568.588       -2780.718
   -697378.375 9   -537325.42448  20668852.756    20668854.1124   20668858.6224
      -749.338        -583.900
   7900569.784 9   6153942.69645  25011909.754    25011910.9594   25011917.9504
     -1945.155       -1515.705
 -12295576.389 9  -9564765.90448  20794003.941    20794005.3304   20794010.4494
      1352.445        1053.853
 -17291202.772 9 -13450792.34148  21359344.315    21359346.1434   21359351.0504
      1779.021        1386.250
  -8356790.548 9  -6311455.14446  23858043.355    23858044.7884   23858050.3564
      1900.729        1481.088
 96 10 21 16 58 59.9980000  0 11 17  1 31 28 26  6 23 22 21  3  9   -0.001054402
   1264646.259 9    987545.00048  20828490.405    20828491.8604   20828496.9804
     -1153.855        -899.108
 -17580864.266 9 -13671227.49347  22112651.407    22112652.9014   22112658.7044
      3542.086        2760.067
  -4640486.479 9  -3593885.40945  24294078.869    24294080.1394   24294085.4184
      3418.650        2663.883
  -3429516.322 9  -2661122.127 9  20472867.387    20472869.012    20472873.200
     -1247.198        -971.843
  11802338.416 9   9193098.75246  24490869.975    24490872.6844   24490877.8574
     -3105.976       -2420.241
  17671760.124 8  13760439.48545  24597841.923    24597843.5614   24597849.6994
     -3568.917       -2780.974
   -674772.523 9   -519710.48448  20673154.456    20673155.8644   20673160.3654
      -756.653        -589.600
   7958951.618 9   6199434.99545  25023019.537    25023020.8594   25023028.0004
     -1945.808       -1516.214
 -12336008.162 9  -9596271.17448  20786310.048    20786311.4034   20786316.5264
      1344.077        1047.333
 -17344284.210 9 -13492154.50548  21349243.203    21349245.0754   21349249.9884
      1760.522        1371.835
  -8413629.137 9  -6355744.90946  23847227.286    23847228.6754   23847234.3824
      1889.595        1472.412
 96 10 21 16 59 29.9980000  0 11 17  1 31 28 26  6 23 22 21  3  9   -0.001060330
   1299435.976 9   1014653.84648  20835110.729    20835112.1534   20835117.2534
     -1165.376        -908.085
 -17686984.427 9 -13753918.50047  22092457.506    22092458.8674   22092464.6824
      3532.648        2752.713
  -4742905.096 9  -3673692.12545  24274589.245    24274590.4864   24274595.7234
      3409.139        2656.472
  -3391808.469 9  -2631739.405 9  20480042.989    20480044.609    20480048.790
     -1266.517        -986.896
  11895616.075 8   9265782.57946  24508620.314    24508622.9584   24508628.0114
     -3112.237       -2425.120
  17778846.536 8  13843883.43445  24618220.146    24618221.2054   24618227.5524
     -3570.066       -2781.870
   -651954.402 9   -501930.13948  20677496.618    20677498.0094   20677502.5354
      -764.304        -595.562
   8017340.260 8   6244932.61345  25034130.981    25034131.8094   25034138.9554
     -1946.658       -1516.876
 -12376195.747 9  -9627586.16848  20778662.529    20778663.9574   20778669.0874
      1335.123        1040.356
 -17396801.017 9 -13533076.69948  21339249.661    21339251.4914   21339256.3974
      1740.727        1356.411
  -8470134.378 9  -6399774.92746  23836474.610    23836476.0914   23836481.8564
      1877.494        1462.982
 96 10 21 16 59 59.9980000  0 11 17  1 31 28 26  6 23 22 21  3  9   -0.001066246
   1334561.444 9   1042024.31948  20841794.881    20841796.3124   20841801.4184
     -1176.653        -916.872
 -17792826.043 9 -13836392.46647  22072316.465    22072317.8634   22072323.6494
      3523.052        2745.235
  -4845049.481 9  -3753285.17845  24255151.801    24255152.9814   24255158.3414
      3399.836        2649.223
  -3353539.370 9  -2601919.350 9  20487325.358    20487326.994    20487331.187
     -1285.141       -1001.409
  11989047.965 9   9338586.60346  24526400.212    24526402.5824   24526407.4184
     -3116.968       -2428.806
  17885951.466 8  13927341.76045  24638601.954    24638602.5464   24638608.5984
     -3570.594       -2782.281
   -628941.564 9   -483998.06948  20681875.818    20681877.2124   20681881.7324
      -770.134        -600.104
   8075728.763 8   6290430.07645  25045241.748    25045243.1014   25045250.0524
     -1946.305       -1516.601
 -12416111.061 9  -9658689.00348  20771066.915    20771068.3184   20771073.4544
      1325.424        1032.798
 -17448735.006 9 -13573544.74348  21329366.882    21329368.7904   21329373.6734
      1721.228        1341.217
  -8526290.308 9  -6443532.75446  23825788.221    23825790.0164   23825795.7104
      1865.911        1453.957
 96 10 21 17  0 29.9980000  0 11 17  1 31 28 26  6 23 22 21  3  9   -0.001072073
   1370019.266 9   1069653.76648  20848542.322    20848543.7554   20848548.8674
     -1187.750        -925.519
 -17898392.343 9 -13918651.89747  22052227.804    22052229.2524   22052235.0254
      3514.305        2738.419
  -4946921.314 9  -3832665.82445  24235766.424    24235767.4534   24235772.5934
      3391.208        2642.500
  -3314724.817 9  -2571674.266 9  20494711.482    20494713.177    20494717.379
     -1302.954       -1015.289
  12082615.609 9   9411496.40346  24544205.802    24544207.8684   24544212.8024
     -3121.277       -2432.164
  17993061.494 8  14010804.13245  24658984.250    24658984.8624   24658990.9994
     -3570.447       -2782.166
   -605776.446 9   -465947.33948  20686284.002    20686285.3614   20686289.9104
      -774.705        -603.666
   8134086.700 8   6335903.74145  25056347.007    25056348.3014   25056355.3294
     -1944.868       -1515.482
 -12455753.048 9  -9689578.85748  20763523.266    20763524.6874   20763529.8084
      1317.078        1026.294
 -17500093.861 9 -13613564.63648  21319593.669    21319595.5304   21319600.4114
      1702.311        1326.476
  -8582113.749 9  -6487031.50546  23815165.377    23815167.1774   23815172.8424
      1855.140        1445.564
 96 10 21 17  0 59.9980000  0 10 17  1 31 28 26  6 23 21  3  9      -0.001077967
   1405831.361 9   1097559.27048  20855357.090    20855358.5984   20855363.6804
     -1199.834        -934.936
 -18003683.477 9 -14000696.91747  22032191.568    22032193.0244   22032198.7574
      3504.939        2731.121
  -5048518.924 9  -3911832.81245  24216432.997    24216434.1414   24216439.0854
      3381.800        2635.169
  -3275363.185 9  -2541002.887 9  20502201.784    20502203.457    20502207.682
     -1321.282       -1029.570
  12176318.874 9   9484511.89646  24562037.204    24562039.0654   24562043.8994
     -3125.749       -2435.649
  18100173.115 8  14094267.73545  24679366.662    24679367.2124   24679373.7004
     -3570.368       -2782.105
   -582453.135 9   -447773.33948  20690722.188    20690723.6294   20690728.1874
      -780.519        -608.197
 -12495136.882 9  -9720267.55648  20756028.824    20756030.2034   20756035.3334
      1308.355        1019.497
 -17550877.140 9 -13653136.03348  21309929.899    21309931.8074   21309936.6724
      1683.061        1311.476
  -8637597.986 9  -6530265.94546  23804606.975    23804608.9064   23804614.4934
      1843.566        1436.545
 96 10 21 17  1 29.9980000  0 10 17  1 31 28 26  6 23 21  3  9      -0.001083856
   1441994.896 9   1125738.62648  20862238.791    20862240.3314   20862245.3984
     -1211.240        -943.823
 -18108692.585 9 -14082522.18347  22012209.007    22012210.4554   22012216.1484
      3495.384        2723.676
  -5149841.611 9  -3990785.56745  24197151.669    24197153.0074   24197157.9584
      3372.530        2627.945
  -3235459.877 9  -2509909.425 9  20509795.126    20509796.823    20509801.061
     -1339.259       -1043.578
  12270153.916 9   9557630.05146  24579893.679    24579895.3314   24579900.0404
     -3130.216       -2439.129
  18207270.262 8  14177720.01545  24699746.440    24699747.6864   24699753.5274
     -3569.872       -2781.718
   -558961.428 9   -429468.12348  20695192.528    20695193.9584   20695198.5004
      -785.957        -612.434
 -12534272.776 9  -9750763.05448  20748581.461    20748582.8694   20748588.0314
      1300.331        1013.245
 -17601094.282 9 -13692266.28148  21300373.837    21300375.8014   21300380.6854
      1664.604        1297.094
  -8692733.038 9  -6573228.29247  23794114.930    23794117.0774   23794122.6744
      1831.755        1427.341
 96 10 21 17  1 59.9980000  0 10 17  1 31 28 26  6 23 21  3  9      -0.001089733
   1478504.943 9   1154187.99248  20869186.457    20869187.9804   20869193.0534
     -1223.182        -953.129
 -18213411.538 9 -14164121.34347  21992281.714    21992283.1304   21992288.7684
      3485.590        2716.044
  -5250867.677 9  -4069507.20045  24177927.111    24177928.3654   24177933.1804
      3362.199        2619.895
  -3195003.616 9  -2478385.086 9  20517493.680    20517495.396    20517499.651
     -1358.218       -1058.352
  12364145.352 9   9630870.08746  24597779.866    24597781.4354   24597786.0484
     -3136.452       -2443.988
  18314365.590 7  14261170.86145  24720125.766    24720127.4624   24720133.5114
     -3570.205       -2781.978
   -535289.284 9   -411022.30748  20699697.215    20699698.6174   20699703.1644
      -792.716        -617.701
 -12573151.107 9  -9781057.85548  20741183.185    20741184.5634   20741189.7254
      1291.360        1006.255
 -17650752.073 9 -13730960.67048  21290924.438    21290926.2374   21290931.0984
      1645.549        1282.246
  -8747497.728 9  -6615902.05147  23783693.512    23783695.6514   23783701.3414
      1818.715        1417.181
 96 10 21 17  2 29.9980000  0  9 17  1 31 28 26 23 21  3  9         -0.001095613
   1515354.052 9   1182901.55248  20876198.665    20876200.1774   20876205.2294
     -1233.655        -961.290
 -18317863.433 9 -14245512.42347  21972405.284    21972406.5764   21972412.1834
      3477.536        2709.768
  -5351614.609 9  -4148011.31745  24158755.638    24158756.9354   24158761.5914
      3354.058        2613.552
  -3154000.541 9  -2446434.664 9  20525296.328    20525298.036    20525302.280
     -1375.559       -1071.864
  12458308.406 9   9704243.84446  24615698.171    24615700.0704   24615704.6944
     -3141.296       -2447.763
   -511418.427 9   -392421.65448  20704239.700    20704241.1174   20704245.6644
      -798.969        -622.573
 -12611799.500 9  -9811173.48748  20733828.665    20733830.0334   20733835.1844
      1284.958        1001.266
 -17699857.227 9 -13769224.43948  21281579.965    21281581.8554   21281586.7134
      1627.871        1268.471
  -8801887.351 9  -6658283.54947  23773343.826    23773345.7364   23773351.3144
      1807.006        1408.057
 96 10 21 17  2 59.9980000  0  9 17  1 31 28 26 23 21  3  9         -0.001101513
   1552524.228 9   1211865.30148  20883272.040    20883273.4914   20883278.5254
     -1244.314        -969.595
 -18422047.674 9 -14326694.92847  21952579.674    21952580.9524   21952586.5894
      3467.939        2702.290
  -5452102.340 9  -4226313.44745  24139633.585    24139634.7954   24139639.4604
      3344.874        2606.395
  -3112458.481 9  -2414064.246 9  20533201.546    20533203.252    20533207.486
     -1393.912       -1086.165
  12552636.855 9   9777746.48546  24633648.311    24633650.1174   24633654.9434
     -3147.355       -2452.484
   -487335.075 9   -373655.41548  20708822.645    20708824.0554   20708828.5744
      -806.560        -628.488
 -12650230.345 9  -9841119.59548  20726515.564    20726516.8824   20726522.0454
      1276.999         995.064
 -17748422.942 9 -13807067.85948  21272338.358    21272340.1114   21272344.9544
      1609.713        1254.322
  -8855912.275 9  -6700380.87847  23763063.428    23763065.1344   23763070.7544
      1794.660        1398.436
 96 10 21 17  3 29.9980000  0  9 17  1 31 28 26 23 21  3  9         -0.001107435
   1589995.117 9   1241063.37448  20890402.505    20890403.9874   20890409.0064
     -1254.322        -977.394
 -18525953.729 9 -14407660.67247  21932806.837    21932808.2764   21932813.9594
      3458.614        2695.024
  -5552323.696 9  -4304408.02045  24120561.957    24120563.2974   24120568.1414
      3335.723        2599.265
  -3070378.995 9  -2381275.055 9  20541209.053    20541210.729    20541214.967
     -1411.848       -1100.141
  12647139.080 9   9851384.52546  24651631.609    24651633.3754   24651638.1434
     -3153.192       -2457.033
   -463043.602 9   -354727.00848  20713445.053    20713446.5514   20713451.0994
      -813.264        -633.712
 -12688437.866 9  -9870891.69248  20719244.917    20719246.2364   20719251.3734
      1269.681         989.362
 -17796451.514 9 -13844492.73448  21263198.735    21263200.5874   21263205.4224
      1591.618        1240.222
  -8909578.473 9  -6742198.67747  23752851.049    23752852.7764   23752858.4614
      1782.676        1389.098
 96 10 21 17  3 59.9980000  0  9 17  1 31 28 26 23 21  3  9         -0.001113360
   1627789.006 9   1270513.13948  20897594.463    20897595.9154   20897600.9424
     -1265.308        -985.954
 -18629567.815 9 -14488398.89848  21913089.726    21913091.1424   21913096.8784
      3448.786        2687.366
  -5652247.020 9  -4382270.34945  24101547.175    24101548.5834   24101553.3824
      3325.880        2591.595
  -3027749.363 9  -2348057.181 9  20549321.203    20549322.888    20549327.143
     -1430.118       -1114.378
  12741819.046 9   9925161.05246  24669649.056    24669650.4194   24669655.2094
     -3158.618       -2461.261
   -438539.824 9   -335633.16648  20718108.075    20718109.4574   20718114.0154
      -820.306        -639.199
 -12726409.538 9  -9900480.00448  20712019.167    20712020.4724   20712025.5894
      1261.824         983.239
 -17843913.262 9 -13881475.92548  21254167.042    21254168.9304   21254173.7654
      1572.427        1225.268
  -8962877.471 9  -6783730.35447  23742708.725    23742710.3424   23742716.0224
      1770.468        1379.585
 96 10 21 17  4 29.9980000  0  9 17  1 31 28 26 23 21  3  9         -0.001119291
   1665899.062 9   1300209.26748  20904846.560    20904848.0284   20904853.0294
     -1275.309        -993.747
 -18732882.116 9 -14568903.53047  21893429.712    21893431.0734   21893436.8124
      3438.701        2679.507
  -5751891.843 9  -4459915.66846  24082585.514    24082586.9384   24082591.5744
      3316.784        2584.507
  -2984587.078 9  -2314424.252 9  20557534.719    20557536.396    20557540.683
     -1447.536       -1127.950
  12836638.465 8   9999046.26146  24687692.320    24687694.0034   24687698.8034
     -3162.635       -2464.391
   -413837.636 9   -316384.72148  20722808.680    20722810.1564   20722814.7154
      -826.467        -644.000
 -12764160.166 9  -9929896.07748  20704835.462    20704836.7624   20704841.8884
      1254.536         977.561
 -17890802.218 9 -13918012.78548  21245244.329    21245246.2554   21245251.1054
      1553.531        1210.544
  -9015822.019 9  -6824985.83447  23732633.736    23732635.3124   23732641.0244
      1759.181        1370.790
 96 10 21 17  4 59.9980000  0  9 17  1 31 28 26 23 21  3  9         -0.001125220
   1704320.814 9   1330148.27348  20912158.009    20912159.4444   20912164.4734
     -1286.133       -1002.182
 -18835874.983 9 -14649157.68848  21873830.787    21873832.1954   21873837.9374
      3427.541        2670.811
  -5851236.871 9  -4537327.36746  24063680.653    24063682.2104   24063686.9564
      3306.036        2576.132
  -2940886.110 9  -2280371.575 9  20565850.690    20565852.431    20565856.726
     -1465.785       -1142.170
  12931585.304 8  10073030.74946  24705759.948    24705761.7574   24705766.6454
     -3166.894       -2467.710
   -388950.616 9   -296992.25248  20727544.727    20727545.9904   20727550.5414
      -832.554        -648.743
 -12801662.291 9  -9959118.51448  20697699.053    20697700.3764   20697705.5044
      1245.704         970.678
 -17937112.446 9 -13954098.68648  21236431.934    21236433.6864   21236438.5674
      1533.757        1195.135
  -9068414.937 9  -6865967.31547  23722625.531    23722627.2004   23722632.9074
      1746.982        1361.285
 96 10 21 17  5 29.9980000  0  9 17  1 31 28 26 23 21  3  9         -0.001131132
   1743063.295 9   1360337.20148  20919530.475    20919531.8984   20919536.9484
     -1297.110       -1010.735
 -18938544.995 9 -14729160.27548  21854293.256    21854294.7334   21854300.4794
      3416.824        2662.460
  -5950264.632 9  -4614491.85546  24044836.027    24044837.8064   24044842.7014
      3295.442        2567.877
  -2896648.959 9  -2245901.087 9  20574268.774    20574270.484    20574274.808
     -1483.599       -1156.051
  13026641.204 8  10147100.22046  24723848.243    24723850.2474   24723855.3164
     -3170.483       -2470.506
   -363899.987 9   -277472.29448  20732311.567    20732312.9614   20732317.5004
      -837.951        -652.949
 -12838914.263 9  -9988146.02548  20690610.207    20690611.5684   20690616.6924
      1237.462         964.256
 -17982831.124 9 -13989723.64548  21227731.871    21227733.7284   21227738.5854
      1513.853        1179.626
  -9120644.863 9  -6906665.94047  23712686.602    23712688.1754   23712693.8894
      1734.680        1351.699
 96 10 21 17  5 59.9980000  0  9 17  1 31 28 26 23 21  3  9         -0.001137037
   1782133.523 9   1390781.51448  20926965.327    20926966.7634   20926971.7794
     -1307.775       -1019.045
 -19040904.888 9 -14808921.20248  21834814.853    21834816.2794   21834822.0354
      3406.817        2654.662
  -6048989.868 9  -4691420.62046  24026049.304    24026051.0054   24026055.8334
      3285.754        2560.328
  -2851887.155 9  -2211021.780 9  20582786.668    20582788.370    20582792.719
     -1500.878       -1169.515
  13121795.161 8  10221246.09246  24741955.324    24741957.4284   24741962.4064
     -3173.672       -2472.991
   -338680.840 9   -257821.02448  20737110.664    20737112.0154   20737116.5684
      -843.715        -657.440
 -12875922.567 9 -10016983.66148  20683567.769    20683569.1374   20683574.2704
      1229.409         957.981
 -18027962.711 9 -14024891.12648  21219143.642    21219145.4824   21219150.3204
      1494.623        1164.641
  -9172509.773 9  -6947080.14647  23702817.024    23702818.6244   23702824.2974
      1722.497        1342.205
 96 10 21 17  6 29.9980000  0  9 17  1 31 28 26 23 21  3  9         -0.001142943
   1821519.507 9   1421471.86948  20934460.219    20934461.6844   20934466.6794
     -1317.749       -1026.817
 -19142958.240 9 -14888443.27648  21815394.688    21815396.1414   21815401.8684
      3397.079        2647.075
  -6147415.105 9  -4768115.60046  24007319.579    24007321.1744   24007326.2314
      3275.937        2552.678
  -2806602.046 9  -2175734.708 9  20591404.178    20591405.848    20591410.222
     -1517.927       -1182.800
  13217059.838 8  10295478.24346  24760083.993    24760085.7664   24760090.8164
     -3177.053       -2475.626
   -313284.522 9   -238031.69848  20741943.365    20741944.7874   20741949.3744
      -849.126        -661.657
 -12912684.657 9 -10045629.44848  20676572.221    20676573.5604   20676578.6584
      1221.550         951.857
 -18072516.880 9 -14059608.67148  21210665.289    21210667.1094   21210671.9924
      1475.992        1150.124
  -9223999.548 9  -6987202.03347  23693018.574    23693020.4544   23693026.0464
      1710.394        1332.774
 96 10 21 17  6 59.9980000  0  9 17  1 31 28 26 23 21  3  9         -0.001148848
   1861231.279 9   1452416.08948  20942017.132    20942018.6284   20942023.6174
     -1329.417       -1035.909
 -19244711.804 9 -14967731.73748  21796031.589    21796033.0674   21796038.7964
      3386.840        2639.096
  -6245518.978 9  -4844560.17246  23988651.017    23988652.6504   23988657.7414
      3264.721        2543.938
  -2760790.317 9  -2140037.275 9  20600121.843    20600123.527    20600127.930
     -1535.788       -1196.718
  13312440.539 8  10369800.80946  24778234.707    24778236.1294   24778241.2664
     -3181.413       -2479.023
   -287711.524 9   -218104.69648  20746809.817    20746811.1574   20746815.7684
      -855.490        -666.615
 -12949192.710 9 -10074077.28148  20669624.954    20669626.3074   20669631.3724
      1212.939         945.147
 -18116502.010 9 -14093882.80348  21202295.135    21202297.0174   21202301.9234
      1456.724        1135.110
  -9275101.944 9  -7027022.07146  23683294.138    23683295.9924   23683301.5214
      1696.700        1322.104
 96 10 21 17  7 29.9980000  0  9 17  1 31 28 26 23 21  3  9         -0.001154746
   1901292.072 9   1483632.26948  20949640.497    20949641.9734   20949646.9744
     -1341.126       -1045.033
 -19346166.286 9 -15046787.16048  21776725.457    21776726.9234   21776732.6304
      3377.075        2631.487
  -6343296.072 9  -4920750.10346  23970044.930    23970046.4584   23970051.2944
      3253.916        2535.519
  -2714448.716 9  -2103926.962 9  20608940.365    20608942.053    20608946.469
     -1553.427       -1210.463
  13407963.785 8  10444234.45946  24796411.849    24796413.7304   24796418.7624
     -3186.594       -2483.060
   -261938.006 9   -198021.44948  20751714.263    20751715.6994   20751720.3314
      -862.569        -672.132
 -12985461.338 9 -10102338.54748  20662723.270    20662724.6254   20662729.6604
      1205.136         939.067
 -18159914.621 9 -14127710.82148  21194033.946    21194035.8684   21194040.7804
      1437.849        1120.402
  -9325791.493 9  -7066520.40246  23673648.334    23673650.0674   23673655.5164
      1682.857        1311.317
 96 10 21 17  7 59.9980000  0  9 17  1 31 28 26 23 21  3  9         -0.001160656
   1941694.537 9   1515114.69148  20957328.817    20957330.3404   20957335.3264
     -1352.317       -1053.754
 -19447338.198 9 -15125622.38948  21757473.077    21757474.5564   21757480.2724
      3367.585        2624.092
  -6440758.327 9  -4996694.69546  23951498.304    23951500.0524   23951504.9354
      3243.205        2527.173
  -2667586.722 9  -2067411.145 9  20617857.952    20617859.612    20617864.022
     -1570.728       -1223.944
  13503632.041 9  10518781.08846  24814616.869    24814618.8744   24814623.9104
     -3191.282       -2486.713
   -235954.943 9   -177774.91748  20756658.847    20756660.1154   20756664.7464
      -869.419        -677.469
 -13021506.893 9 -10130425.99548  20655864.061    20655865.3924   20655870.4204
      1197.902         933.430
 -18202781.587 9 -14161113.66148  21185876.635    21185878.5804   21185883.4614
      1419.901        1106.416
  -9376071.604 9  -7105699.69046  23664080.459    23664082.0894   23664087.5664
      1669.175        1300.656
 96 10 21 17  8 29.9980000  0  9 17  1 31 28 26 23 21  3  9         -0.001166556
   1982450.535 9   1546872.58448  20965084.465    20965085.9984   20965090.9394
     -1364.579       -1063.308
 -19548198.464 9 -15204214.77948  21738280.030    21738281.5004   21738287.2044
      3356.646        2615.568
  -6537873.675 9  -5072368.97946  23933017.674    23933019.5374   23933024.5084
      3231.317        2517.909
  -2620191.533 9  -2030479.850 9  20626876.923    20626878.620    20626883.049
     -1588.707       -1237.954
  13599448.184 9  10593442.96846  24832849.932    24832852.1824   24832857.1134
     -3196.177       -2490.528
   -209768.931 9   -157370.24548  20761641.777    20761643.1514   20761647.7804
      -876.170        -682.730
 -13057319.444 9 -10158331.88548  20649049.145    20649050.4804   20649055.4964
      1189.820         927.132
 -18245095.999 9 -14194085.93648  21177824.485    21177826.4004   21177831.2774
      1401.154        1091.808
  -9425935.128 9  -7144554.37546  23654591.717    23654593.3154   23654598.9024
      1655.315        1289.856
 96 10 21 17  8 59.9980000  0  9 17  1 31 28 26 23 21  3  9         -0.001172454
   2023559.424 9   1578905.46648  20972907.362    20972908.7884   20972913.7314
     -1376.430       -1072.543
 -19648748.679 9 -15282565.56648  21719146.019    21719147.4604   21719153.1344
      3346.108        2607.357
  -6634657.755 9  -5147785.12346  23914600.412    23914602.1234   23914607.1374
      3220.394        2509.398
  -2572277.096 9  -1993143.944 9  20635994.663    20635996.419    20636000.898
     -1606.069       -1251.482
  13695403.220 8  10668213.06845  24851109.724    24851111.8664   24851116.9084
     -3201.311       -2494.528
   -183396.355 9   -136820.19748  20766660.312    20766661.6974   20766666.2964
      -882.435        -687.612
 -13092909.739 9 -10186064.57948  20642276.539    20642277.8774   20642282.9004
      1182.446         921.386
 -18286863.519 9 -14226632.06448  21169876.458    21169878.3394   21169883.1874
      1382.707        1077.434
  -9475402.629 9  -7183100.46146  23645178.448    23645179.9354   23645185.4844
      1642.105        1279.562
 96 10 21 17  9 29.9980000  0  9 17  1 31 28 26 23 21  3  9         -0.001178354
   2065008.498 9   1611203.42148  20980794.862    20980796.3014   20980801.2474
     -1386.411       -1080.320
 -19748972.920 9 -15360662.35648  21700073.865    21700075.4154   21700081.0524
      3335.899        2599.402
  -6731119.147 9  -5222949.82346  23896244.269    23896246.1404   23896251.1784
      3210.593        2501.761
  -2523846.854 9  -1955406.123 9  20645210.632    20645212.403    20645216.889
     -1622.250       -1264.091
  13791501.964 8  10743095.14945  24869396.785    24869398.9724   24869403.9674
     -3204.677       -2497.151
   -156846.001 9   -116131.62448  20771712.756    20771714.0834   20771718.6584
      -887.118        -691.261
 -13128282.234 9 -10213627.56448  20635545.330    20635546.7124   20635551.7354
      1175.957         916.330
 -18328072.560 9 -14258743.01248  21162034.697    21162036.5344   21162041.3934
      1364.806        1063.485
  -9524487.667 9  -7221348.54146  23635837.609    23635839.3494   23635844.8314
      1630.745        1270.710
 96 10 21 17  9 59.9980000  0  9 17  1 31 28 26 23 21  3  9         -0.001184256
   2106776.556 9   1643749.94348  20988743.031    20988744.4924   20988749.4724
     -1397.734       -1089.143
 -19848866.337 9 -15438501.35548  21681064.882    21681066.2984   21681071.9454
      3324.004        2590.133
  -6827257.967 9  -5297863.18246  23877949.873    23877951.4894   23877956.5984
      3198.957        2492.694
  -2474912.146 9  -1917275.204 9  20654522.619    20654524.369    20654528.903
     -1639.703       -1277.691
  13887712.996 9  10818064.73045  24887704.790    24887707.3294   24887712.3994
     -3209.020       -2500.535
   -130144.015 9    -95324.89448  20776793.888    20776795.3264   20776799.8984
      -892.608        -695.539
 -13163433.917 9 -10241018.48848  20628856.211    20628857.5834   20628862.5684
      1167.800         909.974
 -18368716.172 9 -14290413.37048  21154300.399    21154302.2974   21154307.1814
      1344.908        1047.980
  -9573221.683 9  -7259323.08746  23626563.799    23626565.5474   23626571.0024
      1618.610        1261.255
 96 10 21 17 10 29.9980000  0  9 17  1 31 28 26 23 21  3  9         -0.001190159
   2148873.001 9   1676552.34648  20996753.673    20996755.1704   20996760.1534
     -1408.339       -1097.407
 -19948413.504 9 -15516070.54948  21662121.634    21662123.0904   21662128.7344
      3312.942        2581.513
  -6923064.360 9  -5372517.49746  23859718.411    23859720.1074   23859725.3294
      3188.595        2484.619
  -2425465.835 9  -1878745.631 9  20663931.905    20663933.705    20663938.246
     -1656.306       -1290.628
  13984042.303 9  10893126.45245  24906035.900    24906038.3204   24906043.3754
     -3212.471       -2503.224
   -103292.932 9    -74401.98148  20781903.502    20781904.9044   20781909.4924
      -897.233        -699.143
 -13198342.255 9 -10268219.78948  20622213.358    20622214.7514   20622219.7464
      1159.764         903.712
 -18408761.444 9 -14321617.48548  21146680.064    21146681.9674   21146686.8584
      1325.179        1032.607
  -9621610.097 9  -7297028.32546  23617355.814    23617357.4174   23617362.8524
      1607.491        1252.590
 96 10 21 17 10 59.9980000  0  9 17  1 31 28 26 23 21  3  9         -0.001196074
   2191294.658 9   1709608.16248  21004826.241    21004827.7624   21004832.7604
     -1419.998       -1106.492
 -20047622.223 9 -15593376.02248  21643242.786    21643244.2394   21643249.9154
      3300.811        2572.061
  -7018556.957 9  -5446927.30946  23841546.919    23841548.4434   23841553.7134
      3177.243        2475.774
  -2375509.992 9  -1839819.027 9  20673438.171    20673440.000    20673444.559
     -1674.224       -1304.590
  14080485.630 9  10968277.04145  24924388.818    24924390.9154   24924396.0354
     -3216.948       -2506.713
    -76286.253 9    -53357.83048  20787042.915    20787044.1144   20787048.6884
      -903.313        -703.880
 -13233002.149 9 -10295227.49548  20615617.798    20615619.1924   20615624.1924
      1150.688         896.640
 -18448201.807 9 -14352350.24648  21139174.801    21139176.7124   21139181.6364
      1304.038        1016.134
  -9669644.003 9  -7334457.32046  23608215.206    23608216.8444   23608222.1834
      1594.574        1242.525
 96 10 21 17 11 29.9980000  0  9 17  1 31 28 26 23 21  3  9         -0.001201993
   2234044.928 9   1742920.04348  21012961.433    21012962.9124   21012967.8904
     -1430.959       -1115.033
 -20146485.957 9 -15670412.67848  21624429.645    21624431.0644   21624436.7514
      3289.328        2563.113
  -7113717.503 9  -5521078.36246  23823438.243    23823439.9404   23823445.4294
      3165.894        2466.930
  -2325037.504 9  -1800489.840 9  20683042.806    20683044.626    20683049.162
     -1691.453       -1318.015
  14177024.997 9  11043502.45145  24942760.145    24942761.6474   24942767.0184
     -3219.868       -2508.988
    -49113.427 9    -32184.21248  20792213.686    20792214.9854   20792219.5274
      -909.155        -708.432
 -13267407.362 9 -10322036.75248  20609070.669    20609072.0854   20609077.0774
      1142.280         890.088
 -18487027.604 9 -14382604.12548  21131786.483    21131788.4154   21131793.3424
      1283.526        1000.150
  -9717307.672 9  -7371597.82846  23599145.148    23599146.6684   23599151.8264
      1582.037        1232.756
 96 10 21 17 11 59.9980000  0  9 17  1 31 28 26 23 21  3  9         -0.001207923
   2277121.586 9   1776486.25448  21021158.600    21021160.1234   21021165.1334
     -1441.580       -1123.309
 -20245018.712 9 -15747191.42848  21605679.446    21605680.8964   21605686.5514
      3278.691        2554.824
  -7208551.686 9  -5594975.12046  23805391.989    23805393.6084   23805399.1044
      3155.617        2458.922
  -2274057.965 9  -1760765.549 9  20692743.868    20692745.737    20692750.283
     -1707.931       -1330.855
  14273642.910 9  11118789.07045  24961145.958    24961147.3794   24961152.7874
     -3222.159       -2510.773
    -21767.147 9    -10875.43048  20797417.446    20797418.8264   20797423.3494
      -914.680        -712.738
 -13301573.566 9 -10348659.76448  20602569.095    20602570.4714   20602575.4534
      1134.661         884.151
 -18525249.486 9 -14412387.41648  21124513.164    21124515.0894   21124519.9744
      1263.915         984.869
  -9764592.497 9  -7408443.12546  23590147.020    23590148.6594   23590153.6214
      1569.308        1222.837
 96 10 21 17 12 29.9980000  0  9 17  1 31 28 26 23 21  3  9         -0.001213868
   2320516.723 9   1810300.62648  21029416.273    21029417.9214   21029422.9804
     -1451.592       -1131.111
 -20343224.237 9 -15823715.19348  21586991.541    21586992.9964   21586998.6364
      3268.077        2546.553
  -7303074.507 9  -5668629.26046  23787404.961    23787406.5324   23787411.9724
      3145.584        2451.104
  -2222578.144 9  -1720651.425 9  20702540.193    20702542.046    20702546.593
     -1724.216       -1343.545
  14370333.070 8  11194131.99245  24979545.534    24979547.0804   24979552.5634
     -3224.065       -2512.258
      5750.026 9     10566.51348  20802653.726    20802655.1814   20802659.6764
      -919.956        -716.849
 -13335502.870 9 -10375098.18348  20596112.576    20596113.9404   20596118.9164
      1127.197         878.335
 -18562882.635 9 -14441711.95648  21117351.879    21117353.7324   21117358.6384
      1244.835         970.001
  -9811477.413 9  -7444976.79946  23581224.928    23581226.8044   23581231.7934
      1555.950        1212.428
 96 10 21 17 12 59.9980000  0  9 17  1 31 28 26 23 21  3  9         -0.001219813
   2364228.053 9   1844361.38348  21037734.271    21037735.9104   21037740.9624
     -1462.223       -1139.395
 -20441087.763 9 -15899972.46748  21568368.772    21568370.1584   21568375.8084
      3256.465        2537.505
  -7397272.961 9  -5742030.64346  23769479.727    23769481.1874   23769486.6294
      3134.236        2442.262
  -2170591.779 9  -1680142.597 9  20712432.947    20712434.761    20712439.307
     -1741.288       -1356.848
  14467099.727 8  11269534.52245  24997959.614    24997961.1674   24997966.5684
     -3226.887       -2514.457
     33448.916 9     32150.05248  20807924.715    20807926.1124   20807930.6054
      -926.358        -721.837
 -13369199.241 9 -10401355.10048  20589700.315    20589701.7314   20589706.7004
      1119.451         872.299
 -18599926.166 9 -14470577.05948  21110302.770    21110304.6124   21110309.4924
      1224.942         954.500
  -9857930.977 9  -7481174.35346  23572385.186    23572386.9504   23572392.0644
      1541.256        1200.979
 96 10 21 17 13 29.9980000  0  9 17  1 31 28 26 23 21  3  9         -0.001225753
   2408246.334 9   1878661.32348  21046110.786    21046112.3514   21046117.4014
     -1471.870       -1146.912
 -20538614.598 9 -15975967.38548  21549810.019    21549811.3754   21549817.0144
      3245.712        2529.126
  -7491127.361 9  -5815163.94046  23751619.891    23751621.3574   23751626.7164
      3123.191        2433.655
  -2118104.148 9  -1639243.174 9  20722421.046    20722422.847    20722427.408
     -1757.426       -1369.423
  14563951.137 8  11345003.08645  25016390.231    25016391.4524   25016396.9864
     -3229.516       -2516.506
     61332.673 9     53877.64148  20813230.820    20813232.2394   20813236.7054
      -932.039        -726.264
 -13402667.129 9 -10427433.97748  20583331.571    20583332.9964   20583337.9654
      1112.271         866.705
 -18636375.907 9 -14498979.46748  21103366.662    21103368.5064   21103373.3594
      1205.451         939.312
  -9903950.130 9  -7517033.39946  23563627.960    23563629.8034   23563634.9544
      1527.011        1189.879
 96 10 21 17 13 59.9980000  0  9 17  1 31 28 26 23 21  3  9         -0.001231691
   2452565.404 9   1913195.63848  21054544.410    21054546.0024   21054551.0734
     -1482.649       -1155.311
 -20635813.272 9 -16051706.59348  21531313.568    21531315.0354   21531320.6774
      3234.328        2520.256
  -7584649.050 9  -5888037.98046  23733823.218    23733824.7374   23733830.0864
      3111.611        2424.632
  -2065129.478 9  -1597964.239 9  20732501.812    20732503.612    20732508.179
     -1774.111       -1382.424
  14660892.467 8  11420541.75045  25034837.469    25034838.6954   25034844.6154
     -3233.047       -2519.257
     89383.383 9     75735.32848  20818568.469    20818570.1124   20818574.5954
      -937.837        -730.782
 -13435912.770 9 -10453339.67348  20577005.143    20577006.5774   20577011.5054
      1104.031         860.284
 -18672237.255 9 -14526923.38848  21096542.426    21096544.3154   21096549.1364
      1185.380         923.673
  -9949533.108 9  -7552552.56946  23554953.887    23554955.5874   23554960.7654
      1511.981        1178.167
 96 10 21 17 14 29.9980000  0  9 17  1 31 28 26 23 21  3  9         -0.001237626
   2497199.601 9   1947975.51948  21063038.087    21063039.5994   21063044.6844
     -1493.305       -1163.614
 -20732686.001 9 -16127191.82048  21512879.306    21512880.7504   21512886.4184
      3223.520        2511.834
  -7677821.128 9  -5960639.58846  23716093.267    23716094.6984   23716100.0434
      3099.481        2415.180
  -2011662.726 9  -1556301.863 9  20742676.264    20742678.021    20742682.580
     -1790.592       -1395.266
  14757930.581 8  11496155.81845  25053303.188    25053304.4334   25053310.3374
     -3236.483       -2521.935
    117593.872 9     97717.51848  20823936.735    20823938.4184   20823942.9144
      -943.129        -734.906
 -13468918.796 9 -10479058.65248  20570724.290    20570725.7194   20570730.6614
      1096.293         854.254
 -18707507.170 9 -14554406.45148  21089830.723    21089832.6704   21089837.5114
      1165.635         908.287
  -9994680.845 9  -7587732.58546  23546362.562    23546364.2204   23546369.3994
      1497.639        1166.991
 96 10 21 17 14 59.9980000  0  8 17  1 31 28 23 21  3  9            -0.001243541
   2542179.762 9   1983024.97248  21071597.618    21071599.0984   21071604.1464
     -1505.154       -1172.847
 -20829223.286 9 -16202415.66348  21494508.761    21494510.3264   21494516.0224
      3212.488        2503.237
  -7770604.338 9  -6032938.19846  23698437.331    23698438.6974   23698443.9794
      3086.236        2404.859
  -1957690.561 9  -1514245.660 9  20752946.879    20752948.621    20752953.168
     -1807.340       -1408.317
    145977.726 9    119834.79148  20829338.011    20829339.7314   20829344.2074
      -948.854        -739.367
 -13501690.164 9 -10504594.78948  20564488.126    20564489.5534   20564494.4904
      1088.519         848.197
 -18742171.931 9 -14581417.96948  21083234.234    21083236.1914   21083241.0354
      1145.641         892.707
 -10039389.629 9  -7622570.56946  23537854.355    23537856.3734   23537861.7484
      1483.238        1155.770
 96 10 21 17 15 29.9980000  0  8 17  1 31 28 23 21  3  9            -0.001249438
   2587520.897 9   2018355.71048  21080225.745    21080227.2454   21080232.3304
     -1517.743       -1182.657
 -20925425.303 9 -16277378.25548  21476202.137    21476203.6884   21476209.4024
      3200.611        2493.983
  -7862993.855 9  -6104930.02346  23680856.048    23680857.5254   23680862.8764
      3073.013        2394.555
  -1903220.585 9  -1471801.549 9  20763312.199    20763313.947    20763318.493
     -1824.135       -1421.404
    174520.897 9    142076.21248  20834769.737    20834771.3614   20834775.8124
      -954.088        -743.445
 -13534226.458 9 -10529947.74748  20558296.710    20558298.1134   20558303.0624
      1080.528         841.970
 -18776244.219 9 -14607967.81648  21076750.537    21076752.4714   21076757.3214
      1125.806         877.251
 -10083673.207 9  -7657077.21546  23529427.591    23529429.4204   23529434.8174
      1468.834        1144.546
 96 10 21 17 15 59.9980000  0  8 17  1 31 28 23 21  3  9            -0.001255318
   2633232.479 9   2053975.11048  21088924.297    21088925.8694   21088930.9874
     -1529.964       -1192.180
 -21021277.985 9 -16352068.63948  21457962.038    21457963.5404   21457969.2394
      3189.241        2485.123
  -7955001.093 9  -6176623.97646  23663347.551    23663349.1494   23663354.4884
      3060.447        2384.764
  -1848259.991 9  -1428975.135 9  20773770.856    20773772.627    20773777.173
     -1840.255       -1433.965
    203204.342 9    164426.93948  20840227.935    20840229.6444   20840234.1004
      -958.580        -746.945
 -13566540.481 9 -10555127.50448  20552147.569    20552148.9514   20552153.9084
      1073.346         836.374
 -18809746.870 9 -14634073.79248  21070375.250    21070377.1644   21070381.9754
      1107.337         862.860
 -10127545.138 9  -7691263.11846  23521079.427    23521080.8714   23521086.2644
      1455.612        1134.243
 96 10 21 17 16 29.9980000  0  8 17  1 31 28 23 21  3  9            -0.001261196
   2679295.972 9   2089868.71748  21097689.889    21097691.4674   21097696.6364
     -1541.140       -1200.888
 -21116792.636 9 -16426495.61848  21439786.215    21439787.7104   21439793.4134
      3178.074        2476.421
  -8046630.942 9  -6248023.84946  23645910.933    23645912.5894   23645917.8944
      3048.077        2375.125
  -1792820.549 9  -1385775.593 9  20784320.667    20784322.409    20784326.967
     -1855.880       -1446.140
    232023.166 9    186883.15448  20845712.039    20845713.6584   20845718.1504
      -962.988        -750.380
 -13598647.321 9 -10580145.82048  20546037.839    20546039.2214   20546044.1834
      1066.894         831.346
 -18842695.859 9 -14659748.34148  21064105.351    21064107.2064   21064112.0054
      1088.985         848.560
 -10171023.070 9  -7725141.99746  23512805.723    23512807.3124   23512812.7404
      1442.610        1124.112
 96 10 21 17 16 59.9980000  0  8 17  1 31 28 23 21  3  9            -0.001267064
   2725719.254 9   2126042.68448  21106524.024    21106525.5734   21106530.7194
     -1552.852       -1210.014
 -21211938.615 9 -16500635.32348  21421680.477    21421682.0234   21421687.7124
      3165.806        2466.862
  -8137882.510 9  -6319128.95546  23628546.365    23628548.0514   23628553.2114
      3036.131        2365.816
  -1736893.375 9  -1342196.007 9  20794963.239    20794964.993    20794969.575
     -1871.834       -1458.572
    261002.449 9    209464.40248  20851226.691    20851228.2444   20851232.7584
      -968.142        -754.396
 -13630525.986 9 -10604986.34448  20539971.463    20539972.8864   20539977.8754
      1058.831         825.063
 -18875064.960 9 -14684971.03148  21057945.662    21057947.5604   21057952.4184
      1069.648         833.492
 -10214082.978 9  -7758695.14546  23504611.830    23504613.2814   23504618.6954
      1428.783        1113.337
 96 10 21 17 17 29.9980000  0  8 17  1 31 28 23 21  3  9            -0.001272944
   2772473.435 9   2162474.49648  21115421.111    21115422.6424   21115427.7694
     -1564.094       -1218.774
 -21306719.174 9 -16574490.28248  21403644.338    21403645.8644   21403651.5504
      3152.809        2456.734
  -8228785.643 9  -6389962.56846  23611248.087    23611249.7174   23611254.9664
      3023.835        2356.235
  -1680493.915 9  -1298248.403 9  20805695.708    20805697.466    20805702.029
     -1888.200       -1471.325
    290127.514 9    232159.24748  20856769.004    20856770.5774   20856775.0724
      -973.749        -758.765
 -13662161.284 9 -10629637.22748  20533951.498    20533952.9014   20533957.8734
      1050.117         818.273
 -18906855.944 9 -14709743.23748  21051896.026    21051897.9474   21051902.7924
      1049.621         817.886
 -10256729.997 9  -7791926.57346  23496496.374    23496497.8404   23496503.2654
      1414.286        1102.041
 96 10 21 17 17 59.9980000  0  8 17  1 31 28 23 21  3  9            -0.001278837
   2819540.951 9   2199150.46548  21124377.681    21124379.2894   21124384.4414
     -1573.471       -1226.081
 -21401132.144 9 -16648058.80748  21385678.157    21385679.6584   21385685.3454
      3141.749        2448.116
  -8319332.491 9  -6460518.55446  23594017.399    23594019.1904   23594024.5034
      3012.636        2347.508
  -1623617.366 9  -1253929.040 9  20816518.962    20816520.728    20816525.304
     -1903.312       -1483.100
    319417.757 9    254982.79948  20862342.669    20862344.3244   20862348.8304
      -978.746        -762.659
 -13693548.243 9 -10654094.59748  20527978.743    20527980.1504   20527985.1014
      1042.633         812.441
 -18938047.977 9 -14734048.72748  21045960.389    21045962.3224   21045967.1544
      1030.145         802.710
 -10298953.141 9  -7824827.71246  23488461.317    23488463.0734   23488468.4744
      1400.778        1091.515
 96 10 21 17 18 29.9980000  0  8 17  1 31 28 23 21  3  9            -0.001284750
   2866897.933 9   2236051.99348  21133389.423    21133391.0364   21133396.1884
     -1583.572       -1233.952
 -21495201.109 9 -16721359.26948  21367777.440    21367778.9034   21367784.6054
      3129.612        2438.659
  -8409529.897 9  -6530802.23946  23576853.532    23576855.0974   23576860.5584
      3000.680        2338.192
  -1566277.130 9  -1209248.362 9  20827430.519    20827432.234    20827436.799
     -1919.203       -1495.483
    348872.427 9    277934.48148  20867947.904    20867949.3844   20867953.8824
      -984.664        -767.271
 -13724701.697 9 -10678370.01548  20522050.501    20522051.8804   20522056.8134
      1034.388         806.017
 -18968637.014 9 -14757884.35248  21040139.507    21040141.4494   21040146.3054
      1009.480         786.608
 -10340752.781 9  -7857398.85547  23480507.003    23480508.8764   23480514.2234
      1386.047        1080.037
 96 10 21 17 18 59.9980000  0  8 17  1 31 28 23 21  3  9            -0.001290673
   2914559.747 9   2273191.04748  21142459.224    21142460.8044   21142465.9494
     -1594.210       -1242.242
 -21588902.157 9 -16794373.05048  21349946.731    21349948.1704   21349953.8784
      3116.821        2428.692
  -8499364.614 9  -6600803.31146  23559758.345    23559760.0704   23559765.5174
      2987.705        2328.082
  -1508459.245 9  -1164195.495 9  20838432.900    20838434.632    20838439.220
     -1935.717       -1508.351
    378499.597 9    301020.57348  20873585.750    20873587.2924   20873591.7734
      -990.813        -772.062
 -13755606.987 9 -10702452.05848  20516169.407    20516170.8294   20516175.7404
      1025.698         799.245
 -18998612.420 9 -14781241.82348  21034435.389    21034437.3474   21034442.2014
       988.591         770.331
 -10382112.970 9  -7889627.57347  23472636.502    23472638.2734   23472643.6254
      1371.039        1068.342
 96 10 21 17 19 29.9980000  0  8 17  1 31 28 23 21  3  9            -0.001296608
   2962505.947 9   2310551.70348  21151583.055    21151584.6604   21151589.8324
     -1603.188       -1249.237
 -21682257.109 9 -16867117.14148  21332181.821    21332183.2634   21332189.0054
      3105.981        2420.245
  -8588828.400 9  -6670515.36246  23542734.182    23542735.6854   23542741.0584
      2975.797        2318.803
  -1450176.329 9  -1118780.266 9  20849523.804    20849525.508    20849530.143
     -1950.653       -1519.989
    408284.554 9    324229.61748  20879253.726    20879255.2144   20879259.6794
      -995.723        -775.888
 -13786298.723 9 -10726367.69548  20510328.988    20510330.3994   20510335.3024
      1019.690         794.564
 -19028000.879 9 -14804141.93248  21028842.955    21028844.9334   21028849.7734
       969.735         755.638
 -10423056.630 9  -7921531.73047  23464845.241    23464846.9724   23464852.4274
      1357.679        1057.932
 96 10 21 17 19 59.9980000  0  8 17  1 31 28 23 21  3  9            -0.001302550
   3010757.825 9   2348150.54548  21160765.113    21160766.7054   21160771.8774
     -1613.816       -1257.519
 -21775266.367 9 -16939591.86948  21314482.778    21314484.2084   21314489.9244
      3094.406        2411.225
  -8677920.682 9  -6739937.91346  23525780.294    23525782.0374   23525787.3404
      2963.524        2309.239
  -1391422.921 9  -1072998.417 9  20860704.193    20860705.934    20860710.578
     -1966.387       -1532.250
    438237.213 9    347569.33348  20884953.556    20884955.0634   20884959.4964
     -1001.153        -780.119
 -13816791.491 9 -10750128.30048  20504526.385    20504527.8004   20504532.7354
      1013.002         789.352
 -19056796.132 9 -14826579.80748  21023363.426    21023365.3844   21023370.2154
       949.822         740.121
 -10463577.253 9  -7953106.24247  23457134.529    23457136.2154   23457141.6164
      1343.541        1046.915
 96 10 21 17 20 29.9980000  0  8 17  1 31 28 23 21  3  9            -0.001308503
   3059332.750 9   2386001.11548  21170008.618    21170010.2294   21170015.3854
     -1624.893       -1266.150
 -21867925.525 9 -17011793.78448  21296850.263    21296851.7474   21296857.4304
      3082.565        2401.999
  -8766650.092 9  -6809077.71746  23508895.667    23508897.4124   23508902.6554
      2951.515        2299.882
  -1332203.402 9  -1026853.365 9  20871973.270    20871975.035    20871979.713
     -1981.838       -1544.289
    468343.678 9    371028.90348  20890682.585    20890684.1434   20890688.5714
     -1005.996        -783.893
 -13847079.707 9 -10773729.50948  20498762.789    20498764.1404   20498769.0794
      1005.860         783.787
 -19084995.466 9 -14848553.32548  21017997.261    21017999.2124   21018004.0944
       929.935         724.625
 -10503677.377 9  -7984353.10347  23449503.415    23449505.3784   23449510.7964
      1329.556        1036.018
 96 10 21 17 20 59.9980000  0  8 17  1 31 28 23 21  3  9            -0.001314457
   3108247.714 9   2424116.65548  21179316.820    21179318.4444   21179323.6574
     -1636.358       -1275.084
 -21960221.870 9 -17083712.99248  21279286.806    21279288.3064   21279293.9644
      3070.323        2392.459
  -8855005.469 9  -6877926.06446  23492082.206    23492083.8904   23492089.0484
      2938.587        2289.808
  -1272516.775 9   -980344.331 9  20883331.259    20883333.032    20883337.726
     -1997.435       -1556.443
    498592.748 9    394599.59448  20896438.850    20896440.3684   20896444.7574
     -1010.803        -787.639
 -13877151.699 9 -10797162.22948  20493040.262    20493041.6204   20493046.6004
       998.736         778.236
 -19112592.109 9 -14870057.21148  21012745.824    21012747.7454   21012752.6164
       909.535         708.729
 -10543350.967 9  -8015267.58847  23441953.855    23441955.6894   23441961.1344
      1315.192        1024.825
 96 10 21 17 21 29.9980000  0  8 17  1 31 28 23 21  3  9            -0.001320404
   3157507.734 9   2462501.06248  21188690.742    21188692.3524   21188697.5924
     -1648.251       -1284.351
 -22052159.185 9 -17155352.43748  21261791.694    21261793.1954   21261798.8534
      3058.106        2382.940
  -8942984.940 9  -6946481.49346  23475340.336    23475341.9224   23475347.0934
      2926.057        2280.044
  -1212373.345 9   -933479.346 9  20894776.174    20894777.954    20894782.658
     -2012.754       -1568.380
    528974.198 9    418273.44048  20902220.240    20902221.7784   20902226.1784
     -1015.195        -791.061
 -13907023.773 9 -10820439.17048  20487355.699    20487357.1444   20487362.1444
       991.996         772.984
 -19139577.546 9 -14891084.83348  21007610.627    21007612.5744   21007617.4714
       888.702         692.495
 -10582598.096 9  -8045849.76847  23434485.488    23434487.2384   23434492.6414
      1300.507        1013.382
 96 10 21 17 21 59.9980000  0  8 17  1 31 28 23 21  3  9            -0.001326334
   3207118.990 9   2501159.15448  21198131.525    21198133.0884   21198138.3434
     -1659.571       -1293.172
 -22143726.337 9 -17226703.44748  21244367.003    21244368.5314   21244374.1644
      3045.917        2373.442
  -9030590.265 9  -7014745.38346  23458669.461    23458671.1574   23458676.3894
      2913.493        2270.254
  -1151774.187 9   -886259.253 9  20906307.813    20906309.612    20906314.327
     -2027.625       -1579.967
    559477.409 9    442042.15848  20908024.904    20908026.3544   20908030.7684
     -1018.924        -793.967
 -13936690.237 9 -10843555.89648  20481710.423    20481711.7924   20481716.7794
       985.192         767.682
 -19165932.344 9 -14911621.05148  21002595.485    21002597.4324   21002602.3424
       868.049         676.402
 -10621397.160 9  -8076082.80347  23427102.458    23427104.0094   23427109.4604
      1285.698        1001.843
 96 10 21 17 22 29.9980000  0  8 17  1 31 28 23 21  3  9            -0.001332241
   3257074.557 9   2540085.55548  21207637.766    21207639.3574   21207644.5944
     -1670.920       -1302.015
 -22234920.547 9 -17297763.85348  21227013.280    21227014.8694   21227020.4844
      3033.593        2363.839
  -9117793.290 9  -7082695.78446  23442075.368    23442076.9484   23442082.0904
      2899.824        2259.603
  -1090721.951 9   -838686.106 9  20917925.686    20917927.480    20917932.215
     -2042.647       -1591.673
    590111.424 9    465912.80748  20913854.434    20913855.8044   20913860.2644
     -1023.473        -797.511
 -13966142.034 9 -10866505.34848  20476105.924    20476107.2984   20476112.2554
       978.006         762.082
 -19191670.777 9 -14931676.98448  20997697.672    20997699.5964   20997704.5264
       847.945         660.736
 -10659739.386 9  -8105959.85947  23419806.093    23419807.7084   23419813.1904
      1270.277         989.826
 96 10 21 17 22 59.9980000  0  8 17  1 31 28 23 21  3  9            -0.001338125
   3307368.491 9   2579275.60948  21217208.450    21217209.9714   21217215.2374
     -1681.448       -1310.219
 -22325737.245 9 -17368530.09248  21209731.499    21209733.0174   21209738.6224
      3021.341        2354.292
  -9204576.644 9  -7150319.16846  23425561.234    23425562.5594   23425567.7194
      2886.214        2248.998
  -1029213.618 9   -790757.563 9  20929630.381    20929632.161    20929636.869
     -2057.474       -1603.226
    620898.487 9    489902.70948  20919712.938    20919714.4104   20919718.8844
     -1028.690        -801.577
 -13995374.223 9 -10889283.67648  20470543.311    20470544.6084   20470549.5464
       971.070         756.678
 -19216809.891 9 -14951265.91548  20992913.868    20992915.7844   20992920.7344
       828.298         645.427
 -10697613.166 9  -8135471.88747  23412598.752    23412600.6144   23412606.0664
      1255.183         978.065
 96 10 21 17 23 29.9980000  0  8 17  1 31 28 23 21  3  9            -0.001344006
   3357989.067 9   2618720.18748  21226841.274    21226842.7504   21226848.0584
     -1692.733       -1319.013
 -22416181.062 9 -17439005.77748  21192520.631    21192522.1364   21192527.7374
      3008.651        2344.403
  -9290948.421 9  -7217621.85246  23409125.179    23409126.5824   23409131.7364
      2872.418        2238.248
   -967250.571 9   -742474.694 9  20941421.532    20941423.370    20941428.090
     -2072.922       -1615.264
    651862.693 9    514030.64848  20925605.308    20925606.7264   20925611.2084
     -1035.181        -806.635
 -14024379.879 9 -10911885.49048  20465023.594    20465025.0014   20465029.9644
       963.015         750.401
 -19241347.126 9 -14970385.84848  20988244.558    20988246.5134   20988251.4554
       808.053         629.652
 -10735028.795 9  -8164626.92547  23405478.825    23405480.6634   23405486.1394
      1239.489         965.836
 96 10 21 17 23 59.9980000  0  8 17  1 31 28 23 21  3  9            -0.001349908
   3408928.596 9   2658413.30448  21236534.760    21236536.2694   21236541.5774
     -1703.135       -1327.118
 -22506255.772 9 -17509193.84548  21175379.939    21175381.4534   21175387.0794
      2996.449        2334.895
  -9376924.053 9  -7284615.84446  23392764.519    23392765.9624   23392771.1384
      2859.382        2228.090
   -904842.633 9   -693845.153 9  20953297.456    20953299.244    20953303.960
     -2087.415       -1626.557
    683011.008 9    538302.05748  20931532.635    20931534.0774   20931538.5844
     -1041.274        -811.382
 -14053146.265 9 -10934300.85648  20459549.533    20459550.9244   20459555.9004
       954.946         744.114
 -19265306.932 9 -14989055.83248  20983685.230    20983687.1384   20983692.0764
       789.492         615.188
 -10771988.310 9  -8193426.52947  23398445.632    23398447.5514   23398452.9684
      1224.749         954.350
 96 10 21 17 24 29.9980000  0  8 17  1 31 28 23 21  3  9            -0.001355842
   3460198.748 9   2698364.05148  21246291.215    21246292.7274   21246297.9814
     -1714.983       -1336.350
 -22595943.550 9 -17579080.40948  21158312.901    21158314.4404   21158320.0274
      2982.456        2323.992
  -9462502.018 9  -7351299.95846  23376479.603    23376480.9224   23376486.1384
      2845.644        2217.385
   -841987.250 9   -644866.957 9  20965258.506    20965260.257    20965264.954
     -2103.199       -1638.856
    714360.455 9    562730.18548  20937498.211    20937499.6814   20937504.2094
     -1048.808        -817.253
 -14081661.409 9 -10956520.44948  20454123.259    20454124.6784   20454129.6254
       945.855         737.030
 -19288693.696 9 -15007279.29948  20979234.891    20979236.8154   20979241.7384
       769.170         599.353
 -10808499.220 9  -8221876.58547  23391497.599    23391499.6984   23391505.1644
      1208.974         942.058
 96 10 21 17 24 59.9980000  0  8 17  1 31 28 23 21  3  9            -0.001361798
   3511805.232 9   2738576.86848  21256111.684    21256113.1734   21256118.3754
     -1725.421       -1344.484
 -22685216.464 9 -17648643.70248  21141324.872    21141326.3924   21141331.9224
      2969.230        2313.686
  -9547686.655 9  -7417677.59346  23360269.607    23360270.9174   23360276.1214
      2833.471        2207.899
   -778672.062 9   -595530.475 9  20977306.936    20977308.755    20977313.455
     -2117.732       -1650.181
    745917.564 9    587320.13048  20943503.371    20943504.8134   20943509.3344
     -1054.744        -821.878
 -14109918.391 9 -10978538.87648  20448746.120    20448747.5494   20448752.4914
       938.189         731.056
 -19311467.885 9 -15025025.43348  20974901.132    20974903.0554   20974907.9474
       749.063         583.685
 -10844542.529 9  -8249962.27147  23384638.878    23384640.9174   23384646.3434
      1194.077         930.450
 96 10 21 17 25 29.9980000  0  8 17  1 31 28 23 21  3  9            -0.001367786
   3563733.658 9   2779040.55448  21265993.353    21265994.8434   21266000.0494
     -1736.461       -1353.086
 -22774089.255 9 -17717895.20748  21124412.950    21124414.4974   21124420.0014
      2955.593        2303.059
  -9632514.907 9  -7483777.52446  23344127.435    23344128.7624   23344133.8814
      2821.568        2198.624
   -714922.295 9   -545855.360 9  20989438.133    20989439.941    20989444.651
     -2132.237       -1661.483
    777636.791 9    612036.40048  20949539.381    20949540.7834   20949545.3144
     -1059.741        -825.772
 -14137955.282 9 -11000385.80548  20443410.853    20443412.2754   20443417.2454
       931.033         725.480
 -19333638.999 9 -15042301.63748  20970682.095    20970684.0584   20970688.9344
       729.073         568.109
 -10880140.432 9  -8277700.89047  23377864.755    23377866.9064   23377872.2374
      1178.771         918.523
 96 10 21 17 25 59.9980000  0  8 17  1 31 28 23 21  3  9            -0.001373781
   3615983.743 9   2819754.88548  21275936.196    21275937.7234   21275942.9534
     -1747.025       -1361.318
 -22862553.113 9 -17786828.06048  21107578.799    21107580.3754   21107585.8544
      2941.888        2292.380
  -9716976.147 9  -7549591.47646  23328055.077    23328056.3324   23328061.4884
      2808.789        2188.667
   -650737.161 9   -495840.996 9  21001652.262    21001653.979    21001658.713
     -2146.908       -1672.915
    809497.400 9    636862.83848  20955602.326    20955603.6744   20955608.1884
     -1064.354        -829.367
 -14165785.033 9 -11022071.32348  20438115.047    20438116.4524   20438121.4174
       924.210         720.164
 -19355212.832 9 -15059112.42848  20966576.783    20966578.7024   20966583.5944
       708.894         552.385
 -10915271.458 9  -8305075.70647  23371179.727    23371181.6354   23371187.0414
      1163.189         906.381
 96 10 21 17 26 29.9980000  0  8 17  1 31 28 23 21  3  9            -0.001379770
   3668553.399 9   2860718.22148  21285939.924    21285941.4534   21285946.6684
     -1757.605       -1369.562
 -22950608.177 9 -17855442.37948  21090822.511    21090824.0314   21090829.4894
      2928.592        2282.020
  -9801053.060 9  -7615105.95146  23312055.670    23312057.0194   23312062.1544
      2795.970        2178.678
   -586110.960 9   -445482.947 9  21013950.302    21013951.964    21013956.701
     -2161.569       -1684.339
    841490.863 9    661792.79848  20961690.487    20961691.8494   20961696.3694
     -1068.556        -832.641
 -14193418.362 9 -11043603.78648  20432856.584    20432858.0294   20432863.0054
       917.721         715.107
 -19376170.930 9 -15075443.42748  20962588.646    20962590.5434   20962595.4164
       688.256         536.303
 -10949934.705 9  -8332086.02647  23364583.084    23364585.3664   23364590.8234
      1147.518         894.170
 96 10 21 17 26 59.9980000  0  8 17  1 31 28 23 21  3  9            -0.001385744
   3721443.275 9   2901931.08848  21296004.616    21296006.0944   21296011.2864
     -1767.909       -1377.591
 -23038265.845 9 -17923747.03048  21074141.764    21074143.3344   21074148.7624
      2915.937        2272.159
  -9884730.884 9  -7680309.44146  23296132.148    23296133.6184   23296138.8174
      2783.112        2168.659
   -521042.455 9   -394780.238 9  21026332.279    21026334.101    21026338.873
     -2175.637       -1695.302
    873603.485 9    686815.61348  20967801.305    20967802.6794   20967807.2174
     -1071.473        -834.914
 -14220844.829 9 -11064975.05848  20427637.431    20427638.9384   20427643.9194
       911.220         710.042
 -19396513.626 9 -15091294.89248  20958717.561    20958719.4804   20958724.3284
       668.684         521.052
 -10984121.014 9  -8358724.69547  23358077.773    23358079.8494   23358085.3434
      1132.439         882.420
 96 10 21 17 27 29.9980000  0  8 17  1 31 28 23 21  3  9            -0.001391713
   3774658.896 9   2943397.77948  21306131.161    21306132.7104   21306137.9194
     -1779.592       -1386.695
 -23125536.139 9 -17991749.83048  21057534.719    21057536.3294   21057541.7454
      2902.379        2261.594
  -9968008.104 9  -7745200.78346  23280284.896    23280286.4544   23280291.7244
      2768.673        2157.408
   -455545.621 9   -343743.767 9  21038795.931    21038797.764    21038802.547
     -2190.613       -1706.971
    905809.422 9    711911.14248  20973929.920    20973931.2774   20973935.8174
     -1075.574        -838.110
 -14248063.224 9 -11086184.19648  20422458.053    20422459.4594   20422464.4164
       903.407         703.954
 -19416265.115 9 -15106685.67148  20954958.981    20954960.8934   20954965.7694
       648.245         505.126
 -11017850.279 9  -8385007.23347  23351659.321    23351661.3634   23351666.8734
      1116.306         869.849
 96 10 21 17 27 59.9980000  0  8 17  1 31 28 23 21  3  9            -0.001397668
   3828212.942 9   2985128.17848  21316322.226    21316323.7344   21316328.9694
     -1790.942       -1395.539
 -23212413.038 9 -18059446.08748  21041002.659    21041004.1994   21041009.6044
      2889.206        2251.329
 -10050845.745 9  -7809749.58246  23264521.434    23264523.0144   23264528.2804
      2753.561        2145.632
   -389610.662 9   -292365.904 9  21051342.971    21051344.804    21051349.580
     -2205.227       -1718.359
    938138.435 9    737102.56948  20980081.850    20980083.2954   20980087.8594
     -1079.992        -841.552
 -14275045.367 9 -11107209.24048  20417323.521    20417324.9004   20417329.8904
       895.184         697.546
 -19435411.266 9 -15121604.76148  20951315.654    20951317.5174   20951322.3994
       627.961         489.320
 -11051106.260 9  -8410920.95947  23345330.940    23345332.9334   23345338.4534
      1100.723         857.706
 96 10 21 17 28 29.9980000  0  8 17  1 31 28 23 21  3  9            -0.001403622
   3882108.536 9   3027124.72148  21326578.249    21326579.7574   21326585.0054
     -1802.272       -1404.368
 -23298896.260 9 -18126835.58248  21024545.428    21024546.9804   21024552.3684
      2876.077        2241.099
 -10133240.716 9  -7873953.45246  23248842.198    23248843.8204   23248849.0954
      2739.055        2134.329
   -323247.101 9   -240654.065 9  21063971.543    21063973.403    21063978.165
     -2219.242       -1729.279
    970597.694 9    762395.48848  20986258.581    20986260.0564   20986264.6544
     -1084.199        -844.830
 -14301779.974 9 -11128041.39748  20412236.018    20412237.4984   20412242.4474
       886.826         691.033
 -19453954.655 9 -15136054.17048  20947786.931    20947788.8124   20947793.7154
       608.050         473.805
 -11083898.827 9  -8436473.59046  23339090.839    23339092.7074   23339098.2404
      1085.220         845.626
 96 10 21 17 28 59.9980000  0  8 17  1 31 28 23 21  3  9            -0.001409576
   3936347.513 9   3069388.82648  21336899.548    21336901.1134   21336906.3754
     -1813.598       -1413.193
 -23384971.510 9 -18193907.17648  21008165.850    21008167.3774   21008172.7614
      2862.342        2230.396
 -10215189.877 9  -7937809.93946  23233247.789    23233249.4164   23233254.6564
      2724.341        2122.863
   -256455.665 9   -188608.821 9  21076681.642    21076683.437    21076688.161
     -2233.452       -1740.352
   1003193.488 9    787794.80148  20992461.310    20992462.8154   20992467.4614
     -1088.824        -848.434
 -14328259.577 9 -11148674.85448  20407197.087    20407198.5774   20407203.5304
       878.628         684.645
 -19471894.964 9 -15150033.64648  20944372.997    20944374.9014   20944379.8064
       587.973         458.161
 -11116216.719 9  -8461656.34546  23332940.936    23332942.8084   23332948.3394
      1069.381         833.284
 96 10 21 17 29 29.9980000  0  8 17  1 31 28 23 21  3  9            -0.001415530
   3990922.038 9   3111914.40248  21347284.589    21347286.2714   21347291.5614
     -1824.640       -1421.797
 -23470642.492 9 -18260663.75648  20991863.162    20991864.6934   20991870.0774
      2849.038        2220.030
 -10296697.416 9  -8001322.30446  23217737.320    23217739.0704   23217744.2634
      2709.328        2111.165
   -189239.937 9   -136232.953 9  21089472.444    21089474.196    21089478.917
     -2247.657       -1751.421
   1035939.790 9    813311.38948  20998692.722    20998694.2414   20998698.9094
     -1094.450        -852.818
 -14354498.864 9 -11169121.05348  20402203.927    20402205.3984   20402210.3224
       870.645         678.425
 -19489229.977 9 -15163541.46148  20941074.287    20941076.1624   20941081.0854
       567.555         442.251
 -11148057.307 9  -8486467.17146  23326881.940    23326883.7244   23326889.3174
      1053.323         820.771
 96 10 21 17 29 59.9980000  0  8 17  1 31 28 23 21  3  9            -0.001421491
   4045815.505 9   3154688.50748  21357730.585    21357732.1964   21357737.4524
     -1835.425       -1430.201
 -23555922.211 9 -18327115.45648  20975634.907    20975636.4954   20975641.8634
      2835.615        2209.570
 -10377764.436 9  -8064491.40646  23202310.727    23202312.5294   23202317.7104
      2694.615        2099.700
   -121610.855 9    -83534.996 9  21102341.827    21102343.609    21102348.333
     -2261.514       -1762.219
   1068843.583 9    838950.69848  21004954.049    21004955.6104   21004960.2944
     -1099.533        -856.779
 -14380509.038 9 -11189388.71948  20397254.420    20397255.8354   20397260.7384
       862.900         672.390
 -19505965.478 9 -15176582.12448  20937889.645    20937891.5214   20937896.4494
       547.510         426.631
 -11179425.983 9  -8510910.26246  23320912.549    23320914.4434   23320920.0064
      1037.409         808.371
 96 10 21 17 30 29.9980000  0  8 17  1 31 28 23 21  3  9            -0.001427443
   4101042.706 9   3197722.65848  21368240.073    21368241.5744   21368246.8784
     -1846.243       -1438.631
 -23640776.419 9 -18393235.58948  20959487.730    20959489.2374   20959494.6024
      2821.531        2198.595
 -10458387.409 9  -8127314.48946  23186968.928    23186970.4754   23186975.6314
      2680.187        2088.457
    -53554.209 9    -30503.869 9  21115292.675    21115294.386    21115299.125
     -2275.538       -1773.146
   1101907.028 9    864714.41048  21011245.906    21011247.3814   21011252.0804
     -1104.565        -860.700
 -14406282.304 9 -11209471.78248  20392349.894    20392351.3544   20392356.2584
       855.541         666.655
 -19522078.821 9 -15189137.99248  20934823.352    20934825.2694   20934830.1764
       526.756         410.459
 -11210300.055 9  -8534967.95446  23315037.569    23315039.3364   23315044.7694
      1021.018         795.598
 96 10 21 17 30 59.9980000  0  8 17  1 31 28 23 21  3  9            -0.001433387
   4156590.000 9   3241006.24248  21378810.345    21378811.8554   21378817.1934
     -1856.926       -1446.955
 -23725216.175 9 -18459032.77348  20943419.328    20943420.8514   20943426.2234
      2807.932        2187.999
 -10538572.754 9  -8189796.57747  23171710.214    23171711.7154   23171716.8764
      2665.493        2077.008
     14926.780 9     22857.912 9  21128324.148    21128325.904    21128330.655
     -2289.731       -1784.206
   1135120.232 9    890594.82148  21017566.260    21017567.6624   21017572.3664
     -1109.568        -864.598
 -14431838.464 9 -11229385.66648  20387486.730    20387488.1594   20387493.0824
       848.209         660.942
 -19537564.376 9 -15201204.66748  20931876.522    20931878.4544   20931883.3554
       505.623         393.992
 -11240689.446 9  -8558647.95346  23309254.747    23309256.4224   23309261.7844
      1004.972         783.095
 96 10 21 17 31 29.9980000  0  8 17  1 31 28 23 21  3  9            -0.001439332
   4212449.579 9   3284533.15548  21389440.050    21389441.5844   21389446.9314
     -1867.242       -1454.994
 -23809263.873 9 -18524524.45648  20927425.515    20927427.0674   20927432.4384
      2794.981        2177.907
 -10618328.148 9  -8251943.62846  23156533.191    23156534.8214   23156540.0314
      2651.235        2065.897
     83813.468 9     76535.821 9  21141432.853    21141434.621    21141439.374
     -2302.890       -1794.460
   1168465.239 9    916577.93448  21023911.611    21023912.9724   21023917.6934
     -1113.639        -867.771
 -14457183.038 9 -11249134.68848  20382663.741    20382665.2344   20382670.1604
       841.240         655.512
 -19552427.119 9 -15212786.03648  20929048.205    20929050.1434   20929055.0604
       484.973         377.901
 -11270611.061 9  -8581963.45946  23303560.768    23303562.4354   23303567.7874
       989.560         771.086
 96 10 21 17 31 59.9980000  0  8 17  1 31 28 23 21  3  9            -0.001445263
   4268648.169 9   3328324.24048  21400134.297    21400135.8474   21400141.1824
     -1879.001       -1464.157
 -23892886.910 9 -18589685.23748  20911512.570    20911514.1094   20911519.4894
      2780.220        2166.405
 -10697631.672 9  -8313738.57846  23141442.312    23141443.8934   23141449.0404
      2635.922        2053.965
    153121.623 9    130542.148 9  21154621.709    21154623.545    21154628.293
     -2317.326       -1805.709
   1201948.153 9    942668.51148  21030283.200    21030284.5204   21030289.2954
     -1118.197        -871.322
 -14482290.145 9 -11268698.66848  20377886.109    20377887.5074   20377892.4474
       832.979         649.075
 -19566645.116 9 -15223865.00248  20926342.581    20926344.5564   20926349.4604
       463.154         360.899
 -11300037.747 9  -8604893.30246  23297961.156    23297962.5854   23297968.0794
       972.464         757.764
 96 10 21 17 32 29.9980000  0  8 17  1 31 28 23 21  3  9            -0.001451178
   4325173.488 9   3372369.91648  21410890.753    21410892.2684   21410897.6054
     -1889.210       -1472.112
 -23976092.005 9 -18654520.35048  20895679.047    20895680.6944   20895686.0414
      2767.115        2156.194
 -10776494.548 9  -8375190.16746  23126435.052    23126436.7734   23126441.8524
      2621.693        2042.878
    222844.769 9    184871.843 9  21167889.583    21167891.414    21167896.180
     -2330.663       -1816.101
   1235547.099 9    968849.50048  21036676.774    21036678.1824   21036682.9624
     -1121.670        -874.029
 -14507177.914 9 -11288091.73648  20373150.176    20373151.5374   20373156.4554
       826.323         643.888
 -19580224.206 9 -15234446.12248  20923758.577    20923760.5504   20923765.4644
       442.384         344.715
 -11328971.839 9  -8627439.30246  23292455.191    23292456.6344   23292462.0634
       956.695         745.477
 96 10 21 17 32 59.9980000  0  8 17  1 31 28 23 21  3  9            -0.001457079
   4382028.805 9   3416672.73248  21421709.960    21421711.4634   21421716.8584
     -1900.820       -1481.158
 -24058899.100 9 -18719045.33548  20879921.378    20879923.0054   20879928.3534
      2753.586        2145.651
 -10854913.420 9  -8436295.77846  23111512.482    23111514.1814   23111519.2234
      2606.559        2031.085
    292978.878 9    239521.770 9  21181235.657    21181237.494    21181242.298
     -2344.507       -1826.889
   1269265.724 9    995123.74848  21043093.167    21043094.6424   21043099.4274
     -1125.831        -877.271
 -14531847.590 9 -11307314.86048  20368455.694    20368457.0464   20368461.9534
       818.641         637.902
 -19593170.593 9 -15244534.22748  20921294.981    20921296.9484   20921301.8714
       421.278         328.269
 -11357415.387 9  -8649603.06246  23287042.422    23287043.9954   23287049.3754
       939.875         732.370
 96 10 21 17 33 29.9980000  0  8 17  1 31 28 23 21  3  9            -0.001462966
   4439227.255 9   3461242.92548  21432594.459    21432595.9544   21432601.3614
     -1912.711       -1490.424
 -24141297.119 9 -18783251.55448  20864241.512    20864243.1604   20864248.4984
      2739.164        2134.414
 -10932892.150 9  -8497058.43146  23096673.698    23096675.3104   23096680.3304
      2591.571        2019.406
    363513.417 9    294483.726 9  21194657.984    21194659.768    21194664.606
     -2358.115       -1837.492
   1303096.352 9   1021485.27448  21049530.956    21049532.4204   21049537.2104
     -1129.903        -880.444
 -14556303.143 9 -11326371.13548  20363801.941    20363803.3094   20363808.2064
       811.489         632.329
 -19605508.032 9 -15254147.82348  20918947.325    20918949.2314   20918954.1264
       400.992         312.461
 -11385360.538 9  -8671378.46846  23281724.390    23281726.1554   23281731.5664
       922.981         719.206
 96 10 21 17 33 59.9980000  0  8 17  1 31 28 23 21  3  9            -0.001468842
   4496763.110 9   3506076.03548  21443543.221    21443544.6384   21443550.1184
     -1923.369       -1498.729
 -24223269.809 9 -18847126.36048  20848642.673    20848644.2914   20848649.5914
      2725.256        2123.576
 -11010434.169 9  -8557480.78046  23081917.949    23081919.5144   23081924.5834
      2577.266        2008.259
    434443.012 9    349753.508 9  21208155.412    21208157.237    21208162.084
     -2370.908       -1847.461
   1337036.063 9   1047931.79148  21055989.418    21055990.9564   21055995.7374
     -1133.299        -883.090
 -14580564.990 9 -11345276.47548  20359185.056    20359186.4354   20359191.3034
       805.592         627.734
 -19617256.449 9 -15263302.45048  20916711.661    20916713.6094   20916718.5204
       381.792         297.500
 -11412821.434 9  -8692776.54146  23276498.740    23276500.4824   23276505.9204
       907.416         707.077
 96 10 21 17 34 29.9980000  0  8 17  1 31 28 23 21  3  9            -0.001474707
   4554642.060 9   3551176.48448  21454557.206    21454558.6424   21454564.1234
     -1935.137       -1507.899
 -24304798.558 9 -18910655.23848  20833128.321    20833129.8824   20833135.1604
      2710.148        2111.804
 -11087524.646 9  -8617551.28446  23067248.182    23067249.7094   23067254.7734
      2562.095        1996.438
    505775.833 9    405337.498 9  21221729.582    21221731.399    21221736.287
     -2384.470       -1858.029
   1371117.306 9   1074488.59648  21062474.880    21062476.4004   21062481.1824
     -1138.828        -887.398
 -14604627.928 9 -11364026.82048  20354606.012    20354607.4044   20354612.2524
       798.540         622.239
 -19628401.988 9 -15271987.30048  20914590.755    20914592.6904   20914597.5994
       361.368         281.585
 -11439801.453 9  -8713799.90646  23271364.536    23271366.3884   23271371.7674
       891.397         694.595
 96 10 21 17 34 59.9980000  0  8 17  1 31 28 23 21  3  9            -0.001480578
   4612875.888 9   3596553.47048  21465638.609    21465640.1654   21465645.6774
     -1946.806       -1516.992
 -24385871.709 9 -18973829.09348  20817700.560    20817702.1694   20817707.4514
      2694.860        2099.891
 -11164164.480 9  -8677270.62146  23052663.938    23052665.4954   23052670.7194
      2547.308        1984.915
    577508.956 9    461233.416 9  21235379.944    21235381.754    21235386.665
     -2397.557       -1868.226
   1405368.621 9   1101177.92848  21068992.680    21068994.2254   21068999.0194
     -1144.289        -891.654
 -14628471.976 9 -11382606.59448  20350068.664    20350070.0254   20350074.8934
       791.266         616.571
 -19638942.685 9 -15280200.84248  20912584.965    20912586.8834   20912591.7864
       341.627         266.203
 -11466301.255 9  -8734449.07846  23266322.147    23266323.6254   23266328.9884
       875.472         682.186
 96 10 21 17 35 29.9980000  0  8 17  1 31 28 23 21  3  9            -0.001486475
   4671440.091 9   3642187.88248  21476783.128    21476784.5994   21476790.1024
     -1958.026       -1525.735
 -24466491.001 9 -19036649.30448  20802359.186    20802360.8184   20802366.1084
      2679.170        2087.665
 -11240372.581 9  -8736653.57046  23038162.150    23038163.5604   23038168.7474
      2532.423        1973.317
    649622.986 9    517426.137 9  21249102.863    21249104.619    21249109.533
     -2410.781       -1878.531
   1439772.743 9   1127986.32748  21075539.606    21075541.1274   21075545.9024
     -1150.040        -896.135
 -14652109.413 9 -11401025.37648  20345570.626    20345571.9774   20345576.8584
       783.782         610.739
 -19648902.404 9 -15287961.68048  20910689.718    20910691.6324   20910696.5054
       321.451         250.481
 -11492339.161 9  -8754738.34147  23261367.110    23261368.7424   23261374.1024
       859.628         669.840
 96 10 21 17 35 59.9980000  0  8 17  1 31 28 23 21  3  9            -0.001492396
   4730326.161 9   3688073.11248  21487988.794    21487990.2734   21487995.7994
     -1967.817       -1533.364
 -24546648.051 9 -19099109.31548  20787105.846    20787107.4464   20787112.7364
      2664.635        2076.339
 -11316136.856 9  -8795690.66846  23023744.615    23023746.0914   23023751.2754
      2518.241        1962.266
    722131.235 9    573926.046 9  21262900.724    21262902.511    21262907.433
     -2423.293       -1888.280
   1474354.953 9   1154933.49948  21082120.457    21082121.9284   21082126.6834
     -1155.572        -900.446
 -14675520.296 9 -11419267.62248  20341115.651    20341117.0534   20341121.9264
       776.724         605.239
 -19658246.411 9 -15295242.73448  20908911.595    20908913.5164   20908918.3854
       301.293         234.774
 -11517901.263 9  -8774656.85247  23256502.634    23256504.4234   23256509.7654
       844.165         657.791
 96 10 21 17 36 29.9980000  0  8 17  1 31 28 23 21  3  9            -0.001498343
   4789523.404 9   3734200.80048  21499253.648    21499255.1634   21499260.7254
     -1978.530       -1541.712
 -24626363.566 9 -19161225.27748  20771936.468    20771938.0754   20771943.3564
      2649.907        2064.863
 -11391462.662 9  -8854386.10446  23009410.629    23009412.0964   23009417.3124
      2503.423        1950.719
    795030.438 9    630730.590 9  21276773.005    21276774.800    21276779.712
     -2436.481       -1898.557
   1509116.185 9   1182020.15748  21088735.333    21088736.8154   21088741.5224
     -1161.491        -905.058
 -14698697.557 9 -11437327.82948  20336705.211    20336706.5794   20336711.4824
       768.601         598.910
 -19666973.945 9 -15302043.42848  20907250.731    20907252.7024   20907257.6014
       280.791         218.798
 -11542968.826 9  -8794190.01047  23251732.447    23251734.1924   23251739.4994
       827.227         644.592
 96 10 21 17 36 59.9980000  0  8 17  1 31 28 23 21  3  9            -0.001504311
   4849018.806 9   3780560.82648  21510575.209    21510576.8044   21510582.3744
     -1987.816       -1548.947
 -24705651.005 9 -19223007.67248  20756848.578    20756850.1444   20756855.4364
      2635.884        2053.936
 -11466345.850 9  -8912736.63446  22995160.837    22995162.2994   22995167.5324
      2488.555        1939.134
    868308.420 9    687830.294 9  21290717.380    21290719.153    21290724.085
     -2448.715       -1908.090
   1544022.890 9   1209220.17448  21095377.814    21095379.3374   21095384.0334
     -1165.449        -908.142
 -14721648.993 9 -11455212.06348  20332337.692    20332339.0544   20332343.9814
       761.584         593.442
 -19675113.747 9 -15308386.14848  20905701.798    20905703.7624   20905708.6634
       261.911         204.086
 -11567537.996 9  -8813334.80247  23247057.343    23247058.8964   23247064.1284
       810.728         631.736
 96 10 21 17 37 29.9980000  0  8 17  1 31 28 23 21  3  9            -0.001510284
   4908794.873 9   3827139.55348  21521950.337    21521951.8754   21521957.4234
     -1997.392       -1556.409
 -24784514.310 9 -19284459.57848  20741841.321    20741842.9344   20741848.2264
      2621.609        2042.812
 -11540769.338 9  -8970728.96946  22980998.618    22980999.9874   22981005.2244
      2472.766        1926.831
    941956.880 9    745218.679 9  21304732.288    21304734.026    21304738.968
     -2461.278       -1917.879
   1579047.421 9   1236512.00448  21102042.800    21102044.3304   21102048.9994
     -1169.699        -911.454
 -14744393.555 9 -11472935.09848  20328009.539    20328010.9094   20328015.8034
       754.600         588.000
 -19682680.000 9 -15314281.94748  20904262.044    20904263.9514   20904268.8964
       242.283         188.792
 -11591608.482 9  -8832091.01947  23242476.824    23242478.3964   23242483.7024
       793.843         618.579
 96 10 21 17 37 59.9980000  0  8 17  1 31 28 23 21  3  9            -0.001516243
   4968864.571 9   3873947.08648  21533381.211    21533382.7804   21533388.3504
     -2007.142       -1564.007
 -24862951.066 9 -19345579.09748  20726915.273    20726916.8964   20726922.2034
      2607.796        2032.049
 -11614710.087 9  -9028345.13346  22966928.285    22966929.5604   22966934.7794
      2456.713        1914.322
   1015984.444 9    802902.473 9  21318819.314    21318821.043    21318825.987
     -2473.643       -1927.514
   1614203.329 9   1263906.20848  21108732.711    21108734.2544   21108738.9284
     -1173.655        -914.536
 -14766929.189 9 -11490495.32048  20323721.079    20323722.5404   20323727.4164
       747.971         582.835
 -19689650.352 9 -15319713.40548  20902935.648    20902937.5464   20902942.5134
       222.715         173.544
 -11615166.819 9  -8850448.14947  23237993.778    23237995.3564   23238000.7234
       776.988         605.445
 96 10 21 17 38 29.9980000  0  8 17  1 31 28 23 21  3  9            -0.001522180
   5029246.465 9   3920997.87748  21544871.433    21544873.1034   21544878.6784
     -2018.132       -1572.570
 -24940964.885 9 -19406369.06048  20712069.751    20712071.3514   20712076.6414
      2593.096        2020.594
 -11688157.932 9  -9085577.22346  22952951.602    22952952.8914   22952958.1154
      2439.935        1901.248
   1090388.808 9    860879.868 9  21332977.937    21332979.742    21332984.712
     -2486.482       -1937.518
   1649474.164 9   1291389.95948  21115444.621    21115446.0924   21115450.7654
     -1177.665        -917.661
 -14789253.389 9 -11507890.80048  20319472.997    20319474.3624   20319479.2614
       740.534         577.039
 -19696029.727 9 -15324684.36648  20901721.647    20901723.6224   20901728.5814
       202.595         157.866
 -11638210.390 9  -8868404.16647  23233608.778    23233610.3194   23233615.7054
       759.567         591.870
 96 10 21 17 38 59.9980000  0  8 17  1 31 28 23 21  3  9            -0.001528091
   5089945.802 9   3968296.03648  21556422.212    21556423.8784   21556429.4184
     -2027.993       -1580.254
 -25018540.152 9 -19466817.29448  20697307.660    20697309.2574   20697314.5584
      2579.329        2009.867
 -11761109.148 9  -9142422.33646  22939069.335    22939070.7414   22939075.9334
      2424.329        1889.088
   1165170.490 9    919151.282 9  21347208.454    21347210.238    21347215.229
     -2498.264       -1946.699
   1684858.678 9   1318962.29348  21122178.129    21122179.5844   21122184.2634
     -1180.609        -919.955
 -14811366.296 9 -11525121.63048  20315264.998    20315266.3864   20315271.3134
       734.252         572.144
 -19701801.950 9 -15329182.21948  20900623.251    20900625.1924   20900630.1734
       182.753         142.405
 -11660740.463 9  -8885960.05047  23229321.431    23229322.9904   23229328.4214
       743.055         579.004
 96 10 21 17 39 29.9980000  0  8 17  1 31 28 23 21  3  9            -0.001533990
   5150963.584 9   4015842.33048  21568033.717    21568035.1764   21568040.7704
     -2039.097       -1588.907
 -25095698.269 9 -19526940.47348  20682624.918    20682626.5424   20682631.8484
      2565.341        1998.967
 -11833602.261 9  -9198910.48546  22925274.242    22925275.7454   22925280.9524
      2409.240        1877.330
   1240313.366 9    977704.145 9  21361507.705    21361509.471    21361514.475
     -2510.495       -1956.230
   1720345.067 9   1346614.01248  21128930.928    21128932.4534   21128937.1224
     -1184.414        -922.920
 -14833280.607 9 -11542197.71848  20311094.891    20311096.2374   20311101.1414
       727.410         566.813
 -19706951.695 9 -15333195.02348  20899643.259    20899645.2584   20899650.2104
       161.249         125.649
 -11682762.080 9  -8903119.73047  23225130.556    23225132.3974   23225137.8744
       725.808         565.565
 96 10 21 17 39 59.9980000  0  8 17  1 31 28 23 21  3  9            -0.001539881
   5212314.587 9   4063648.27847  21579708.447    21579709.8904   21579715.5274
     -2050.859       -1598.072
 -25172435.806 9 -19586735.92948  20668022.284    20668023.8544   20668029.1894
      2550.498        1987.401
 -11905646.655 9  -9255048.97446  22911564.538    22911566.1504   22911571.3434
      2393.742        1865.254
   1315817.785 9   1036538.723 9  21375875.662    21375877.516    21375882.511
     -2522.960       -1965.943
   1755938.826 9   1374349.39648  21135704.184    21135705.7304   21135710.4194
     -1188.425        -926.045
 -14854984.993 9 -11559110.22448  20306964.604    20306966.0244   20306970.9304
       719.647         560.764
 -19711461.122 9 -15336708.87548  20898785.220    20898787.1724   20898792.1274
       139.557         108.746
 -11704267.039 9  -8919876.83147  23221038.436    23221040.1084   23221045.5974
       708.013         551.698
 96 10 21 17 40 29.9980000  0  8 17  1 31 28 23 21  3  9            -0.001545766
   5274014.552 9   4111726.14147  21591449.462    21591451.0364   21591456.6704
     -2062.224       -1606.928
 -25248724.173 9 -19646181.38148  20653505.113    20653506.6644   20653511.9854
      2535.511        1975.723
 -11977230.916 9  -9310828.92546  22897942.597    22897944.1614   22897949.3104
      2378.622        1853.472
   1391687.924 9   1095658.281 9  21390313.381    21390315.170    21390320.156
     -2534.851       -1975.209
   1791647.727 9   1402174.50148  21142499.455    21142500.9204   21142505.6104
     -1192.200        -928.987
 -14876456.735 9 -11575841.44448  20302878.633    20302880.0954   20302885.0384
       712.093         554.878
 -19715327.139 9 -15339721.37348  20898049.545    20898051.5094   20898056.4814
       118.491          92.331
 -11725244.372 9  -8936222.79847  23217046.564    23217048.2854   23217053.6784
       690.662         538.178
 96 10 21 17 40 59.9980000  0  8 17  1 31 28 23 21  3  9            -0.001551662
   5336052.095 9   4160067.06647  21603254.889    21603256.4634   21603262.0584
     -2073.663       -1615.841
 -25324571.143 9 -19705282.88748  20639071.941    20639073.4554   20639078.7814
      2521.042        1964.448
 -12048371.686 9  -9366263.29447  22884404.894    22884406.5104   22884411.6484
      2363.926        1842.020
   1467906.023 9   1155048.974 9  21404817.241    21404819.039    21404824.013
     -2546.306       -1984.135
   1827468.318 9   1430086.64348  21149315.797    21149317.3474   21149322.0274
     -1195.722        -931.731
 -14897708.027 9 -11592400.88548  20298834.668    20298836.1024   20298841.0624
       704.691         549.110
 -19718572.403 9 -15342250.15648  20897431.982    20897433.9844   20897438.9504
        97.984          76.351
 -11745706.121 9  -8952167.00647  23213152.721    23213154.5074   23213159.9064
       673.539         524.836
